<?xml version="1.0" encoding="UTF-8" standalone="no" ?>
<gpx xmlns="http://www.topografix.com/GPX/1/1" xmlns:xsi="http://www.w3.org/2001/XMLSchema-instance" xsi:schemaLocation="http://www.topografix.com/GPX/1/1 http://www.topografix.com/GPX/1/1/gpx.xsd" version="1.1" creator="VisuGPX - https://www.visugpx.com">
  <metadata>
    <name>Oppidum des Païens, Gorges du Blavet au départ de la Bouverie </name>
    <desc><![CDATA[Carte IGN 3544 ET
Indice d'effort 3
IBP 62
Technicité 3, descente Oppidum 4
Indice de risque 3/
]]></desc>
  </metadata>
  <trk>
    <name><![CDATA[Trace 1767946133000]]></name>
    <trkseg>
      <trkpt lat="43.5139" lon="6.639">
        <ele>158.7</ele>
        <time>2026-01-09T08:08:53.000Z</time>
      </trkpt>
      <trkpt lat="43.51394" lon="6.63897">
        <ele>151.8</ele>
        <time>2026-01-09T08:10:32.000Z</time>
      </trkpt>
      <trkpt lat="43.514" lon="6.63895">
        <ele>150</ele>
        <time>2026-01-09T08:10:42.000Z</time>
      </trkpt>
      <trkpt lat="43.51405" lon="6.63892">
        <ele>151.1</ele>
        <time>2026-01-09T08:10:52.000Z</time>
      </trkpt>
      <trkpt lat="43.5141" lon="6.6389">
        <ele>151.1</ele>
        <time>2026-01-09T08:11:02.000Z</time>
      </trkpt>
      <trkpt lat="43.51414" lon="6.63898">
        <ele>150.9</ele>
        <time>2026-01-09T08:11:12.000Z</time>
      </trkpt>
      <trkpt lat="43.51418" lon="6.63908">
        <ele>151.4</ele>
        <time>2026-01-09T08:11:22.000Z</time>
      </trkpt>
      <trkpt lat="43.51421" lon="6.63918">
        <ele>153.8</ele>
        <time>2026-01-09T08:11:32.000Z</time>
      </trkpt>
      <trkpt lat="43.5142" lon="6.63929">
        <ele>153.2</ele>
        <time>2026-01-09T08:11:42.000Z</time>
      </trkpt>
      <trkpt lat="43.51422" lon="6.63941">
        <ele>150.2</ele>
        <time>2026-01-09T08:11:52.000Z</time>
      </trkpt>
      <trkpt lat="43.51422" lon="6.63953">
        <ele>151</ele>
        <time>2026-01-09T08:12:02.000Z</time>
      </trkpt>
      <trkpt lat="43.51423" lon="6.63967">
        <ele>151.8</ele>
        <time>2026-01-09T08:12:12.000Z</time>
      </trkpt>
      <trkpt lat="43.51419" lon="6.63977">
        <ele>151.5</ele>
        <time>2026-01-09T08:12:22.000Z</time>
      </trkpt>
      <trkpt lat="43.51413" lon="6.63992">
        <ele>155.6</ele>
        <time>2026-01-09T08:12:32.000Z</time>
      </trkpt>
      <trkpt lat="43.51409" lon="6.64005">
        <ele>155</ele>
        <time>2026-01-09T08:12:42.000Z</time>
      </trkpt>
      <trkpt lat="43.51405" lon="6.64019">
        <ele>154.8</ele>
        <time>2026-01-09T08:12:52.000Z</time>
      </trkpt>
      <trkpt lat="43.51399" lon="6.64032">
        <ele>156.6</ele>
        <time>2026-01-09T08:13:02.000Z</time>
      </trkpt>
      <trkpt lat="43.51395" lon="6.64047">
        <ele>155.8</ele>
        <time>2026-01-09T08:13:12.000Z</time>
      </trkpt>
      <trkpt lat="43.5139" lon="6.64063">
        <ele>156.6</ele>
        <time>2026-01-09T08:13:22.000Z</time>
      </trkpt>
      <trkpt lat="43.51386" lon="6.64081">
        <ele>158.3</ele>
        <time>2026-01-09T08:13:32.000Z</time>
      </trkpt>
      <trkpt lat="43.51381" lon="6.64096">
        <ele>156.2</ele>
        <time>2026-01-09T08:13:42.000Z</time>
      </trkpt>
      <trkpt lat="43.51376" lon="6.64107">
        <ele>156.6</ele>
        <time>2026-01-09T08:13:52.000Z</time>
      </trkpt>
      <trkpt lat="43.51373" lon="6.64116">
        <ele>158.2</ele>
        <time>2026-01-09T08:14:02.000Z</time>
      </trkpt>
      <trkpt lat="43.51371" lon="6.64129">
        <ele>158.2</ele>
        <time>2026-01-09T08:14:12.000Z</time>
      </trkpt>
      <trkpt lat="43.51367" lon="6.64142">
        <ele>158.9</ele>
        <time>2026-01-09T08:14:22.000Z</time>
      </trkpt>
      <trkpt lat="43.51364" lon="6.64154">
        <ele>158.8</ele>
        <time>2026-01-09T08:14:32.000Z</time>
      </trkpt>
      <trkpt lat="43.51361" lon="6.64164">
        <ele>158.1</ele>
        <time>2026-01-09T08:14:42.000Z</time>
      </trkpt>
      <trkpt lat="43.51359" lon="6.64167">
        <ele>158.5</ele>
        <time>2026-01-09T08:15:12.000Z</time>
      </trkpt>
      <trkpt lat="43.51355" lon="6.64178">
        <ele>159.1</ele>
        <time>2026-01-09T08:15:22.000Z</time>
      </trkpt>
      <trkpt lat="43.5135" lon="6.64191">
        <ele>158.8</ele>
        <time>2026-01-09T08:15:32.000Z</time>
      </trkpt>
      <trkpt lat="43.51344" lon="6.64203">
        <ele>158.5</ele>
        <time>2026-01-09T08:15:42.000Z</time>
      </trkpt>
      <trkpt lat="43.51338" lon="6.64216">
        <ele>158.8</ele>
        <time>2026-01-09T08:15:52.000Z</time>
      </trkpt>
      <trkpt lat="43.5133" lon="6.64227">
        <ele>160.8</ele>
        <time>2026-01-09T08:16:02.000Z</time>
      </trkpt>
      <trkpt lat="43.51323" lon="6.64237">
        <ele>158.8</ele>
        <time>2026-01-09T08:16:12.000Z</time>
      </trkpt>
      <trkpt lat="43.51315" lon="6.64249">
        <ele>159.7</ele>
        <time>2026-01-09T08:16:22.000Z</time>
      </trkpt>
      <trkpt lat="43.51308" lon="6.64261">
        <ele>160.3</ele>
        <time>2026-01-09T08:16:32.000Z</time>
      </trkpt>
      <trkpt lat="43.513" lon="6.64272">
        <ele>159.8</ele>
        <time>2026-01-09T08:16:42.000Z</time>
      </trkpt>
      <trkpt lat="43.51292" lon="6.64283">
        <ele>159.6</ele>
        <time>2026-01-09T08:16:52.000Z</time>
      </trkpt>
      <trkpt lat="43.51284" lon="6.64294">
        <ele>159.2</ele>
        <time>2026-01-09T08:17:02.000Z</time>
      </trkpt>
      <trkpt lat="43.51277" lon="6.64307">
        <ele>160.1</ele>
        <time>2026-01-09T08:17:12.000Z</time>
      </trkpt>
      <trkpt lat="43.51268" lon="6.64318">
        <ele>160.7</ele>
        <time>2026-01-09T08:17:22.000Z</time>
      </trkpt>
      <trkpt lat="43.51261" lon="6.64328">
        <ele>159</ele>
        <time>2026-01-09T08:17:32.000Z</time>
      </trkpt>
      <trkpt lat="43.51253" lon="6.6434">
        <ele>160.4</ele>
        <time>2026-01-09T08:17:42.000Z</time>
      </trkpt>
      <trkpt lat="43.51245" lon="6.6435">
        <ele>161.8</ele>
        <time>2026-01-09T08:17:52.000Z</time>
      </trkpt>
      <trkpt lat="43.51238" lon="6.64357">
        <ele>162.6</ele>
        <time>2026-01-09T08:18:02.000Z</time>
      </trkpt>
      <trkpt lat="43.51233" lon="6.64368">
        <ele>161.3</ele>
        <time>2026-01-09T08:18:12.000Z</time>
      </trkpt>
      <trkpt lat="43.51227" lon="6.64381">
        <ele>161.4</ele>
        <time>2026-01-09T08:18:22.000Z</time>
      </trkpt>
      <trkpt lat="43.51222" lon="6.64394">
        <ele>161.2</ele>
        <time>2026-01-09T08:18:32.000Z</time>
      </trkpt>
      <trkpt lat="43.51216" lon="6.64408">
        <ele>161.7</ele>
        <time>2026-01-09T08:18:42.000Z</time>
      </trkpt>
      <trkpt lat="43.51212" lon="6.64422">
        <ele>161.3</ele>
        <time>2026-01-09T08:18:52.000Z</time>
      </trkpt>
      <trkpt lat="43.51207" lon="6.64436">
        <ele>161.8</ele>
        <time>2026-01-09T08:19:02.000Z</time>
      </trkpt>
      <trkpt lat="43.51205" lon="6.6445">
        <ele>161.5</ele>
        <time>2026-01-09T08:19:12.000Z</time>
      </trkpt>
      <trkpt lat="43.51202" lon="6.64465">
        <ele>161.7</ele>
        <time>2026-01-09T08:19:22.000Z</time>
      </trkpt>
      <trkpt lat="43.512" lon="6.6448">
        <ele>160.9</ele>
        <time>2026-01-09T08:19:32.000Z</time>
      </trkpt>
      <trkpt lat="43.51198" lon="6.64496">
        <ele>160.1</ele>
        <time>2026-01-09T08:19:42.000Z</time>
      </trkpt>
      <trkpt lat="43.51194" lon="6.64508">
        <ele>162.7</ele>
        <time>2026-01-09T08:19:52.000Z</time>
      </trkpt>
      <trkpt lat="43.51195" lon="6.64524">
        <ele>161.8</ele>
        <time>2026-01-09T08:20:02.000Z</time>
      </trkpt>
      <trkpt lat="43.51194" lon="6.6454">
        <ele>162.2</ele>
        <time>2026-01-09T08:20:12.000Z</time>
      </trkpt>
      <trkpt lat="43.51195" lon="6.64556">
        <ele>161.3</ele>
        <time>2026-01-09T08:20:22.000Z</time>
      </trkpt>
      <trkpt lat="43.51196" lon="6.64573">
        <ele>161.7</ele>
        <time>2026-01-09T08:20:32.000Z</time>
      </trkpt>
      <trkpt lat="43.51196" lon="6.64589">
        <ele>164.2</ele>
        <time>2026-01-09T08:20:42.000Z</time>
      </trkpt>
      <trkpt lat="43.51199" lon="6.64603">
        <ele>164.5</ele>
        <time>2026-01-09T08:20:52.000Z</time>
      </trkpt>
      <trkpt lat="43.512" lon="6.64619">
        <ele>164.2</ele>
        <time>2026-01-09T08:21:02.000Z</time>
      </trkpt>
      <trkpt lat="43.51204" lon="6.64634">
        <ele>162.7</ele>
        <time>2026-01-09T08:21:12.000Z</time>
      </trkpt>
      <trkpt lat="43.51209" lon="6.64649">
        <ele>163</ele>
        <time>2026-01-09T08:21:22.000Z</time>
      </trkpt>
      <trkpt lat="43.51209" lon="6.64666">
        <ele>168</ele>
        <time>2026-01-09T08:21:32.000Z</time>
      </trkpt>
      <trkpt lat="43.51217" lon="6.64679">
        <ele>166.1</ele>
        <time>2026-01-09T08:21:42.000Z</time>
      </trkpt>
      <trkpt lat="43.51225" lon="6.64693">
        <ele>165.8</ele>
        <time>2026-01-09T08:21:52.000Z</time>
      </trkpt>
      <trkpt lat="43.51234" lon="6.64704">
        <ele>166.8</ele>
        <time>2026-01-09T08:22:02.000Z</time>
      </trkpt>
      <trkpt lat="43.51243" lon="6.64714">
        <ele>165.5</ele>
        <time>2026-01-09T08:22:12.000Z</time>
      </trkpt>
      <trkpt lat="43.51253" lon="6.64722">
        <ele>165.8</ele>
        <time>2026-01-09T08:22:22.000Z</time>
      </trkpt>
      <trkpt lat="43.51265" lon="6.64731">
        <ele>165.8</ele>
        <time>2026-01-09T08:22:32.000Z</time>
      </trkpt>
      <trkpt lat="43.51275" lon="6.64738">
        <ele>166.6</ele>
        <time>2026-01-09T08:22:42.000Z</time>
      </trkpt>
      <trkpt lat="43.51286" lon="6.64746">
        <ele>167.8</ele>
        <time>2026-01-09T08:22:52.000Z</time>
      </trkpt>
      <trkpt lat="43.51296" lon="6.64754">
        <ele>167.9</ele>
        <time>2026-01-09T08:23:02.000Z</time>
      </trkpt>
      <trkpt lat="43.51307" lon="6.6476">
        <ele>169.4</ele>
        <time>2026-01-09T08:23:12.000Z</time>
      </trkpt>
      <trkpt lat="43.51316" lon="6.64768">
        <ele>169.7</ele>
        <time>2026-01-09T08:23:22.000Z</time>
      </trkpt>
      <trkpt lat="43.51326" lon="6.64776">
        <ele>168.9</ele>
        <time>2026-01-09T08:23:32.000Z</time>
      </trkpt>
      <trkpt lat="43.51336" lon="6.64782">
        <ele>168.9</ele>
        <time>2026-01-09T08:23:42.000Z</time>
      </trkpt>
      <trkpt lat="43.51346" lon="6.64787">
        <ele>169.3</ele>
        <time>2026-01-09T08:23:52.000Z</time>
      </trkpt>
      <trkpt lat="43.51357" lon="6.64789">
        <ele>168.6</ele>
        <time>2026-01-09T08:24:02.000Z</time>
      </trkpt>
      <trkpt lat="43.51367" lon="6.64792">
        <ele>170.4</ele>
        <time>2026-01-09T08:24:12.000Z</time>
      </trkpt>
      <trkpt lat="43.51378" lon="6.64794">
        <ele>169.4</ele>
        <time>2026-01-09T08:24:22.000Z</time>
      </trkpt>
      <trkpt lat="43.51389" lon="6.64794">
        <ele>168.6</ele>
        <time>2026-01-09T08:24:32.000Z</time>
      </trkpt>
      <trkpt lat="43.51401" lon="6.64791">
        <ele>170.6</ele>
        <time>2026-01-09T08:24:42.000Z</time>
      </trkpt>
      <trkpt lat="43.51411" lon="6.6479">
        <ele>172.3</ele>
        <time>2026-01-09T08:24:52.000Z</time>
      </trkpt>
      <trkpt lat="43.51421" lon="6.64793">
        <ele>172.9</ele>
        <time>2026-01-09T08:25:02.000Z</time>
      </trkpt>
      <trkpt lat="43.51433" lon="6.64794">
        <ele>173.8</ele>
        <time>2026-01-09T08:25:12.000Z</time>
      </trkpt>
      <trkpt lat="43.51444" lon="6.64794">
        <ele>172.3</ele>
        <time>2026-01-09T08:25:22.000Z</time>
      </trkpt>
      <trkpt lat="43.51455" lon="6.64793">
        <ele>172.2</ele>
        <time>2026-01-09T08:25:32.000Z</time>
      </trkpt>
      <trkpt lat="43.51466" lon="6.64794">
        <ele>174.1</ele>
        <time>2026-01-09T08:25:42.000Z</time>
      </trkpt>
      <trkpt lat="43.51478" lon="6.64792">
        <ele>177.3</ele>
        <time>2026-01-09T08:25:52.000Z</time>
      </trkpt>
      <trkpt lat="43.51489" lon="6.6479">
        <ele>177.9</ele>
        <time>2026-01-09T08:26:02.000Z</time>
      </trkpt>
      <trkpt lat="43.515" lon="6.64791">
        <ele>178</ele>
        <time>2026-01-09T08:26:12.000Z</time>
      </trkpt>
      <trkpt lat="43.51511" lon="6.64792">
        <ele>182.8</ele>
        <time>2026-01-09T08:26:22.000Z</time>
      </trkpt>
      <trkpt lat="43.51521" lon="6.64792">
        <ele>178.4</ele>
        <time>2026-01-09T08:26:32.000Z</time>
      </trkpt>
      <trkpt lat="43.51533" lon="6.64797">
        <ele>179.2</ele>
        <time>2026-01-09T08:26:42.000Z</time>
      </trkpt>
      <trkpt lat="43.5154" lon="6.64808">
        <ele>177.6</ele>
        <time>2026-01-09T08:26:52.000Z</time>
      </trkpt>
      <trkpt lat="43.51537" lon="6.64824">
        <ele>178.5</ele>
        <time>2026-01-09T08:27:02.000Z</time>
      </trkpt>
      <trkpt lat="43.51533" lon="6.64839">
        <ele>178.8</ele>
        <time>2026-01-09T08:27:12.000Z</time>
      </trkpt>
      <trkpt lat="43.51528" lon="6.64853">
        <ele>177.7</ele>
        <time>2026-01-09T08:27:22.000Z</time>
      </trkpt>
      <trkpt lat="43.51525" lon="6.64868">
        <ele>179.9</ele>
        <time>2026-01-09T08:27:32.000Z</time>
      </trkpt>
      <trkpt lat="43.51523" lon="6.64881">
        <ele>179.6</ele>
        <time>2026-01-09T08:27:42.000Z</time>
      </trkpt>
      <trkpt lat="43.51523" lon="6.64895">
        <ele>180.5</ele>
        <time>2026-01-09T08:27:52.000Z</time>
      </trkpt>
      <trkpt lat="43.51526" lon="6.64908">
        <ele>177.5</ele>
        <time>2026-01-09T08:28:02.000Z</time>
      </trkpt>
      <trkpt lat="43.51529" lon="6.6492">
        <ele>177.8</ele>
        <time>2026-01-09T08:28:12.000Z</time>
      </trkpt>
      <trkpt lat="43.5153" lon="6.64932">
        <ele>179.4</ele>
        <time>2026-01-09T08:28:22.000Z</time>
      </trkpt>
      <trkpt lat="43.51528" lon="6.64948">
        <ele>176.2</ele>
        <time>2026-01-09T08:28:32.000Z</time>
      </trkpt>
      <trkpt lat="43.51523" lon="6.64958">
        <ele>178.1</ele>
        <time>2026-01-09T08:28:42.000Z</time>
      </trkpt>
      <trkpt lat="43.51522" lon="6.6496">
        <ele>177.6</ele>
        <time>2026-01-09T08:28:56.000Z</time>
      </trkpt>
      <trkpt lat="43.51514" lon="6.64971">
        <ele>174.5</ele>
        <time>2026-01-09T08:29:06.000Z</time>
      </trkpt>
      <trkpt lat="43.51511" lon="6.64974">
        <ele>175.6</ele>
        <time>2026-01-09T08:29:23.000Z</time>
      </trkpt>
      <trkpt lat="43.51502" lon="6.64979">
        <ele>175.6</ele>
        <time>2026-01-09T08:29:33.000Z</time>
      </trkpt>
      <trkpt lat="43.51493" lon="6.64982">
        <ele>174.7</ele>
        <time>2026-01-09T08:29:43.000Z</time>
      </trkpt>
      <trkpt lat="43.51486" lon="6.64984">
        <ele>170.4</ele>
        <time>2026-01-09T08:29:53.000Z</time>
      </trkpt>
      <trkpt lat="43.51477" lon="6.64985">
        <ele>171.9</ele>
        <time>2026-01-09T08:30:03.000Z</time>
      </trkpt>
      <trkpt lat="43.51465" lon="6.64986">
        <ele>170.2</ele>
        <time>2026-01-09T08:30:13.000Z</time>
      </trkpt>
      <trkpt lat="43.51451" lon="6.64988">
        <ele>169.7</ele>
        <time>2026-01-09T08:30:23.000Z</time>
      </trkpt>
      <trkpt lat="43.5144" lon="6.64991">
        <ele>168.6</ele>
        <time>2026-01-09T08:30:33.000Z</time>
      </trkpt>
      <trkpt lat="43.51427" lon="6.64995">
        <ele>168.3</ele>
        <time>2026-01-09T08:30:43.000Z</time>
      </trkpt>
      <trkpt lat="43.51416" lon="6.65">
        <ele>167.8</ele>
        <time>2026-01-09T08:30:53.000Z</time>
      </trkpt>
      <trkpt lat="43.51407" lon="6.65009">
        <ele>167.7</ele>
        <time>2026-01-09T08:31:03.000Z</time>
      </trkpt>
      <trkpt lat="43.514" lon="6.65021">
        <ele>167</ele>
        <time>2026-01-09T08:31:13.000Z</time>
      </trkpt>
      <trkpt lat="43.51394" lon="6.65034">
        <ele>167</ele>
        <time>2026-01-09T08:31:23.000Z</time>
      </trkpt>
      <trkpt lat="43.51391" lon="6.65048">
        <ele>165.4</ele>
        <time>2026-01-09T08:31:33.000Z</time>
      </trkpt>
      <trkpt lat="43.51385" lon="6.6506">
        <ele>164.1</ele>
        <time>2026-01-09T08:31:43.000Z</time>
      </trkpt>
      <trkpt lat="43.51379" lon="6.65073">
        <ele>162.5</ele>
        <time>2026-01-09T08:31:53.000Z</time>
      </trkpt>
      <trkpt lat="43.51374" lon="6.65086">
        <ele>161.9</ele>
        <time>2026-01-09T08:32:03.000Z</time>
      </trkpt>
      <trkpt lat="43.51369" lon="6.65099">
        <ele>161.3</ele>
        <time>2026-01-09T08:32:13.000Z</time>
      </trkpt>
      <trkpt lat="43.51362" lon="6.65111">
        <ele>160.6</ele>
        <time>2026-01-09T08:32:23.000Z</time>
      </trkpt>
      <trkpt lat="43.51354" lon="6.65122">
        <ele>160</ele>
        <time>2026-01-09T08:32:33.000Z</time>
      </trkpt>
      <trkpt lat="43.51345" lon="6.65131">
        <ele>158.7</ele>
        <time>2026-01-09T08:32:43.000Z</time>
      </trkpt>
      <trkpt lat="43.51339" lon="6.65144">
        <ele>159</ele>
        <time>2026-01-09T08:32:53.000Z</time>
      </trkpt>
      <trkpt lat="43.51335" lon="6.65156">
        <ele>159.7</ele>
        <time>2026-01-09T08:33:03.000Z</time>
      </trkpt>
      <trkpt lat="43.5133" lon="6.65168">
        <ele>159.9</ele>
        <time>2026-01-09T08:33:13.000Z</time>
      </trkpt>
      <trkpt lat="43.51325" lon="6.65179">
        <ele>160.2</ele>
        <time>2026-01-09T08:33:23.000Z</time>
      </trkpt>
      <trkpt lat="43.51321" lon="6.65191">
        <ele>160.9</ele>
        <time>2026-01-09T08:33:33.000Z</time>
      </trkpt>
      <trkpt lat="43.51316" lon="6.65202">
        <ele>161</ele>
        <time>2026-01-09T08:33:43.000Z</time>
      </trkpt>
      <trkpt lat="43.51311" lon="6.65213">
        <ele>161.8</ele>
        <time>2026-01-09T08:33:53.000Z</time>
      </trkpt>
      <trkpt lat="43.51309" lon="6.65225">
        <ele>161.5</ele>
        <time>2026-01-09T08:34:03.000Z</time>
      </trkpt>
      <trkpt lat="43.51308" lon="6.65223">
        <ele>157.6</ele>
        <time>2026-01-09T08:34:33.000Z</time>
      </trkpt>
      <trkpt lat="43.51307" lon="6.65223">
        <ele>158.5</ele>
        <time>2026-01-09T08:36:21.000Z</time>
      </trkpt>
      <trkpt lat="43.51301" lon="6.65231">
        <ele>159.9</ele>
        <time>2026-01-09T08:36:31.000Z</time>
      </trkpt>
      <trkpt lat="43.51296" lon="6.65241">
        <ele>159.4</ele>
        <time>2026-01-09T08:36:41.000Z</time>
      </trkpt>
      <trkpt lat="43.51292" lon="6.65252">
        <ele>158.8</ele>
        <time>2026-01-09T08:36:51.000Z</time>
      </trkpt>
      <trkpt lat="43.51284" lon="6.65265">
        <ele>158.1</ele>
        <time>2026-01-09T08:37:01.000Z</time>
      </trkpt>
      <trkpt lat="43.51277" lon="6.65278">
        <ele>157.4</ele>
        <time>2026-01-09T08:37:11.000Z</time>
      </trkpt>
      <trkpt lat="43.5127" lon="6.6529">
        <ele>156.6</ele>
        <time>2026-01-09T08:37:21.000Z</time>
      </trkpt>
      <trkpt lat="43.51263" lon="6.65303">
        <ele>157.2</ele>
        <time>2026-01-09T08:37:31.000Z</time>
      </trkpt>
      <trkpt lat="43.51256" lon="6.65316">
        <ele>156.3</ele>
        <time>2026-01-09T08:37:41.000Z</time>
      </trkpt>
      <trkpt lat="43.51249" lon="6.65329">
        <ele>156.7</ele>
        <time>2026-01-09T08:37:51.000Z</time>
      </trkpt>
      <trkpt lat="43.51242" lon="6.65341">
        <ele>155.4</ele>
        <time>2026-01-09T08:38:01.000Z</time>
      </trkpt>
      <trkpt lat="43.51238" lon="6.65345">
        <ele>156.8</ele>
        <time>2026-01-09T08:38:11.000Z</time>
      </trkpt>
      <trkpt lat="43.51238" lon="6.65346">
        <ele>155.8</ele>
        <time>2026-01-09T08:39:43.000Z</time>
      </trkpt>
      <trkpt lat="43.51234" lon="6.65355">
        <ele>157.3</ele>
        <time>2026-01-09T08:39:53.000Z</time>
      </trkpt>
      <trkpt lat="43.51229" lon="6.65366">
        <ele>156.2</ele>
        <time>2026-01-09T08:40:03.000Z</time>
      </trkpt>
      <trkpt lat="43.51222" lon="6.65374">
        <ele>156.5</ele>
        <time>2026-01-09T08:40:13.000Z</time>
      </trkpt>
      <trkpt lat="43.51215" lon="6.65385">
        <ele>157.2</ele>
        <time>2026-01-09T08:40:23.000Z</time>
      </trkpt>
      <trkpt lat="43.51209" lon="6.65395">
        <ele>156.5</ele>
        <time>2026-01-09T08:40:33.000Z</time>
      </trkpt>
      <trkpt lat="43.51203" lon="6.65406">
        <ele>156</ele>
        <time>2026-01-09T08:40:43.000Z</time>
      </trkpt>
      <trkpt lat="43.51194" lon="6.65413">
        <ele>154.9</ele>
        <time>2026-01-09T08:40:53.000Z</time>
      </trkpt>
      <trkpt lat="43.51188" lon="6.65423">
        <ele>154.7</ele>
        <time>2026-01-09T08:41:03.000Z</time>
      </trkpt>
      <trkpt lat="43.51194" lon="6.65435">
        <ele>152.2</ele>
        <time>2026-01-09T08:41:13.000Z</time>
      </trkpt>
      <trkpt lat="43.51197" lon="6.65448">
        <ele>151.7</ele>
        <time>2026-01-09T08:41:23.000Z</time>
      </trkpt>
      <trkpt lat="43.51198" lon="6.6546">
        <ele>153.2</ele>
        <time>2026-01-09T08:41:33.000Z</time>
      </trkpt>
      <trkpt lat="43.51202" lon="6.65471">
        <ele>154.9</ele>
        <time>2026-01-09T08:41:43.000Z</time>
      </trkpt>
      <trkpt lat="43.51207" lon="6.65482">
        <ele>156.8</ele>
        <time>2026-01-09T08:41:53.000Z</time>
      </trkpt>
      <trkpt lat="43.51213" lon="6.65491">
        <ele>154.2</ele>
        <time>2026-01-09T08:42:03.000Z</time>
      </trkpt>
      <trkpt lat="43.51221" lon="6.655">
        <ele>152.3</ele>
        <time>2026-01-09T08:42:13.000Z</time>
      </trkpt>
      <trkpt lat="43.51227" lon="6.65512">
        <ele>150.8</ele>
        <time>2026-01-09T08:42:23.000Z</time>
      </trkpt>
      <trkpt lat="43.51233" lon="6.65525">
        <ele>150.7</ele>
        <time>2026-01-09T08:42:33.000Z</time>
      </trkpt>
      <trkpt lat="43.51238" lon="6.65538">
        <ele>150</ele>
        <time>2026-01-09T08:42:43.000Z</time>
      </trkpt>
      <trkpt lat="43.51241" lon="6.65552">
        <ele>148.7</ele>
        <time>2026-01-09T08:42:53.000Z</time>
      </trkpt>
      <trkpt lat="43.51242" lon="6.65567">
        <ele>147.7</ele>
        <time>2026-01-09T08:43:03.000Z</time>
      </trkpt>
      <trkpt lat="43.51242" lon="6.65581">
        <ele>146.2</ele>
        <time>2026-01-09T08:43:13.000Z</time>
      </trkpt>
      <trkpt lat="43.51242" lon="6.65597">
        <ele>145.2</ele>
        <time>2026-01-09T08:43:23.000Z</time>
      </trkpt>
      <trkpt lat="43.5124" lon="6.65612">
        <ele>144.9</ele>
        <time>2026-01-09T08:43:33.000Z</time>
      </trkpt>
      <trkpt lat="43.51241" lon="6.65626">
        <ele>143.8</ele>
        <time>2026-01-09T08:43:43.000Z</time>
      </trkpt>
      <trkpt lat="43.51239" lon="6.65639">
        <ele>146</ele>
        <time>2026-01-09T08:43:53.000Z</time>
      </trkpt>
      <trkpt lat="43.5124" lon="6.65644">
        <ele>146.6</ele>
        <time>2026-01-09T08:44:03.000Z</time>
      </trkpt>
      <trkpt lat="43.51238" lon="6.65645">
        <ele>144.6</ele>
        <time>2026-01-09T08:44:27.000Z</time>
      </trkpt>
      <trkpt lat="43.51232" lon="6.65648">
        <ele>145.1</ele>
        <time>2026-01-09T08:44:37.000Z</time>
      </trkpt>
      <trkpt lat="43.51231" lon="6.6565">
        <ele>145.9</ele>
        <time>2026-01-09T08:45:11.000Z</time>
      </trkpt>
      <trkpt lat="43.51228" lon="6.65649">
        <ele>146.3</ele>
        <time>2026-01-09T08:45:21.000Z</time>
      </trkpt>
      <trkpt lat="43.5123" lon="6.65648">
        <ele>146.2</ele>
        <time>2026-01-09T08:45:31.000Z</time>
      </trkpt>
      <trkpt lat="43.51229" lon="6.6565">
        <ele>147.2</ele>
        <time>2026-01-09T08:45:41.000Z</time>
      </trkpt>
      <trkpt lat="43.51226" lon="6.65659">
        <ele>145.9</ele>
        <time>2026-01-09T08:45:51.000Z</time>
      </trkpt>
      <trkpt lat="43.51227" lon="6.6567">
        <ele>144.6</ele>
        <time>2026-01-09T08:46:01.000Z</time>
      </trkpt>
      <trkpt lat="43.51227" lon="6.65685">
        <ele>145.2</ele>
        <time>2026-01-09T08:46:11.000Z</time>
      </trkpt>
      <trkpt lat="43.51227" lon="6.657">
        <ele>147.5</ele>
        <time>2026-01-09T08:46:21.000Z</time>
      </trkpt>
      <trkpt lat="43.51226" lon="6.65714">
        <ele>147.5</ele>
        <time>2026-01-09T08:46:31.000Z</time>
      </trkpt>
      <trkpt lat="43.51222" lon="6.65728">
        <ele>148.2</ele>
        <time>2026-01-09T08:46:41.000Z</time>
      </trkpt>
      <trkpt lat="43.51219" lon="6.65741">
        <ele>150.6</ele>
        <time>2026-01-09T08:46:51.000Z</time>
      </trkpt>
      <trkpt lat="43.51215" lon="6.65753">
        <ele>152.6</ele>
        <time>2026-01-09T08:47:01.000Z</time>
      </trkpt>
      <trkpt lat="43.5121" lon="6.65766">
        <ele>153.1</ele>
        <time>2026-01-09T08:47:11.000Z</time>
      </trkpt>
      <trkpt lat="43.51211" lon="6.65779">
        <ele>153.5</ele>
        <time>2026-01-09T08:47:21.000Z</time>
      </trkpt>
      <trkpt lat="43.51216" lon="6.65789">
        <ele>152.8</ele>
        <time>2026-01-09T08:47:31.000Z</time>
      </trkpt>
      <trkpt lat="43.51223" lon="6.658">
        <ele>154.2</ele>
        <time>2026-01-09T08:47:41.000Z</time>
      </trkpt>
      <trkpt lat="43.51229" lon="6.6581">
        <ele>156.2</ele>
        <time>2026-01-09T08:47:51.000Z</time>
      </trkpt>
      <trkpt lat="43.51236" lon="6.6582">
        <ele>156.1</ele>
        <time>2026-01-09T08:48:01.000Z</time>
      </trkpt>
      <trkpt lat="43.51242" lon="6.6583">
        <ele>155.7</ele>
        <time>2026-01-09T08:48:11.000Z</time>
      </trkpt>
      <trkpt lat="43.51249" lon="6.6584">
        <ele>156.9</ele>
        <time>2026-01-09T08:48:21.000Z</time>
      </trkpt>
      <trkpt lat="43.51256" lon="6.6585">
        <ele>156.1</ele>
        <time>2026-01-09T08:48:31.000Z</time>
      </trkpt>
      <trkpt lat="43.51263" lon="6.6586">
        <ele>155.1</ele>
        <time>2026-01-09T08:48:41.000Z</time>
      </trkpt>
      <trkpt lat="43.5127" lon="6.6587">
        <ele>156.5</ele>
        <time>2026-01-09T08:48:51.000Z</time>
      </trkpt>
      <trkpt lat="43.51277" lon="6.6588">
        <ele>157.5</ele>
        <time>2026-01-09T08:49:01.000Z</time>
      </trkpt>
      <trkpt lat="43.51284" lon="6.6589">
        <ele>157.8</ele>
        <time>2026-01-09T08:49:11.000Z</time>
      </trkpt>
      <trkpt lat="43.51291" lon="6.659">
        <ele>158.1</ele>
        <time>2026-01-09T08:49:21.000Z</time>
      </trkpt>
      <trkpt lat="43.51299" lon="6.65911">
        <ele>159.3</ele>
        <time>2026-01-09T08:49:31.000Z</time>
      </trkpt>
      <trkpt lat="43.51303" lon="6.65923">
        <ele>159</ele>
        <time>2026-01-09T08:49:41.000Z</time>
      </trkpt>
      <trkpt lat="43.51302" lon="6.65936">
        <ele>161.6</ele>
        <time>2026-01-09T08:49:51.000Z</time>
      </trkpt>
      <trkpt lat="43.51297" lon="6.65948">
        <ele>163.3</ele>
        <time>2026-01-09T08:50:01.000Z</time>
      </trkpt>
      <trkpt lat="43.51292" lon="6.6596">
        <ele>164.1</ele>
        <time>2026-01-09T08:50:11.000Z</time>
      </trkpt>
      <trkpt lat="43.51289" lon="6.65973">
        <ele>165.5</ele>
        <time>2026-01-09T08:50:21.000Z</time>
      </trkpt>
      <trkpt lat="43.51288" lon="6.65988">
        <ele>166.1</ele>
        <time>2026-01-09T08:50:31.000Z</time>
      </trkpt>
      <trkpt lat="43.51285" lon="6.66001">
        <ele>166.2</ele>
        <time>2026-01-09T08:50:41.000Z</time>
      </trkpt>
      <trkpt lat="43.51285" lon="6.66017">
        <ele>168</ele>
        <time>2026-01-09T08:50:51.000Z</time>
      </trkpt>
      <trkpt lat="43.51285" lon="6.66031">
        <ele>169.2</ele>
        <time>2026-01-09T08:51:01.000Z</time>
      </trkpt>
      <trkpt lat="43.51284" lon="6.66046">
        <ele>168.6</ele>
        <time>2026-01-09T08:51:11.000Z</time>
      </trkpt>
      <trkpt lat="43.51284" lon="6.66062">
        <ele>169.5</ele>
        <time>2026-01-09T08:51:21.000Z</time>
      </trkpt>
      <trkpt lat="43.51283" lon="6.66077">
        <ele>171.3</ele>
        <time>2026-01-09T08:51:31.000Z</time>
      </trkpt>
      <trkpt lat="43.51281" lon="6.66092">
        <ele>172.1</ele>
        <time>2026-01-09T08:51:41.000Z</time>
      </trkpt>
      <trkpt lat="43.5128" lon="6.66104">
        <ele>170</ele>
        <time>2026-01-09T08:51:51.000Z</time>
      </trkpt>
      <trkpt lat="43.51279" lon="6.66117">
        <ele>171.2</ele>
        <time>2026-01-09T08:52:01.000Z</time>
      </trkpt>
      <trkpt lat="43.51278" lon="6.66131">
        <ele>170.6</ele>
        <time>2026-01-09T08:52:11.000Z</time>
      </trkpt>
      <trkpt lat="43.51281" lon="6.66145">
        <ele>171.6</ele>
        <time>2026-01-09T08:52:21.000Z</time>
      </trkpt>
      <trkpt lat="43.51281" lon="6.66159">
        <ele>171.9</ele>
        <time>2026-01-09T08:52:31.000Z</time>
      </trkpt>
      <trkpt lat="43.51283" lon="6.66172">
        <ele>172.6</ele>
        <time>2026-01-09T08:52:41.000Z</time>
      </trkpt>
      <trkpt lat="43.51285" lon="6.66185">
        <ele>176.5</ele>
        <time>2026-01-09T08:52:51.000Z</time>
      </trkpt>
      <trkpt lat="43.51286" lon="6.66198">
        <ele>178.4</ele>
        <time>2026-01-09T08:53:01.000Z</time>
      </trkpt>
      <trkpt lat="43.51289" lon="6.66212">
        <ele>177.4</ele>
        <time>2026-01-09T08:53:11.000Z</time>
      </trkpt>
      <trkpt lat="43.51289" lon="6.66227">
        <ele>178.3</ele>
        <time>2026-01-09T08:53:21.000Z</time>
      </trkpt>
      <trkpt lat="43.51286" lon="6.66242">
        <ele>177.8</ele>
        <time>2026-01-09T08:53:31.000Z</time>
      </trkpt>
      <trkpt lat="43.51282" lon="6.66256">
        <ele>177.1</ele>
        <time>2026-01-09T08:53:41.000Z</time>
      </trkpt>
      <trkpt lat="43.5128" lon="6.66271">
        <ele>177.2</ele>
        <time>2026-01-09T08:53:51.000Z</time>
      </trkpt>
      <trkpt lat="43.51276" lon="6.66286">
        <ele>177</ele>
        <time>2026-01-09T08:54:01.000Z</time>
      </trkpt>
      <trkpt lat="43.51274" lon="6.66303">
        <ele>176.7</ele>
        <time>2026-01-09T08:54:11.000Z</time>
      </trkpt>
      <trkpt lat="43.51272" lon="6.66319">
        <ele>177.9</ele>
        <time>2026-01-09T08:54:21.000Z</time>
      </trkpt>
      <trkpt lat="43.5127" lon="6.66333">
        <ele>179.7</ele>
        <time>2026-01-09T08:54:31.000Z</time>
      </trkpt>
      <trkpt lat="43.51268" lon="6.6635">
        <ele>181</ele>
        <time>2026-01-09T08:54:41.000Z</time>
      </trkpt>
      <trkpt lat="43.51267" lon="6.66365">
        <ele>180.9</ele>
        <time>2026-01-09T08:54:51.000Z</time>
      </trkpt>
      <trkpt lat="43.51267" lon="6.6638">
        <ele>180.2</ele>
        <time>2026-01-09T08:55:01.000Z</time>
      </trkpt>
      <trkpt lat="43.51268" lon="6.66395">
        <ele>179.7</ele>
        <time>2026-01-09T08:55:11.000Z</time>
      </trkpt>
      <trkpt lat="43.51269" lon="6.6641">
        <ele>179.1</ele>
        <time>2026-01-09T08:55:21.000Z</time>
      </trkpt>
      <trkpt lat="43.51269" lon="6.66426">
        <ele>179.9</ele>
        <time>2026-01-09T08:55:31.000Z</time>
      </trkpt>
      <trkpt lat="43.51269" lon="6.66442">
        <ele>179.3</ele>
        <time>2026-01-09T08:55:41.000Z</time>
      </trkpt>
      <trkpt lat="43.51271" lon="6.66458">
        <ele>179.3</ele>
        <time>2026-01-09T08:55:51.000Z</time>
      </trkpt>
      <trkpt lat="43.51272" lon="6.66474">
        <ele>179.5</ele>
        <time>2026-01-09T08:56:01.000Z</time>
      </trkpt>
      <trkpt lat="43.51272" lon="6.66491">
        <ele>180</ele>
        <time>2026-01-09T08:56:11.000Z</time>
      </trkpt>
      <trkpt lat="43.51273" lon="6.66507">
        <ele>180.5</ele>
        <time>2026-01-09T08:56:21.000Z</time>
      </trkpt>
      <trkpt lat="43.51275" lon="6.66523">
        <ele>180.1</ele>
        <time>2026-01-09T08:56:31.000Z</time>
      </trkpt>
      <trkpt lat="43.51277" lon="6.66539">
        <ele>180.7</ele>
        <time>2026-01-09T08:56:41.000Z</time>
      </trkpt>
      <trkpt lat="43.51278" lon="6.66555">
        <ele>182.2</ele>
        <time>2026-01-09T08:56:51.000Z</time>
      </trkpt>
      <trkpt lat="43.51279" lon="6.6657">
        <ele>183.7</ele>
        <time>2026-01-09T08:57:01.000Z</time>
      </trkpt>
      <trkpt lat="43.5128" lon="6.66585">
        <ele>185.4</ele>
        <time>2026-01-09T08:57:11.000Z</time>
      </trkpt>
      <trkpt lat="43.5128" lon="6.666">
        <ele>185.9</ele>
        <time>2026-01-09T08:57:21.000Z</time>
      </trkpt>
      <trkpt lat="43.51281" lon="6.66613">
        <ele>186.5</ele>
        <time>2026-01-09T08:57:31.000Z</time>
      </trkpt>
      <trkpt lat="43.51282" lon="6.66627">
        <ele>188</ele>
        <time>2026-01-09T08:57:41.000Z</time>
      </trkpt>
      <trkpt lat="43.51284" lon="6.6664">
        <ele>189.7</ele>
        <time>2026-01-09T08:57:51.000Z</time>
      </trkpt>
      <trkpt lat="43.51285" lon="6.66654">
        <ele>190.4</ele>
        <time>2026-01-09T08:58:01.000Z</time>
      </trkpt>
      <trkpt lat="43.51286" lon="6.66667">
        <ele>192.2</ele>
        <time>2026-01-09T08:58:11.000Z</time>
      </trkpt>
      <trkpt lat="43.51287" lon="6.66679">
        <ele>193</ele>
        <time>2026-01-09T08:58:21.000Z</time>
      </trkpt>
      <trkpt lat="43.51289" lon="6.66693">
        <ele>193.7</ele>
        <time>2026-01-09T08:58:31.000Z</time>
      </trkpt>
      <trkpt lat="43.51288" lon="6.66705">
        <ele>194.9</ele>
        <time>2026-01-09T08:58:41.000Z</time>
      </trkpt>
      <trkpt lat="43.51288" lon="6.66717">
        <ele>195</ele>
        <time>2026-01-09T08:58:51.000Z</time>
      </trkpt>
      <trkpt lat="43.5129" lon="6.66731">
        <ele>196.2</ele>
        <time>2026-01-09T08:59:01.000Z</time>
      </trkpt>
      <trkpt lat="43.51293" lon="6.66744">
        <ele>196</ele>
        <time>2026-01-09T08:59:11.000Z</time>
      </trkpt>
      <trkpt lat="43.51296" lon="6.66757">
        <ele>197.3</ele>
        <time>2026-01-09T08:59:21.000Z</time>
      </trkpt>
      <trkpt lat="43.51297" lon="6.66768">
        <ele>200.4</ele>
        <time>2026-01-09T08:59:31.000Z</time>
      </trkpt>
      <trkpt lat="43.51298" lon="6.66781">
        <ele>201.7</ele>
        <time>2026-01-09T08:59:41.000Z</time>
      </trkpt>
      <trkpt lat="43.513" lon="6.66795">
        <ele>201.9</ele>
        <time>2026-01-09T08:59:51.000Z</time>
      </trkpt>
      <trkpt lat="43.51303" lon="6.66806">
        <ele>201.8</ele>
        <time>2026-01-09T09:00:01.000Z</time>
      </trkpt>
      <trkpt lat="43.51308" lon="6.66816">
        <ele>200.7</ele>
        <time>2026-01-09T09:00:11.000Z</time>
      </trkpt>
      <trkpt lat="43.51316" lon="6.66822">
        <ele>201.1</ele>
        <time>2026-01-09T09:00:21.000Z</time>
      </trkpt>
      <trkpt lat="43.51325" lon="6.66821">
        <ele>202.2</ele>
        <time>2026-01-09T09:00:31.000Z</time>
      </trkpt>
      <trkpt lat="43.51331" lon="6.66812">
        <ele>203.1</ele>
        <time>2026-01-09T09:00:41.000Z</time>
      </trkpt>
      <trkpt lat="43.51334" lon="6.66801">
        <ele>201.5</ele>
        <time>2026-01-09T09:00:51.000Z</time>
      </trkpt>
      <trkpt lat="43.51338" lon="6.6679">
        <ele>200</ele>
        <time>2026-01-09T09:01:01.000Z</time>
      </trkpt>
      <trkpt lat="43.51341" lon="6.66779">
        <ele>199.9</ele>
        <time>2026-01-09T09:01:11.000Z</time>
      </trkpt>
      <trkpt lat="43.51345" lon="6.66767">
        <ele>201.1</ele>
        <time>2026-01-09T09:01:21.000Z</time>
      </trkpt>
      <trkpt lat="43.51347" lon="6.66757">
        <ele>200.8</ele>
        <time>2026-01-09T09:01:31.000Z</time>
      </trkpt>
      <trkpt lat="43.5135" lon="6.66745">
        <ele>201.1</ele>
        <time>2026-01-09T09:01:41.000Z</time>
      </trkpt>
      <trkpt lat="43.51354" lon="6.66735">
        <ele>202.7</ele>
        <time>2026-01-09T09:01:51.000Z</time>
      </trkpt>
      <trkpt lat="43.51356" lon="6.66728">
        <ele>200.2</ele>
        <time>2026-01-09T09:02:01.000Z</time>
      </trkpt>
      <trkpt lat="43.51357" lon="6.66725">
        <ele>200.7</ele>
        <time>2026-01-09T09:02:11.000Z</time>
      </trkpt>
      <trkpt lat="43.51356" lon="6.66721">
        <ele>200.6</ele>
        <time>2026-01-09T09:02:21.000Z</time>
      </trkpt>
      <trkpt lat="43.51357" lon="6.6672">
        <ele>202.1</ele>
        <time>2026-01-09T09:02:38.000Z</time>
      </trkpt>
      <trkpt lat="43.5136" lon="6.66714">
        <ele>202.1</ele>
        <time>2026-01-09T09:02:48.000Z</time>
      </trkpt>
      <trkpt lat="43.51363" lon="6.66705">
        <ele>202.7</ele>
        <time>2026-01-09T09:02:58.000Z</time>
      </trkpt>
      <trkpt lat="43.51364" lon="6.66698">
        <ele>202.9</ele>
        <time>2026-01-09T09:03:08.000Z</time>
      </trkpt>
      <trkpt lat="43.51367" lon="6.66688">
        <ele>202.7</ele>
        <time>2026-01-09T09:03:18.000Z</time>
      </trkpt>
      <trkpt lat="43.5137" lon="6.66677">
        <ele>199.8</ele>
        <time>2026-01-09T09:03:28.000Z</time>
      </trkpt>
      <trkpt lat="43.51373" lon="6.66665">
        <ele>200.5</ele>
        <time>2026-01-09T09:03:38.000Z</time>
      </trkpt>
      <trkpt lat="43.51377" lon="6.66654">
        <ele>200.5</ele>
        <time>2026-01-09T09:03:48.000Z</time>
      </trkpt>
      <trkpt lat="43.51379" lon="6.66642">
        <ele>199.6</ele>
        <time>2026-01-09T09:03:58.000Z</time>
      </trkpt>
      <trkpt lat="43.51382" lon="6.66629">
        <ele>202.8</ele>
        <time>2026-01-09T09:04:08.000Z</time>
      </trkpt>
      <trkpt lat="43.51384" lon="6.66617">
        <ele>203</ele>
        <time>2026-01-09T09:04:18.000Z</time>
      </trkpt>
      <trkpt lat="43.51387" lon="6.66603">
        <ele>205.9</ele>
        <time>2026-01-09T09:04:28.000Z</time>
      </trkpt>
      <trkpt lat="43.51387" lon="6.66591">
        <ele>207.6</ele>
        <time>2026-01-09T09:04:38.000Z</time>
      </trkpt>
      <trkpt lat="43.51388" lon="6.6658">
        <ele>209.8</ele>
        <time>2026-01-09T09:04:48.000Z</time>
      </trkpt>
      <trkpt lat="43.51388" lon="6.66567">
        <ele>212.1</ele>
        <time>2026-01-09T09:04:58.000Z</time>
      </trkpt>
      <trkpt lat="43.51389" lon="6.66555">
        <ele>211.7</ele>
        <time>2026-01-09T09:05:08.000Z</time>
      </trkpt>
      <trkpt lat="43.51391" lon="6.66542">
        <ele>211.2</ele>
        <time>2026-01-09T09:05:18.000Z</time>
      </trkpt>
      <trkpt lat="43.51393" lon="6.6653">
        <ele>209.4</ele>
        <time>2026-01-09T09:05:28.000Z</time>
      </trkpt>
      <trkpt lat="43.51396" lon="6.66518">
        <ele>210.8</ele>
        <time>2026-01-09T09:05:38.000Z</time>
      </trkpt>
      <trkpt lat="43.51395" lon="6.66504">
        <ele>213.1</ele>
        <time>2026-01-09T09:05:48.000Z</time>
      </trkpt>
      <trkpt lat="43.51397" lon="6.66491">
        <ele>216</ele>
        <time>2026-01-09T09:05:58.000Z</time>
      </trkpt>
      <trkpt lat="43.514" lon="6.66481">
        <ele>216.1</ele>
        <time>2026-01-09T09:06:08.000Z</time>
      </trkpt>
      <trkpt lat="43.51405" lon="6.66469">
        <ele>217.3</ele>
        <time>2026-01-09T09:06:18.000Z</time>
      </trkpt>
      <trkpt lat="43.51411" lon="6.66458">
        <ele>217.8</ele>
        <time>2026-01-09T09:06:28.000Z</time>
      </trkpt>
      <trkpt lat="43.51416" lon="6.66447">
        <ele>218.2</ele>
        <time>2026-01-09T09:06:38.000Z</time>
      </trkpt>
      <trkpt lat="43.51421" lon="6.66436">
        <ele>218.8</ele>
        <time>2026-01-09T09:06:48.000Z</time>
      </trkpt>
      <trkpt lat="43.51426" lon="6.66424">
        <ele>220.4</ele>
        <time>2026-01-09T09:06:58.000Z</time>
      </trkpt>
      <trkpt lat="43.51432" lon="6.66414">
        <ele>221</ele>
        <time>2026-01-09T09:07:08.000Z</time>
      </trkpt>
      <trkpt lat="43.51438" lon="6.66403">
        <ele>220.4</ele>
        <time>2026-01-09T09:07:18.000Z</time>
      </trkpt>
      <trkpt lat="43.51443" lon="6.6639">
        <ele>222.8</ele>
        <time>2026-01-09T09:07:28.000Z</time>
      </trkpt>
      <trkpt lat="43.51447" lon="6.66379">
        <ele>222.9</ele>
        <time>2026-01-09T09:07:38.000Z</time>
      </trkpt>
      <trkpt lat="43.51451" lon="6.66371">
        <ele>221.6</ele>
        <time>2026-01-09T09:07:48.000Z</time>
      </trkpt>
      <trkpt lat="43.51454" lon="6.66363">
        <ele>221.8</ele>
        <time>2026-01-09T09:07:58.000Z</time>
      </trkpt>
      <trkpt lat="43.51459" lon="6.66353">
        <ele>222.8</ele>
        <time>2026-01-09T09:08:08.000Z</time>
      </trkpt>
      <trkpt lat="43.51466" lon="6.66347">
        <ele>225.6</ele>
        <time>2026-01-09T09:08:18.000Z</time>
      </trkpt>
      <trkpt lat="43.51469" lon="6.66338">
        <ele>232.3</ele>
        <time>2026-01-09T09:08:28.000Z</time>
      </trkpt>
      <trkpt lat="43.5147" lon="6.66333">
        <ele>237.5</ele>
        <time>2026-01-09T09:08:38.000Z</time>
      </trkpt>
      <trkpt lat="43.51476" lon="6.66322">
        <ele>235.1</ele>
        <time>2026-01-09T09:08:48.000Z</time>
      </trkpt>
      <trkpt lat="43.51481" lon="6.66313">
        <ele>237.9</ele>
        <time>2026-01-09T09:08:58.000Z</time>
      </trkpt>
      <trkpt lat="43.51485" lon="6.66305">
        <ele>239.7</ele>
        <time>2026-01-09T09:09:08.000Z</time>
      </trkpt>
      <trkpt lat="43.51492" lon="6.66303">
        <ele>242.9</ele>
        <time>2026-01-09T09:09:18.000Z</time>
      </trkpt>
      <trkpt lat="43.515" lon="6.66307">
        <ele>240.6</ele>
        <time>2026-01-09T09:09:28.000Z</time>
      </trkpt>
      <trkpt lat="43.51503" lon="6.66315">
        <ele>237.7</ele>
        <time>2026-01-09T09:09:38.000Z</time>
      </trkpt>
      <trkpt lat="43.51501" lon="6.66325">
        <ele>236.6</ele>
        <time>2026-01-09T09:09:48.000Z</time>
      </trkpt>
      <trkpt lat="43.515" lon="6.66337">
        <ele>239.8</ele>
        <time>2026-01-09T09:09:58.000Z</time>
      </trkpt>
      <trkpt lat="43.51501" lon="6.66351">
        <ele>239.7</ele>
        <time>2026-01-09T09:10:08.000Z</time>
      </trkpt>
      <trkpt lat="43.515" lon="6.66363">
        <ele>238.1</ele>
        <time>2026-01-09T09:10:18.000Z</time>
      </trkpt>
      <trkpt lat="43.51499" lon="6.66372">
        <ele>235.3</ele>
        <time>2026-01-09T09:10:28.000Z</time>
      </trkpt>
      <trkpt lat="43.51497" lon="6.66384">
        <ele>237.6</ele>
        <time>2026-01-09T09:10:38.000Z</time>
      </trkpt>
      <trkpt lat="43.51497" lon="6.66395">
        <ele>237.2</ele>
        <time>2026-01-09T09:10:48.000Z</time>
      </trkpt>
      <trkpt lat="43.51496" lon="6.66409">
        <ele>237.6</ele>
        <time>2026-01-09T09:10:58.000Z</time>
      </trkpt>
      <trkpt lat="43.51496" lon="6.6642">
        <ele>237.5</ele>
        <time>2026-01-09T09:11:08.000Z</time>
      </trkpt>
      <trkpt lat="43.51496" lon="6.66432">
        <ele>238.4</ele>
        <time>2026-01-09T09:11:18.000Z</time>
      </trkpt>
      <trkpt lat="43.51495" lon="6.66442">
        <ele>240.8</ele>
        <time>2026-01-09T09:11:28.000Z</time>
      </trkpt>
      <trkpt lat="43.51496" lon="6.66453">
        <ele>240.7</ele>
        <time>2026-01-09T09:11:38.000Z</time>
      </trkpt>
      <trkpt lat="43.51497" lon="6.66464">
        <ele>243.2</ele>
        <time>2026-01-09T09:11:48.000Z</time>
      </trkpt>
      <trkpt lat="43.51497" lon="6.66477">
        <ele>239.8</ele>
        <time>2026-01-09T09:11:58.000Z</time>
      </trkpt>
      <trkpt lat="43.51498" lon="6.6649">
        <ele>240.2</ele>
        <time>2026-01-09T09:12:08.000Z</time>
      </trkpt>
      <trkpt lat="43.51499" lon="6.66503">
        <ele>239.8</ele>
        <time>2026-01-09T09:12:18.000Z</time>
      </trkpt>
      <trkpt lat="43.51501" lon="6.66515">
        <ele>239.4</ele>
        <time>2026-01-09T09:12:28.000Z</time>
      </trkpt>
      <trkpt lat="43.51503" lon="6.66527">
        <ele>242.8</ele>
        <time>2026-01-09T09:12:38.000Z</time>
      </trkpt>
      <trkpt lat="43.51506" lon="6.66539">
        <ele>242.5</ele>
        <time>2026-01-09T09:12:48.000Z</time>
      </trkpt>
      <trkpt lat="43.51508" lon="6.6655">
        <ele>244.4</ele>
        <time>2026-01-09T09:12:58.000Z</time>
      </trkpt>
      <trkpt lat="43.51512" lon="6.66561">
        <ele>247</ele>
        <time>2026-01-09T09:13:08.000Z</time>
      </trkpt>
      <trkpt lat="43.51517" lon="6.66572">
        <ele>248.1</ele>
        <time>2026-01-09T09:13:18.000Z</time>
      </trkpt>
      <trkpt lat="43.5152" lon="6.66584">
        <ele>248.2</ele>
        <time>2026-01-09T09:13:28.000Z</time>
      </trkpt>
      <trkpt lat="43.51522" lon="6.6659">
        <ele>247.5</ele>
        <time>2026-01-09T09:13:38.000Z</time>
      </trkpt>
      <trkpt lat="43.51523" lon="6.66596">
        <ele>248.4</ele>
        <time>2026-01-09T09:13:48.000Z</time>
      </trkpt>
      <trkpt lat="43.51528" lon="6.66604">
        <ele>247.8</ele>
        <time>2026-01-09T09:13:58.000Z</time>
      </trkpt>
      <trkpt lat="43.51534" lon="6.66601">
        <ele>250.8</ele>
        <time>2026-01-09T09:14:08.000Z</time>
      </trkpt>
      <trkpt lat="43.51539" lon="6.66597">
        <ele>254.3</ele>
        <time>2026-01-09T09:14:23.000Z</time>
      </trkpt>
      <trkpt lat="43.5154" lon="6.66587">
        <ele>251.5</ele>
        <time>2026-01-09T09:14:33.000Z</time>
      </trkpt>
      <trkpt lat="43.51539" lon="6.66574">
        <ele>254.5</ele>
        <time>2026-01-09T09:14:43.000Z</time>
      </trkpt>
      <trkpt lat="43.51535" lon="6.6656">
        <ele>254.1</ele>
        <time>2026-01-09T09:14:53.000Z</time>
      </trkpt>
      <trkpt lat="43.51534" lon="6.6655">
        <ele>255</ele>
        <time>2026-01-09T09:15:03.000Z</time>
      </trkpt>
      <trkpt lat="43.5153" lon="6.66535">
        <ele>256.6</ele>
        <time>2026-01-09T09:15:13.000Z</time>
      </trkpt>
      <trkpt lat="43.51535" lon="6.66532">
        <ele>255</ele>
        <time>2026-01-09T09:15:23.000Z</time>
      </trkpt>
      <trkpt lat="43.51533" lon="6.66534">
        <ele>255.5</ele>
        <time>2026-01-09T09:22:28.000Z</time>
      </trkpt>
      <trkpt lat="43.51535" lon="6.66534">
        <ele>256.4</ele>
        <time>2026-01-09T09:23:55.000Z</time>
      </trkpt>
      <trkpt lat="43.51536" lon="6.66531">
        <ele>257.5</ele>
        <time>2026-01-09T09:24:14.000Z</time>
      </trkpt>
      <trkpt lat="43.51543" lon="6.66529">
        <ele>255.6</ele>
        <time>2026-01-09T09:24:24.000Z</time>
      </trkpt>
      <trkpt lat="43.51548" lon="6.66526">
        <ele>260.2</ele>
        <time>2026-01-09T09:24:34.000Z</time>
      </trkpt>
      <trkpt lat="43.5155" lon="6.66522">
        <ele>261.1</ele>
        <time>2026-01-09T09:24:44.000Z</time>
      </trkpt>
      <trkpt lat="43.51555" lon="6.66517">
        <ele>260.8</ele>
        <time>2026-01-09T09:24:54.000Z</time>
      </trkpt>
      <trkpt lat="43.5156" lon="6.66515">
        <ele>261.8</ele>
        <time>2026-01-09T09:25:04.000Z</time>
      </trkpt>
      <trkpt lat="43.51565" lon="6.66512">
        <ele>263.3</ele>
        <time>2026-01-09T09:25:14.000Z</time>
      </trkpt>
      <trkpt lat="43.51569" lon="6.66511">
        <ele>263.5</ele>
        <time>2026-01-09T09:25:24.000Z</time>
      </trkpt>
      <trkpt lat="43.51573" lon="6.66509">
        <ele>263.6</ele>
        <time>2026-01-09T09:25:34.000Z</time>
      </trkpt>
      <trkpt lat="43.51579" lon="6.6651">
        <ele>262.5</ele>
        <time>2026-01-09T09:25:44.000Z</time>
      </trkpt>
      <trkpt lat="43.51584" lon="6.66509">
        <ele>267.5</ele>
        <time>2026-01-09T09:25:54.000Z</time>
      </trkpt>
      <trkpt lat="43.51588" lon="6.66505">
        <ele>269.2</ele>
        <time>2026-01-09T09:26:04.000Z</time>
      </trkpt>
      <trkpt lat="43.51593" lon="6.66501">
        <ele>271.3</ele>
        <time>2026-01-09T09:26:14.000Z</time>
      </trkpt>
      <trkpt lat="43.51597" lon="6.66499">
        <ele>272.3</ele>
        <time>2026-01-09T09:26:24.000Z</time>
      </trkpt>
      <trkpt lat="43.51602" lon="6.665">
        <ele>272.5</ele>
        <time>2026-01-09T09:26:34.000Z</time>
      </trkpt>
      <trkpt lat="43.51606" lon="6.66497">
        <ele>270.2</ele>
        <time>2026-01-09T09:26:44.000Z</time>
      </trkpt>
      <trkpt lat="43.51612" lon="6.66497">
        <ele>272.5</ele>
        <time>2026-01-09T09:26:54.000Z</time>
      </trkpt>
      <trkpt lat="43.51616" lon="6.66495">
        <ele>273.1</ele>
        <time>2026-01-09T09:27:04.000Z</time>
      </trkpt>
      <trkpt lat="43.51621" lon="6.66492">
        <ele>273</ele>
        <time>2026-01-09T09:27:14.000Z</time>
      </trkpt>
      <trkpt lat="43.51626" lon="6.66486">
        <ele>274.5</ele>
        <time>2026-01-09T09:27:24.000Z</time>
      </trkpt>
      <trkpt lat="43.51629" lon="6.66477">
        <ele>274.4</ele>
        <time>2026-01-09T09:27:34.000Z</time>
      </trkpt>
      <trkpt lat="43.51631" lon="6.66468">
        <ele>273.5</ele>
        <time>2026-01-09T09:27:44.000Z</time>
      </trkpt>
      <trkpt lat="43.51635" lon="6.66457">
        <ele>272.5</ele>
        <time>2026-01-09T09:27:54.000Z</time>
      </trkpt>
      <trkpt lat="43.51636" lon="6.66445">
        <ele>272.8</ele>
        <time>2026-01-09T09:28:04.000Z</time>
      </trkpt>
      <trkpt lat="43.51639" lon="6.66434">
        <ele>272.7</ele>
        <time>2026-01-09T09:28:14.000Z</time>
      </trkpt>
      <trkpt lat="43.51642" lon="6.66421">
        <ele>273</ele>
        <time>2026-01-09T09:28:24.000Z</time>
      </trkpt>
      <trkpt lat="43.51646" lon="6.6641">
        <ele>274.5</ele>
        <time>2026-01-09T09:28:34.000Z</time>
      </trkpt>
      <trkpt lat="43.51649" lon="6.66397">
        <ele>275</ele>
        <time>2026-01-09T09:28:44.000Z</time>
      </trkpt>
      <trkpt lat="43.51653" lon="6.66384">
        <ele>275.2</ele>
        <time>2026-01-09T09:28:54.000Z</time>
      </trkpt>
      <trkpt lat="43.51659" lon="6.66371">
        <ele>275.4</ele>
        <time>2026-01-09T09:29:04.000Z</time>
      </trkpt>
      <trkpt lat="43.51663" lon="6.66358">
        <ele>277.3</ele>
        <time>2026-01-09T09:29:14.000Z</time>
      </trkpt>
      <trkpt lat="43.51668" lon="6.66346">
        <ele>278.8</ele>
        <time>2026-01-09T09:29:24.000Z</time>
      </trkpt>
      <trkpt lat="43.51674" lon="6.66334">
        <ele>281.2</ele>
        <time>2026-01-09T09:29:34.000Z</time>
      </trkpt>
      <trkpt lat="43.51681" lon="6.66324">
        <ele>281.9</ele>
        <time>2026-01-09T09:29:44.000Z</time>
      </trkpt>
      <trkpt lat="43.51687" lon="6.66312">
        <ele>283.8</ele>
        <time>2026-01-09T09:29:54.000Z</time>
      </trkpt>
      <trkpt lat="43.51693" lon="6.66301">
        <ele>285.2</ele>
        <time>2026-01-09T09:30:04.000Z</time>
      </trkpt>
      <trkpt lat="43.51701" lon="6.66293">
        <ele>285.7</ele>
        <time>2026-01-09T09:30:14.000Z</time>
      </trkpt>
      <trkpt lat="43.51707" lon="6.66282">
        <ele>286</ele>
        <time>2026-01-09T09:30:24.000Z</time>
      </trkpt>
      <trkpt lat="43.51713" lon="6.66271">
        <ele>285.1</ele>
        <time>2026-01-09T09:30:34.000Z</time>
      </trkpt>
      <trkpt lat="43.51716" lon="6.66258">
        <ele>287.2</ele>
        <time>2026-01-09T09:30:44.000Z</time>
      </trkpt>
      <trkpt lat="43.51719" lon="6.66246">
        <ele>286.6</ele>
        <time>2026-01-09T09:30:54.000Z</time>
      </trkpt>
      <trkpt lat="43.51723" lon="6.66235">
        <ele>289.4</ele>
        <time>2026-01-09T09:31:04.000Z</time>
      </trkpt>
      <trkpt lat="43.51727" lon="6.66225">
        <ele>290.8</ele>
        <time>2026-01-09T09:31:14.000Z</time>
      </trkpt>
      <trkpt lat="43.51732" lon="6.66216">
        <ele>291.6</ele>
        <time>2026-01-09T09:31:24.000Z</time>
      </trkpt>
      <trkpt lat="43.51738" lon="6.66207">
        <ele>291.4</ele>
        <time>2026-01-09T09:31:34.000Z</time>
      </trkpt>
      <trkpt lat="43.5174" lon="6.66196">
        <ele>290.9</ele>
        <time>2026-01-09T09:31:44.000Z</time>
      </trkpt>
      <trkpt lat="43.51745" lon="6.66185">
        <ele>288.9</ele>
        <time>2026-01-09T09:31:54.000Z</time>
      </trkpt>
      <trkpt lat="43.5175" lon="6.66174">
        <ele>289.2</ele>
        <time>2026-01-09T09:32:04.000Z</time>
      </trkpt>
      <trkpt lat="43.51755" lon="6.66163">
        <ele>290.2</ele>
        <time>2026-01-09T09:32:14.000Z</time>
      </trkpt>
      <trkpt lat="43.51758" lon="6.66149">
        <ele>292.1</ele>
        <time>2026-01-09T09:32:24.000Z</time>
      </trkpt>
      <trkpt lat="43.51761" lon="6.66138">
        <ele>292.4</ele>
        <time>2026-01-09T09:32:34.000Z</time>
      </trkpt>
      <trkpt lat="43.5176" lon="6.66126">
        <ele>295.4</ele>
        <time>2026-01-09T09:32:44.000Z</time>
      </trkpt>
      <trkpt lat="43.51761" lon="6.66115">
        <ele>296.7</ele>
        <time>2026-01-09T09:32:54.000Z</time>
      </trkpt>
      <trkpt lat="43.51766" lon="6.66106">
        <ele>296.7</ele>
        <time>2026-01-09T09:33:04.000Z</time>
      </trkpt>
      <trkpt lat="43.51772" lon="6.66098">
        <ele>298</ele>
        <time>2026-01-09T09:33:14.000Z</time>
      </trkpt>
      <trkpt lat="43.51775" lon="6.66096">
        <ele>297.6</ele>
        <time>2026-01-09T09:33:37.000Z</time>
      </trkpt>
      <trkpt lat="43.51776" lon="6.66098">
        <ele>298.5</ele>
        <time>2026-01-09T09:34:16.000Z</time>
      </trkpt>
      <trkpt lat="43.51778" lon="6.66099">
        <ele>297.8</ele>
        <time>2026-01-09T09:34:41.000Z</time>
      </trkpt>
      <trkpt lat="43.51782" lon="6.66108">
        <ele>297.3</ele>
        <time>2026-01-09T09:34:51.000Z</time>
      </trkpt>
      <trkpt lat="43.51788" lon="6.66115">
        <ele>296.2</ele>
        <time>2026-01-09T09:35:01.000Z</time>
      </trkpt>
      <trkpt lat="43.51798" lon="6.6612">
        <ele>296.6</ele>
        <time>2026-01-09T09:35:11.000Z</time>
      </trkpt>
      <trkpt lat="43.51808" lon="6.66127">
        <ele>296.8</ele>
        <time>2026-01-09T09:35:21.000Z</time>
      </trkpt>
      <trkpt lat="43.51816" lon="6.66134">
        <ele>295.1</ele>
        <time>2026-01-09T09:35:31.000Z</time>
      </trkpt>
      <trkpt lat="43.51826" lon="6.66139">
        <ele>295.1</ele>
        <time>2026-01-09T09:35:41.000Z</time>
      </trkpt>
      <trkpt lat="43.51835" lon="6.66146">
        <ele>295.9</ele>
        <time>2026-01-09T09:35:51.000Z</time>
      </trkpt>
      <trkpt lat="43.51845" lon="6.66155">
        <ele>296.3</ele>
        <time>2026-01-09T09:36:01.000Z</time>
      </trkpt>
      <trkpt lat="43.51848" lon="6.66169">
        <ele>296.6</ele>
        <time>2026-01-09T09:36:11.000Z</time>
      </trkpt>
      <trkpt lat="43.51841" lon="6.66179">
        <ele>299.2</ele>
        <time>2026-01-09T09:36:21.000Z</time>
      </trkpt>
      <trkpt lat="43.51834" lon="6.6619">
        <ele>300.7</ele>
        <time>2026-01-09T09:36:31.000Z</time>
      </trkpt>
      <trkpt lat="43.51827" lon="6.66204">
        <ele>300.1</ele>
        <time>2026-01-09T09:36:41.000Z</time>
      </trkpt>
      <trkpt lat="43.51821" lon="6.66217">
        <ele>299.2</ele>
        <time>2026-01-09T09:36:51.000Z</time>
      </trkpt>
      <trkpt lat="43.51817" lon="6.66232">
        <ele>298.5</ele>
        <time>2026-01-09T09:37:01.000Z</time>
      </trkpt>
      <trkpt lat="43.51814" lon="6.66247">
        <ele>299.2</ele>
        <time>2026-01-09T09:37:11.000Z</time>
      </trkpt>
      <trkpt lat="43.51813" lon="6.6626">
        <ele>298.5</ele>
        <time>2026-01-09T09:37:21.000Z</time>
      </trkpt>
      <trkpt lat="43.51813" lon="6.66275">
        <ele>298.6</ele>
        <time>2026-01-09T09:37:31.000Z</time>
      </trkpt>
      <trkpt lat="43.51814" lon="6.66291">
        <ele>298.1</ele>
        <time>2026-01-09T09:37:41.000Z</time>
      </trkpt>
      <trkpt lat="43.51815" lon="6.66306">
        <ele>297.6</ele>
        <time>2026-01-09T09:37:51.000Z</time>
      </trkpt>
      <trkpt lat="43.51817" lon="6.6632">
        <ele>296.4</ele>
        <time>2026-01-09T09:38:01.000Z</time>
      </trkpt>
      <trkpt lat="43.51821" lon="6.66334">
        <ele>295.6</ele>
        <time>2026-01-09T09:38:11.000Z</time>
      </trkpt>
      <trkpt lat="43.51825" lon="6.66348">
        <ele>293.6</ele>
        <time>2026-01-09T09:38:21.000Z</time>
      </trkpt>
      <trkpt lat="43.51832" lon="6.6636">
        <ele>293.4</ele>
        <time>2026-01-09T09:38:31.000Z</time>
      </trkpt>
      <trkpt lat="43.51839" lon="6.66371">
        <ele>292.4</ele>
        <time>2026-01-09T09:38:41.000Z</time>
      </trkpt>
      <trkpt lat="43.51846" lon="6.66381">
        <ele>291</ele>
        <time>2026-01-09T09:38:51.000Z</time>
      </trkpt>
      <trkpt lat="43.51853" lon="6.66391">
        <ele>289.9</ele>
        <time>2026-01-09T09:39:01.000Z</time>
      </trkpt>
      <trkpt lat="43.51862" lon="6.66396">
        <ele>289.9</ele>
        <time>2026-01-09T09:39:11.000Z</time>
      </trkpt>
      <trkpt lat="43.51873" lon="6.66398">
        <ele>291.3</ele>
        <time>2026-01-09T09:39:21.000Z</time>
      </trkpt>
      <trkpt lat="43.51884" lon="6.66397">
        <ele>291.4</ele>
        <time>2026-01-09T09:39:31.000Z</time>
      </trkpt>
      <trkpt lat="43.51895" lon="6.66393">
        <ele>291.1</ele>
        <time>2026-01-09T09:39:41.000Z</time>
      </trkpt>
      <trkpt lat="43.51906" lon="6.66392">
        <ele>291.5</ele>
        <time>2026-01-09T09:39:51.000Z</time>
      </trkpt>
      <trkpt lat="43.51918" lon="6.66392">
        <ele>292.1</ele>
        <time>2026-01-09T09:40:01.000Z</time>
      </trkpt>
      <trkpt lat="43.51929" lon="6.66391">
        <ele>292.5</ele>
        <time>2026-01-09T09:40:11.000Z</time>
      </trkpt>
      <trkpt lat="43.5194" lon="6.6639">
        <ele>290.2</ele>
        <time>2026-01-09T09:40:21.000Z</time>
      </trkpt>
      <trkpt lat="43.51951" lon="6.66392">
        <ele>291.5</ele>
        <time>2026-01-09T09:40:31.000Z</time>
      </trkpt>
      <trkpt lat="43.51961" lon="6.66396">
        <ele>293.9</ele>
        <time>2026-01-09T09:40:41.000Z</time>
      </trkpt>
      <trkpt lat="43.51959" lon="6.66409">
        <ele>295.7</ele>
        <time>2026-01-09T09:40:51.000Z</time>
      </trkpt>
      <trkpt lat="43.5195" lon="6.6642">
        <ele>296.5</ele>
        <time>2026-01-09T09:41:01.000Z</time>
      </trkpt>
      <trkpt lat="43.51944" lon="6.66433">
        <ele>297.7</ele>
        <time>2026-01-09T09:41:11.000Z</time>
      </trkpt>
      <trkpt lat="43.51943" lon="6.66449">
        <ele>298.6</ele>
        <time>2026-01-09T09:41:21.000Z</time>
      </trkpt>
      <trkpt lat="43.51945" lon="6.66464">
        <ele>299.4</ele>
        <time>2026-01-09T09:41:31.000Z</time>
      </trkpt>
      <trkpt lat="43.51947" lon="6.66477">
        <ele>299.2</ele>
        <time>2026-01-09T09:41:41.000Z</time>
      </trkpt>
      <trkpt lat="43.51948" lon="6.66489">
        <ele>297.4</ele>
        <time>2026-01-09T09:41:51.000Z</time>
      </trkpt>
      <trkpt lat="43.51943" lon="6.66499">
        <ele>302.7</ele>
        <time>2026-01-09T09:42:01.000Z</time>
      </trkpt>
      <trkpt lat="43.51938" lon="6.66499">
        <ele>293.8</ele>
        <time>2026-01-09T09:42:11.000Z</time>
      </trkpt>
      <trkpt lat="43.51928" lon="6.66502">
        <ele>293</ele>
        <time>2026-01-09T09:42:21.000Z</time>
      </trkpt>
      <trkpt lat="43.5192" lon="6.66507">
        <ele>292.8</ele>
        <time>2026-01-09T09:42:31.000Z</time>
      </trkpt>
      <trkpt lat="43.51911" lon="6.66516">
        <ele>292.5</ele>
        <time>2026-01-09T09:42:41.000Z</time>
      </trkpt>
      <trkpt lat="43.51905" lon="6.66527">
        <ele>292.7</ele>
        <time>2026-01-09T09:42:51.000Z</time>
      </trkpt>
      <trkpt lat="43.51898" lon="6.66539">
        <ele>292.3</ele>
        <time>2026-01-09T09:43:01.000Z</time>
      </trkpt>
      <trkpt lat="43.51892" lon="6.66552">
        <ele>291.8</ele>
        <time>2026-01-09T09:43:11.000Z</time>
      </trkpt>
      <trkpt lat="43.51887" lon="6.66565">
        <ele>292</ele>
        <time>2026-01-09T09:43:21.000Z</time>
      </trkpt>
      <trkpt lat="43.51886" lon="6.66577">
        <ele>296.2</ele>
        <time>2026-01-09T09:43:31.000Z</time>
      </trkpt>
      <trkpt lat="43.51894" lon="6.66577">
        <ele>293.3</ele>
        <time>2026-01-09T09:43:41.000Z</time>
      </trkpt>
      <trkpt lat="43.51902" lon="6.66573">
        <ele>291.5</ele>
        <time>2026-01-09T09:43:51.000Z</time>
      </trkpt>
      <trkpt lat="43.51909" lon="6.66566">
        <ele>290.8</ele>
        <time>2026-01-09T09:44:01.000Z</time>
      </trkpt>
      <trkpt lat="43.51916" lon="6.66556">
        <ele>289.9</ele>
        <time>2026-01-09T09:44:11.000Z</time>
      </trkpt>
      <trkpt lat="43.51924" lon="6.6655">
        <ele>294.1</ele>
        <time>2026-01-09T09:44:21.000Z</time>
      </trkpt>
      <trkpt lat="43.51933" lon="6.66546">
        <ele>295</ele>
        <time>2026-01-09T09:44:31.000Z</time>
      </trkpt>
      <trkpt lat="43.51943" lon="6.66546">
        <ele>295</ele>
        <time>2026-01-09T09:44:41.000Z</time>
      </trkpt>
      <trkpt lat="43.51948" lon="6.66554">
        <ele>298.2</ele>
        <time>2026-01-09T09:44:51.000Z</time>
      </trkpt>
      <trkpt lat="43.51947" lon="6.66568">
        <ele>299.7</ele>
        <time>2026-01-09T09:45:01.000Z</time>
      </trkpt>
      <trkpt lat="43.51941" lon="6.66578">
        <ele>299.3</ele>
        <time>2026-01-09T09:45:11.000Z</time>
      </trkpt>
      <trkpt lat="43.51935" lon="6.66588">
        <ele>299.7</ele>
        <time>2026-01-09T09:45:21.000Z</time>
      </trkpt>
      <trkpt lat="43.51928" lon="6.66598">
        <ele>301.9</ele>
        <time>2026-01-09T09:45:31.000Z</time>
      </trkpt>
      <trkpt lat="43.51925" lon="6.66611">
        <ele>304.1</ele>
        <time>2026-01-09T09:45:41.000Z</time>
      </trkpt>
      <trkpt lat="43.51931" lon="6.66621">
        <ele>303.6</ele>
        <time>2026-01-09T09:45:51.000Z</time>
      </trkpt>
      <trkpt lat="43.5194" lon="6.66622">
        <ele>305.9</ele>
        <time>2026-01-09T09:46:01.000Z</time>
      </trkpt>
      <trkpt lat="43.51949" lon="6.66618">
        <ele>304.2</ele>
        <time>2026-01-09T09:46:11.000Z</time>
      </trkpt>
      <trkpt lat="43.51959" lon="6.66617">
        <ele>305.6</ele>
        <time>2026-01-09T09:46:21.000Z</time>
      </trkpt>
      <trkpt lat="43.51969" lon="6.66617">
        <ele>304.3</ele>
        <time>2026-01-09T09:46:31.000Z</time>
      </trkpt>
      <trkpt lat="43.51978" lon="6.66614">
        <ele>304.9</ele>
        <time>2026-01-09T09:46:41.000Z</time>
      </trkpt>
      <trkpt lat="43.51989" lon="6.66615">
        <ele>307.6</ele>
        <time>2026-01-09T09:46:51.000Z</time>
      </trkpt>
      <trkpt lat="43.51999" lon="6.66621">
        <ele>309.3</ele>
        <time>2026-01-09T09:47:01.000Z</time>
      </trkpt>
      <trkpt lat="43.52009" lon="6.66629">
        <ele>309.8</ele>
        <time>2026-01-09T09:47:11.000Z</time>
      </trkpt>
      <trkpt lat="43.52018" lon="6.66636">
        <ele>311.5</ele>
        <time>2026-01-09T09:47:21.000Z</time>
      </trkpt>
      <trkpt lat="43.52026" lon="6.66643">
        <ele>311.5</ele>
        <time>2026-01-09T09:47:31.000Z</time>
      </trkpt>
      <trkpt lat="43.52034" lon="6.6665">
        <ele>312.7</ele>
        <time>2026-01-09T09:47:41.000Z</time>
      </trkpt>
      <trkpt lat="43.52041" lon="6.6666">
        <ele>313.5</ele>
        <time>2026-01-09T09:47:51.000Z</time>
      </trkpt>
      <trkpt lat="43.5205" lon="6.66668">
        <ele>316.2</ele>
        <time>2026-01-09T09:48:01.000Z</time>
      </trkpt>
      <trkpt lat="43.52058" lon="6.66676">
        <ele>318</ele>
        <time>2026-01-09T09:48:11.000Z</time>
      </trkpt>
      <trkpt lat="43.52066" lon="6.66683">
        <ele>319.2</ele>
        <time>2026-01-09T09:48:21.000Z</time>
      </trkpt>
      <trkpt lat="43.52072" lon="6.6669">
        <ele>318.2</ele>
        <time>2026-01-09T09:48:31.000Z</time>
      </trkpt>
      <trkpt lat="43.52079" lon="6.66698">
        <ele>317.8</ele>
        <time>2026-01-09T09:48:41.000Z</time>
      </trkpt>
      <trkpt lat="43.52087" lon="6.66704">
        <ele>317.6</ele>
        <time>2026-01-09T09:48:51.000Z</time>
      </trkpt>
      <trkpt lat="43.52096" lon="6.66709">
        <ele>322.3</ele>
        <time>2026-01-09T09:49:01.000Z</time>
      </trkpt>
      <trkpt lat="43.52105" lon="6.66711">
        <ele>322</ele>
        <time>2026-01-09T09:49:11.000Z</time>
      </trkpt>
      <trkpt lat="43.52112" lon="6.66708">
        <ele>320.6</ele>
        <time>2026-01-09T09:49:21.000Z</time>
      </trkpt>
      <trkpt lat="43.52122" lon="6.66699">
        <ele>324.2</ele>
        <time>2026-01-09T09:49:31.000Z</time>
      </trkpt>
      <trkpt lat="43.52128" lon="6.6669">
        <ele>322.6</ele>
        <time>2026-01-09T09:49:41.000Z</time>
      </trkpt>
      <trkpt lat="43.52133" lon="6.6668">
        <ele>323.2</ele>
        <time>2026-01-09T09:49:51.000Z</time>
      </trkpt>
      <trkpt lat="43.52139" lon="6.6667">
        <ele>324.3</ele>
        <time>2026-01-09T09:50:01.000Z</time>
      </trkpt>
      <trkpt lat="43.52145" lon="6.66662">
        <ele>322.2</ele>
        <time>2026-01-09T09:50:11.000Z</time>
      </trkpt>
      <trkpt lat="43.52153" lon="6.66654">
        <ele>324.2</ele>
        <time>2026-01-09T09:50:21.000Z</time>
      </trkpt>
      <trkpt lat="43.52162" lon="6.66651">
        <ele>324</ele>
        <time>2026-01-09T09:50:31.000Z</time>
      </trkpt>
      <trkpt lat="43.52172" lon="6.66648">
        <ele>327.1</ele>
        <time>2026-01-09T09:50:41.000Z</time>
      </trkpt>
      <trkpt lat="43.5218" lon="6.66644">
        <ele>327.8</ele>
        <time>2026-01-09T09:50:51.000Z</time>
      </trkpt>
      <trkpt lat="43.52188" lon="6.6664">
        <ele>328.2</ele>
        <time>2026-01-09T09:51:01.000Z</time>
      </trkpt>
      <trkpt lat="43.52197" lon="6.66643">
        <ele>333.1</ele>
        <time>2026-01-09T09:51:11.000Z</time>
      </trkpt>
      <trkpt lat="43.52206" lon="6.66648">
        <ele>335.9</ele>
        <time>2026-01-09T09:51:21.000Z</time>
      </trkpt>
      <trkpt lat="43.52213" lon="6.66656">
        <ele>336.7</ele>
        <time>2026-01-09T09:51:31.000Z</time>
      </trkpt>
      <trkpt lat="43.52218" lon="6.66664">
        <ele>337.6</ele>
        <time>2026-01-09T09:51:41.000Z</time>
      </trkpt>
      <trkpt lat="43.52225" lon="6.66672">
        <ele>337.4</ele>
        <time>2026-01-09T09:51:51.000Z</time>
      </trkpt>
      <trkpt lat="43.52233" lon="6.66682">
        <ele>338.5</ele>
        <time>2026-01-09T09:52:01.000Z</time>
      </trkpt>
      <trkpt lat="43.52241" lon="6.66691">
        <ele>340.5</ele>
        <time>2026-01-09T09:52:11.000Z</time>
      </trkpt>
      <trkpt lat="43.52248" lon="6.66699">
        <ele>339.4</ele>
        <time>2026-01-09T09:52:21.000Z</time>
      </trkpt>
      <trkpt lat="43.52255" lon="6.66709">
        <ele>339.5</ele>
        <time>2026-01-09T09:52:31.000Z</time>
      </trkpt>
      <trkpt lat="43.52262" lon="6.66717">
        <ele>339.9</ele>
        <time>2026-01-09T09:52:41.000Z</time>
      </trkpt>
      <trkpt lat="43.52269" lon="6.66724">
        <ele>341.4</ele>
        <time>2026-01-09T09:52:51.000Z</time>
      </trkpt>
      <trkpt lat="43.52276" lon="6.66734">
        <ele>342.3</ele>
        <time>2026-01-09T09:53:01.000Z</time>
      </trkpt>
      <trkpt lat="43.5228" lon="6.66744">
        <ele>341.9</ele>
        <time>2026-01-09T09:53:11.000Z</time>
      </trkpt>
      <trkpt lat="43.52286" lon="6.66746">
        <ele>343.7</ele>
        <time>2026-01-09T09:53:21.000Z</time>
      </trkpt>
      <trkpt lat="43.52285" lon="6.66747">
        <ele>343.1</ele>
        <time>2026-01-09T09:53:57.000Z</time>
      </trkpt>
      <trkpt lat="43.52291" lon="6.66756">
        <ele>344.1</ele>
        <time>2026-01-09T09:54:07.000Z</time>
      </trkpt>
      <trkpt lat="43.52298" lon="6.6676">
        <ele>345.9</ele>
        <time>2026-01-09T09:54:17.000Z</time>
      </trkpt>
      <trkpt lat="43.52302" lon="6.6677">
        <ele>344.9</ele>
        <time>2026-01-09T09:54:27.000Z</time>
      </trkpt>
      <trkpt lat="43.52308" lon="6.66779">
        <ele>345.2</ele>
        <time>2026-01-09T09:54:37.000Z</time>
      </trkpt>
      <trkpt lat="43.52314" lon="6.66788">
        <ele>345.4</ele>
        <time>2026-01-09T09:54:47.000Z</time>
      </trkpt>
      <trkpt lat="43.52321" lon="6.66794">
        <ele>344.9</ele>
        <time>2026-01-09T09:54:57.000Z</time>
      </trkpt>
      <trkpt lat="43.52331" lon="6.66796">
        <ele>344.8</ele>
        <time>2026-01-09T09:55:07.000Z</time>
      </trkpt>
      <trkpt lat="43.5234" lon="6.66794">
        <ele>346.9</ele>
        <time>2026-01-09T09:55:17.000Z</time>
      </trkpt>
      <trkpt lat="43.52346" lon="6.66787">
        <ele>345.8</ele>
        <time>2026-01-09T09:55:27.000Z</time>
      </trkpt>
      <trkpt lat="43.52352" lon="6.66777">
        <ele>346.1</ele>
        <time>2026-01-09T09:55:37.000Z</time>
      </trkpt>
      <trkpt lat="43.52358" lon="6.66769">
        <ele>348.7</ele>
        <time>2026-01-09T09:55:47.000Z</time>
      </trkpt>
      <trkpt lat="43.52366" lon="6.66764">
        <ele>348.3</ele>
        <time>2026-01-09T09:55:57.000Z</time>
      </trkpt>
      <trkpt lat="43.52374" lon="6.66761">
        <ele>351.1</ele>
        <time>2026-01-09T09:56:07.000Z</time>
      </trkpt>
      <trkpt lat="43.52383" lon="6.66762">
        <ele>354.2</ele>
        <time>2026-01-09T09:56:17.000Z</time>
      </trkpt>
      <trkpt lat="43.52392" lon="6.66764">
        <ele>355.5</ele>
        <time>2026-01-09T09:56:27.000Z</time>
      </trkpt>
      <trkpt lat="43.52401" lon="6.66768">
        <ele>355.2</ele>
        <time>2026-01-09T09:56:37.000Z</time>
      </trkpt>
      <trkpt lat="43.52409" lon="6.66774">
        <ele>353.9</ele>
        <time>2026-01-09T09:56:47.000Z</time>
      </trkpt>
      <trkpt lat="43.52415" lon="6.6678">
        <ele>355.1</ele>
        <time>2026-01-09T09:56:57.000Z</time>
      </trkpt>
      <trkpt lat="43.52423" lon="6.66787">
        <ele>355.7</ele>
        <time>2026-01-09T09:57:07.000Z</time>
      </trkpt>
      <trkpt lat="43.52431" lon="6.66795">
        <ele>358.7</ele>
        <time>2026-01-09T09:57:17.000Z</time>
      </trkpt>
      <trkpt lat="43.52438" lon="6.66804">
        <ele>363.2</ele>
        <time>2026-01-09T09:57:27.000Z</time>
      </trkpt>
      <trkpt lat="43.52446" lon="6.66811">
        <ele>364.1</ele>
        <time>2026-01-09T09:57:37.000Z</time>
      </trkpt>
      <trkpt lat="43.52457" lon="6.66813">
        <ele>367.8</ele>
        <time>2026-01-09T09:57:47.000Z</time>
      </trkpt>
      <trkpt lat="43.52467" lon="6.6681">
        <ele>364.4</ele>
        <time>2026-01-09T09:57:57.000Z</time>
      </trkpt>
      <trkpt lat="43.52477" lon="6.66807">
        <ele>365.3</ele>
        <time>2026-01-09T09:58:07.000Z</time>
      </trkpt>
      <trkpt lat="43.52487" lon="6.66803">
        <ele>366.1</ele>
        <time>2026-01-09T09:58:17.000Z</time>
      </trkpt>
      <trkpt lat="43.52495" lon="6.66802">
        <ele>364.2</ele>
        <time>2026-01-09T09:58:27.000Z</time>
      </trkpt>
      <trkpt lat="43.52503" lon="6.66795">
        <ele>365.6</ele>
        <time>2026-01-09T09:58:37.000Z</time>
      </trkpt>
      <trkpt lat="43.52512" lon="6.66789">
        <ele>368.9</ele>
        <time>2026-01-09T09:58:47.000Z</time>
      </trkpt>
      <trkpt lat="43.52518" lon="6.66783">
        <ele>369.1</ele>
        <time>2026-01-09T09:58:57.000Z</time>
      </trkpt>
      <trkpt lat="43.52526" lon="6.66778">
        <ele>369.3</ele>
        <time>2026-01-09T09:59:07.000Z</time>
      </trkpt>
      <trkpt lat="43.52535" lon="6.66772">
        <ele>370.6</ele>
        <time>2026-01-09T09:59:17.000Z</time>
      </trkpt>
      <trkpt lat="43.52543" lon="6.66768">
        <ele>370.9</ele>
        <time>2026-01-09T09:59:27.000Z</time>
      </trkpt>
      <trkpt lat="43.52551" lon="6.66763">
        <ele>371</ele>
        <time>2026-01-09T09:59:37.000Z</time>
      </trkpt>
      <trkpt lat="43.52559" lon="6.66757">
        <ele>372.7</ele>
        <time>2026-01-09T09:59:47.000Z</time>
      </trkpt>
      <trkpt lat="43.52566" lon="6.66752">
        <ele>372.6</ele>
        <time>2026-01-09T09:59:57.000Z</time>
      </trkpt>
      <trkpt lat="43.52574" lon="6.66747">
        <ele>375.9</ele>
        <time>2026-01-09T10:00:07.000Z</time>
      </trkpt>
      <trkpt lat="43.52582" lon="6.66741">
        <ele>377.4</ele>
        <time>2026-01-09T10:00:17.000Z</time>
      </trkpt>
      <trkpt lat="43.5259" lon="6.66738">
        <ele>377.7</ele>
        <time>2026-01-09T10:00:27.000Z</time>
      </trkpt>
      <trkpt lat="43.52599" lon="6.66734">
        <ele>381.4</ele>
        <time>2026-01-09T10:00:37.000Z</time>
      </trkpt>
      <trkpt lat="43.52605" lon="6.66728">
        <ele>382.8</ele>
        <time>2026-01-09T10:00:47.000Z</time>
      </trkpt>
      <trkpt lat="43.52611" lon="6.66723">
        <ele>381.6</ele>
        <time>2026-01-09T10:00:57.000Z</time>
      </trkpt>
      <trkpt lat="43.52613" lon="6.6672">
        <ele>381.8</ele>
        <time>2026-01-09T10:01:27.000Z</time>
      </trkpt>
      <trkpt lat="43.52614" lon="6.66717">
        <ele>382.3</ele>
        <time>2026-01-09T10:01:37.000Z</time>
      </trkpt>
      <trkpt lat="43.52613" lon="6.66712">
        <ele>383.2</ele>
        <time>2026-01-09T10:01:47.000Z</time>
      </trkpt>
      <trkpt lat="43.52616" lon="6.66714">
        <ele>384.1</ele>
        <time>2026-01-09T10:01:57.000Z</time>
      </trkpt>
      <trkpt lat="43.52617" lon="6.66717">
        <ele>383.9</ele>
        <time>2026-01-09T10:02:07.000Z</time>
      </trkpt>
      <trkpt lat="43.52621" lon="6.66726">
        <ele>386.8</ele>
        <time>2026-01-09T10:02:17.000Z</time>
      </trkpt>
      <trkpt lat="43.5262" lon="6.66729">
        <ele>384</ele>
        <time>2026-01-09T10:09:13.000Z</time>
      </trkpt>
      <trkpt lat="43.52631" lon="6.6673">
        <ele>383.7</ele>
        <time>2026-01-09T10:09:23.000Z</time>
      </trkpt>
      <trkpt lat="43.52635" lon="6.66737">
        <ele>383</ele>
        <time>2026-01-09T10:09:33.000Z</time>
      </trkpt>
      <trkpt lat="43.52643" lon="6.66745">
        <ele>382.5</ele>
        <time>2026-01-09T10:09:43.000Z</time>
      </trkpt>
      <trkpt lat="43.52649" lon="6.66754">
        <ele>381.3</ele>
        <time>2026-01-09T10:09:53.000Z</time>
      </trkpt>
      <trkpt lat="43.52655" lon="6.66763">
        <ele>380.2</ele>
        <time>2026-01-09T10:10:03.000Z</time>
      </trkpt>
      <trkpt lat="43.52662" lon="6.66772">
        <ele>378.3</ele>
        <time>2026-01-09T10:10:13.000Z</time>
      </trkpt>
      <trkpt lat="43.52669" lon="6.6678">
        <ele>378.2</ele>
        <time>2026-01-09T10:10:23.000Z</time>
      </trkpt>
      <trkpt lat="43.5267" lon="6.66773">
        <ele>375.1</ele>
        <time>2026-01-09T10:10:33.000Z</time>
      </trkpt>
      <trkpt lat="43.52666" lon="6.66759">
        <ele>373.6</ele>
        <time>2026-01-09T10:10:43.000Z</time>
      </trkpt>
      <trkpt lat="43.52666" lon="6.66748">
        <ele>370.7</ele>
        <time>2026-01-09T10:10:53.000Z</time>
      </trkpt>
      <trkpt lat="43.52667" lon="6.66735">
        <ele>369.5</ele>
        <time>2026-01-09T10:11:03.000Z</time>
      </trkpt>
      <trkpt lat="43.52671" lon="6.66727">
        <ele>367.9</ele>
        <time>2026-01-09T10:11:13.000Z</time>
      </trkpt>
      <trkpt lat="43.52676" lon="6.6672">
        <ele>368.7</ele>
        <time>2026-01-09T10:11:23.000Z</time>
      </trkpt>
      <trkpt lat="43.52684" lon="6.66714">
        <ele>368.2</ele>
        <time>2026-01-09T10:11:33.000Z</time>
      </trkpt>
      <trkpt lat="43.52692" lon="6.66707">
        <ele>369.8</ele>
        <time>2026-01-09T10:11:43.000Z</time>
      </trkpt>
      <trkpt lat="43.527" lon="6.66696">
        <ele>373.5</ele>
        <time>2026-01-09T10:11:53.000Z</time>
      </trkpt>
      <trkpt lat="43.52706" lon="6.66689">
        <ele>372.7</ele>
        <time>2026-01-09T10:12:03.000Z</time>
      </trkpt>
      <trkpt lat="43.52713" lon="6.66682">
        <ele>370.2</ele>
        <time>2026-01-09T10:12:13.000Z</time>
      </trkpt>
      <trkpt lat="43.52721" lon="6.66676">
        <ele>371.7</ele>
        <time>2026-01-09T10:12:23.000Z</time>
      </trkpt>
      <trkpt lat="43.52728" lon="6.66669">
        <ele>370.7</ele>
        <time>2026-01-09T10:12:33.000Z</time>
      </trkpt>
      <trkpt lat="43.52736" lon="6.66662">
        <ele>372.9</ele>
        <time>2026-01-09T10:12:43.000Z</time>
      </trkpt>
      <trkpt lat="43.52743" lon="6.66658">
        <ele>376</ele>
        <time>2026-01-09T10:12:53.000Z</time>
      </trkpt>
      <trkpt lat="43.52752" lon="6.66656">
        <ele>373.4</ele>
        <time>2026-01-09T10:13:03.000Z</time>
      </trkpt>
      <trkpt lat="43.52759" lon="6.66654">
        <ele>372.3</ele>
        <time>2026-01-09T10:13:13.000Z</time>
      </trkpt>
      <trkpt lat="43.52767" lon="6.66651">
        <ele>372.1</ele>
        <time>2026-01-09T10:13:23.000Z</time>
      </trkpt>
      <trkpt lat="43.52774" lon="6.66645">
        <ele>370.5</ele>
        <time>2026-01-09T10:13:33.000Z</time>
      </trkpt>
      <trkpt lat="43.5278" lon="6.6664">
        <ele>372</ele>
        <time>2026-01-09T10:13:43.000Z</time>
      </trkpt>
      <trkpt lat="43.52788" lon="6.66635">
        <ele>374.2</ele>
        <time>2026-01-09T10:13:53.000Z</time>
      </trkpt>
      <trkpt lat="43.52798" lon="6.66633">
        <ele>370.8</ele>
        <time>2026-01-09T10:14:03.000Z</time>
      </trkpt>
      <trkpt lat="43.52807" lon="6.6663">
        <ele>370.1</ele>
        <time>2026-01-09T10:14:13.000Z</time>
      </trkpt>
      <trkpt lat="43.52814" lon="6.66619">
        <ele>370</ele>
        <time>2026-01-09T10:14:23.000Z</time>
      </trkpt>
      <trkpt lat="43.52822" lon="6.66609">
        <ele>371.3</ele>
        <time>2026-01-09T10:14:33.000Z</time>
      </trkpt>
      <trkpt lat="43.52825" lon="6.66599">
        <ele>375.5</ele>
        <time>2026-01-09T10:14:43.000Z</time>
      </trkpt>
      <trkpt lat="43.5283" lon="6.66591">
        <ele>370.5</ele>
        <time>2026-01-09T10:14:53.000Z</time>
      </trkpt>
      <trkpt lat="43.52837" lon="6.66583">
        <ele>371.4</ele>
        <time>2026-01-09T10:15:03.000Z</time>
      </trkpt>
      <trkpt lat="43.52844" lon="6.66576">
        <ele>371.1</ele>
        <time>2026-01-09T10:15:13.000Z</time>
      </trkpt>
      <trkpt lat="43.5285" lon="6.66569">
        <ele>371.7</ele>
        <time>2026-01-09T10:15:23.000Z</time>
      </trkpt>
      <trkpt lat="43.52856" lon="6.66571">
        <ele>370.2</ele>
        <time>2026-01-09T10:15:33.000Z</time>
      </trkpt>
      <trkpt lat="43.52864" lon="6.66564">
        <ele>367.7</ele>
        <time>2026-01-09T10:15:43.000Z</time>
      </trkpt>
      <trkpt lat="43.52868" lon="6.66561">
        <ele>366.2</ele>
        <time>2026-01-09T10:15:53.000Z</time>
      </trkpt>
      <trkpt lat="43.52873" lon="6.66563">
        <ele>367.7</ele>
        <time>2026-01-09T10:16:03.000Z</time>
      </trkpt>
      <trkpt lat="43.5288" lon="6.66566">
        <ele>364.6</ele>
        <time>2026-01-09T10:16:13.000Z</time>
      </trkpt>
      <trkpt lat="43.52891" lon="6.66561">
        <ele>367.1</ele>
        <time>2026-01-09T10:16:23.000Z</time>
      </trkpt>
      <trkpt lat="43.52895" lon="6.66561">
        <ele>363.6</ele>
        <time>2026-01-09T10:16:33.000Z</time>
      </trkpt>
      <trkpt lat="43.52902" lon="6.66559">
        <ele>361.6</ele>
        <time>2026-01-09T10:16:43.000Z</time>
      </trkpt>
      <trkpt lat="43.52899" lon="6.66558">
        <ele>358.4</ele>
        <time>2026-01-09T10:16:53.000Z</time>
      </trkpt>
      <trkpt lat="43.5291" lon="6.66559">
        <ele>358.4</ele>
        <time>2026-01-09T10:17:03.000Z</time>
      </trkpt>
      <trkpt lat="43.52918" lon="6.66558">
        <ele>364</ele>
        <time>2026-01-09T10:17:13.000Z</time>
      </trkpt>
      <trkpt lat="43.52926" lon="6.66559">
        <ele>363.5</ele>
        <time>2026-01-09T10:17:23.000Z</time>
      </trkpt>
      <trkpt lat="43.5293" lon="6.66552">
        <ele>361.8</ele>
        <time>2026-01-09T10:17:33.000Z</time>
      </trkpt>
      <trkpt lat="43.52928" lon="6.66544">
        <ele>360.6</ele>
        <time>2026-01-09T10:17:43.000Z</time>
      </trkpt>
      <trkpt lat="43.52925" lon="6.66535">
        <ele>357.4</ele>
        <time>2026-01-09T10:17:53.000Z</time>
      </trkpt>
      <trkpt lat="43.52925" lon="6.66526">
        <ele>357.2</ele>
        <time>2026-01-09T10:18:03.000Z</time>
      </trkpt>
      <trkpt lat="43.52925" lon="6.66514">
        <ele>357.3</ele>
        <time>2026-01-09T10:18:13.000Z</time>
      </trkpt>
      <trkpt lat="43.52927" lon="6.66501">
        <ele>357.6</ele>
        <time>2026-01-09T10:18:23.000Z</time>
      </trkpt>
      <trkpt lat="43.52929" lon="6.66489">
        <ele>357</ele>
        <time>2026-01-09T10:18:33.000Z</time>
      </trkpt>
      <trkpt lat="43.5293" lon="6.66479">
        <ele>362.2</ele>
        <time>2026-01-09T10:18:43.000Z</time>
      </trkpt>
      <trkpt lat="43.52929" lon="6.66471">
        <ele>365.4</ele>
        <time>2026-01-09T10:18:53.000Z</time>
      </trkpt>
      <trkpt lat="43.52928" lon="6.66462">
        <ele>364.9</ele>
        <time>2026-01-09T10:19:03.000Z</time>
      </trkpt>
      <trkpt lat="43.52926" lon="6.66456">
        <ele>363.9</ele>
        <time>2026-01-09T10:19:13.000Z</time>
      </trkpt>
      <trkpt lat="43.52924" lon="6.66446">
        <ele>363.3</ele>
        <time>2026-01-09T10:19:23.000Z</time>
      </trkpt>
      <trkpt lat="43.52925" lon="6.66435">
        <ele>361.2</ele>
        <time>2026-01-09T10:19:33.000Z</time>
      </trkpt>
      <trkpt lat="43.52925" lon="6.66426">
        <ele>362.9</ele>
        <time>2026-01-09T10:19:43.000Z</time>
      </trkpt>
      <trkpt lat="43.52926" lon="6.66418">
        <ele>365.5</ele>
        <time>2026-01-09T10:19:53.000Z</time>
      </trkpt>
      <trkpt lat="43.52925" lon="6.6641">
        <ele>367.7</ele>
        <time>2026-01-09T10:20:03.000Z</time>
      </trkpt>
      <trkpt lat="43.52928" lon="6.66398">
        <ele>368.5</ele>
        <time>2026-01-09T10:20:13.000Z</time>
      </trkpt>
      <trkpt lat="43.52931" lon="6.66388">
        <ele>369.6</ele>
        <time>2026-01-09T10:20:23.000Z</time>
      </trkpt>
      <trkpt lat="43.52934" lon="6.66375">
        <ele>370.8</ele>
        <time>2026-01-09T10:20:33.000Z</time>
      </trkpt>
      <trkpt lat="43.52937" lon="6.66366">
        <ele>372.9</ele>
        <time>2026-01-09T10:20:43.000Z</time>
      </trkpt>
      <trkpt lat="43.52941" lon="6.66356">
        <ele>371</ele>
        <time>2026-01-09T10:20:53.000Z</time>
      </trkpt>
      <trkpt lat="43.52948" lon="6.66347">
        <ele>369.7</ele>
        <time>2026-01-09T10:21:03.000Z</time>
      </trkpt>
      <trkpt lat="43.52954" lon="6.66337">
        <ele>368.6</ele>
        <time>2026-01-09T10:21:13.000Z</time>
      </trkpt>
      <trkpt lat="43.52952" lon="6.66325">
        <ele>370.5</ele>
        <time>2026-01-09T10:21:23.000Z</time>
      </trkpt>
      <trkpt lat="43.52953" lon="6.66316">
        <ele>374.1</ele>
        <time>2026-01-09T10:21:33.000Z</time>
      </trkpt>
      <trkpt lat="43.52959" lon="6.66306">
        <ele>375.9</ele>
        <time>2026-01-09T10:21:43.000Z</time>
      </trkpt>
      <trkpt lat="43.52963" lon="6.66296">
        <ele>379.9</ele>
        <time>2026-01-09T10:21:53.000Z</time>
      </trkpt>
      <trkpt lat="43.52971" lon="6.66288">
        <ele>381.8</ele>
        <time>2026-01-09T10:22:03.000Z</time>
      </trkpt>
      <trkpt lat="43.52978" lon="6.6629">
        <ele>379.8</ele>
        <time>2026-01-09T10:22:13.000Z</time>
      </trkpt>
      <trkpt lat="43.52988" lon="6.66287">
        <ele>384.6</ele>
        <time>2026-01-09T10:22:23.000Z</time>
      </trkpt>
      <trkpt lat="43.52992" lon="6.6628">
        <ele>387.1</ele>
        <time>2026-01-09T10:22:33.000Z</time>
      </trkpt>
      <trkpt lat="43.52988" lon="6.66269">
        <ele>382.6</ele>
        <time>2026-01-09T10:22:43.000Z</time>
      </trkpt>
      <trkpt lat="43.52984" lon="6.66258">
        <ele>376.9</ele>
        <time>2026-01-09T10:22:53.000Z</time>
      </trkpt>
      <trkpt lat="43.52986" lon="6.66251">
        <ele>375.2</ele>
        <time>2026-01-09T10:23:03.000Z</time>
      </trkpt>
      <trkpt lat="43.52989" lon="6.66246">
        <ele>370.5</ele>
        <time>2026-01-09T10:23:13.000Z</time>
      </trkpt>
      <trkpt lat="43.52997" lon="6.66257">
        <ele>368.5</ele>
        <time>2026-01-09T10:23:23.000Z</time>
      </trkpt>
      <trkpt lat="43.53002" lon="6.66258">
        <ele>370.5</ele>
        <time>2026-01-09T10:23:33.000Z</time>
      </trkpt>
      <trkpt lat="43.53008" lon="6.66259">
        <ele>372.7</ele>
        <time>2026-01-09T10:23:43.000Z</time>
      </trkpt>
      <trkpt lat="43.53013" lon="6.6626">
        <ele>374.8</ele>
        <time>2026-01-09T10:23:53.000Z</time>
      </trkpt>
      <trkpt lat="43.53013" lon="6.66257">
        <ele>370.5</ele>
        <time>2026-01-09T10:24:03.000Z</time>
      </trkpt>
      <trkpt lat="43.53014" lon="6.66252">
        <ele>366.5</ele>
        <time>2026-01-09T10:24:13.000Z</time>
      </trkpt>
      <trkpt lat="43.53017" lon="6.66254">
        <ele>364.8</ele>
        <time>2026-01-09T10:24:23.000Z</time>
      </trkpt>
      <trkpt lat="43.53015" lon="6.66245">
        <ele>357.1</ele>
        <time>2026-01-09T10:24:33.000Z</time>
      </trkpt>
      <trkpt lat="43.5302" lon="6.66243">
        <ele>356.5</ele>
        <time>2026-01-09T10:24:43.000Z</time>
      </trkpt>
      <trkpt lat="43.53027" lon="6.66244">
        <ele>357.4</ele>
        <time>2026-01-09T10:24:53.000Z</time>
      </trkpt>
      <trkpt lat="43.53025" lon="6.66236">
        <ele>348</ele>
        <time>2026-01-09T10:25:03.000Z</time>
      </trkpt>
      <trkpt lat="43.53025" lon="6.66225">
        <ele>350.3</ele>
        <time>2026-01-09T10:25:13.000Z</time>
      </trkpt>
      <trkpt lat="43.53025" lon="6.66216">
        <ele>349</ele>
        <time>2026-01-09T10:25:23.000Z</time>
      </trkpt>
      <trkpt lat="43.53025" lon="6.66208">
        <ele>349.9</ele>
        <time>2026-01-09T10:25:33.000Z</time>
      </trkpt>
      <trkpt lat="43.53019" lon="6.66196">
        <ele>349.7</ele>
        <time>2026-01-09T10:25:43.000Z</time>
      </trkpt>
      <trkpt lat="43.53023" lon="6.66193">
        <ele>345.8</ele>
        <time>2026-01-09T10:25:53.000Z</time>
      </trkpt>
      <trkpt lat="43.53019" lon="6.66172">
        <ele>348.1</ele>
        <time>2026-01-09T10:26:03.000Z</time>
      </trkpt>
      <trkpt lat="43.53016" lon="6.66155">
        <ele>351.1</ele>
        <time>2026-01-09T10:26:13.000Z</time>
      </trkpt>
      <trkpt lat="43.5301" lon="6.66145">
        <ele>350</ele>
        <time>2026-01-09T10:26:23.000Z</time>
      </trkpt>
      <trkpt lat="43.53007" lon="6.66134">
        <ele>350.4</ele>
        <time>2026-01-09T10:26:33.000Z</time>
      </trkpt>
      <trkpt lat="43.53002" lon="6.66125">
        <ele>350.5</ele>
        <time>2026-01-09T10:26:43.000Z</time>
      </trkpt>
      <trkpt lat="43.52997" lon="6.66115">
        <ele>352.6</ele>
        <time>2026-01-09T10:26:53.000Z</time>
      </trkpt>
      <trkpt lat="43.52994" lon="6.66106">
        <ele>353.1</ele>
        <time>2026-01-09T10:27:03.000Z</time>
      </trkpt>
      <trkpt lat="43.52992" lon="6.66094">
        <ele>356.7</ele>
        <time>2026-01-09T10:27:13.000Z</time>
      </trkpt>
      <trkpt lat="43.52989" lon="6.66083">
        <ele>356.5</ele>
        <time>2026-01-09T10:27:23.000Z</time>
      </trkpt>
      <trkpt lat="43.52988" lon="6.66069">
        <ele>356.7</ele>
        <time>2026-01-09T10:27:33.000Z</time>
      </trkpt>
      <trkpt lat="43.52984" lon="6.66056">
        <ele>355.2</ele>
        <time>2026-01-09T10:27:43.000Z</time>
      </trkpt>
      <trkpt lat="43.52979" lon="6.66047">
        <ele>356.4</ele>
        <time>2026-01-09T10:27:53.000Z</time>
      </trkpt>
      <trkpt lat="43.52974" lon="6.66038">
        <ele>357.9</ele>
        <time>2026-01-09T10:28:03.000Z</time>
      </trkpt>
      <trkpt lat="43.52967" lon="6.66033">
        <ele>361.2</ele>
        <time>2026-01-09T10:28:13.000Z</time>
      </trkpt>
      <trkpt lat="43.52961" lon="6.66024">
        <ele>363.5</ele>
        <time>2026-01-09T10:28:23.000Z</time>
      </trkpt>
      <trkpt lat="43.52954" lon="6.66019">
        <ele>362.7</ele>
        <time>2026-01-09T10:28:33.000Z</time>
      </trkpt>
      <trkpt lat="43.52945" lon="6.66016">
        <ele>366.6</ele>
        <time>2026-01-09T10:28:43.000Z</time>
      </trkpt>
      <trkpt lat="43.52939" lon="6.66009">
        <ele>364.7</ele>
        <time>2026-01-09T10:28:53.000Z</time>
      </trkpt>
      <trkpt lat="43.52934" lon="6.66004">
        <ele>366.7</ele>
        <time>2026-01-09T10:29:03.000Z</time>
      </trkpt>
      <trkpt lat="43.52929" lon="6.65998">
        <ele>368.7</ele>
        <time>2026-01-09T10:29:13.000Z</time>
      </trkpt>
      <trkpt lat="43.52924" lon="6.65992">
        <ele>368.4</ele>
        <time>2026-01-09T10:29:23.000Z</time>
      </trkpt>
      <trkpt lat="43.52918" lon="6.65987">
        <ele>369.4</ele>
        <time>2026-01-09T10:29:33.000Z</time>
      </trkpt>
      <trkpt lat="43.52912" lon="6.65983">
        <ele>370</ele>
        <time>2026-01-09T10:29:43.000Z</time>
      </trkpt>
      <trkpt lat="43.52904" lon="6.65978">
        <ele>369.6</ele>
        <time>2026-01-09T10:29:53.000Z</time>
      </trkpt>
      <trkpt lat="43.52898" lon="6.65971">
        <ele>368.2</ele>
        <time>2026-01-09T10:30:03.000Z</time>
      </trkpt>
      <trkpt lat="43.52891" lon="6.65964">
        <ele>368.2</ele>
        <time>2026-01-09T10:30:13.000Z</time>
      </trkpt>
      <trkpt lat="43.52883" lon="6.65958">
        <ele>367.5</ele>
        <time>2026-01-09T10:30:23.000Z</time>
      </trkpt>
      <trkpt lat="43.52875" lon="6.65952">
        <ele>371.3</ele>
        <time>2026-01-09T10:30:33.000Z</time>
      </trkpt>
      <trkpt lat="43.52873" lon="6.65951">
        <ele>370.8</ele>
        <time>2026-01-09T10:31:05.000Z</time>
      </trkpt>
      <trkpt lat="43.52865" lon="6.65944">
        <ele>368.9</ele>
        <time>2026-01-09T10:31:15.000Z</time>
      </trkpt>
      <trkpt lat="43.52858" lon="6.65936">
        <ele>371.6</ele>
        <time>2026-01-09T10:31:25.000Z</time>
      </trkpt>
      <trkpt lat="43.52853" lon="6.65932">
        <ele>374.1</ele>
        <time>2026-01-09T10:31:35.000Z</time>
      </trkpt>
      <trkpt lat="43.52851" lon="6.65936">
        <ele>375.6</ele>
        <time>2026-01-09T10:31:49.000Z</time>
      </trkpt>
      <trkpt lat="43.52845" lon="6.65941">
        <ele>375.9</ele>
        <time>2026-01-09T10:31:59.000Z</time>
      </trkpt>
      <trkpt lat="43.52841" lon="6.65943">
        <ele>377.6</ele>
        <time>2026-01-09T10:32:09.000Z</time>
      </trkpt>
      <trkpt lat="43.52844" lon="6.65952">
        <ele>377.8</ele>
        <time>2026-01-09T10:32:19.000Z</time>
      </trkpt>
      <trkpt lat="43.52846" lon="6.65957">
        <ele>377.8</ele>
        <time>2026-01-09T10:32:29.000Z</time>
      </trkpt>
      <trkpt lat="43.5285" lon="6.65963">
        <ele>378</ele>
        <time>2026-01-09T10:32:39.000Z</time>
      </trkpt>
      <trkpt lat="43.52846" lon="6.65961">
        <ele>379.8</ele>
        <time>2026-01-09T10:33:01.000Z</time>
      </trkpt>
      <trkpt lat="43.52839" lon="6.6596">
        <ele>380.4</ele>
        <time>2026-01-09T10:33:11.000Z</time>
      </trkpt>
      <trkpt lat="43.52833" lon="6.65962">
        <ele>384.2</ele>
        <time>2026-01-09T10:33:21.000Z</time>
      </trkpt>
      <trkpt lat="43.52834" lon="6.65969">
        <ele>386.1</ele>
        <time>2026-01-09T10:33:31.000Z</time>
      </trkpt>
      <trkpt lat="43.52836" lon="6.65971">
        <ele>388.1</ele>
        <time>2026-01-09T10:34:38.000Z</time>
      </trkpt>
      <trkpt lat="43.52837" lon="6.65979">
        <ele>389.6</ele>
        <time>2026-01-09T10:34:48.000Z</time>
      </trkpt>
      <trkpt lat="43.52833" lon="6.65985">
        <ele>388.6</ele>
        <time>2026-01-09T10:34:58.000Z</time>
      </trkpt>
      <trkpt lat="43.52826" lon="6.65982">
        <ele>391.1</ele>
        <time>2026-01-09T10:35:08.000Z</time>
      </trkpt>
      <trkpt lat="43.5282" lon="6.6598">
        <ele>393.3</ele>
        <time>2026-01-09T10:35:18.000Z</time>
      </trkpt>
      <trkpt lat="43.52816" lon="6.65987">
        <ele>391.7</ele>
        <time>2026-01-09T10:35:28.000Z</time>
      </trkpt>
      <trkpt lat="43.52822" lon="6.65989">
        <ele>391.3</ele>
        <time>2026-01-09T10:35:38.000Z</time>
      </trkpt>
      <trkpt lat="43.52819" lon="6.65994">
        <ele>391.4</ele>
        <time>2026-01-09T10:35:48.000Z</time>
      </trkpt>
      <trkpt lat="43.52822" lon="6.66002">
        <ele>393.9</ele>
        <time>2026-01-09T10:35:58.000Z</time>
      </trkpt>
      <trkpt lat="43.52825" lon="6.66009">
        <ele>396.8</ele>
        <time>2026-01-09T10:36:08.000Z</time>
      </trkpt>
      <trkpt lat="43.52828" lon="6.66012">
        <ele>400.7</ele>
        <time>2026-01-09T10:36:18.000Z</time>
      </trkpt>
      <trkpt lat="43.52825" lon="6.66013">
        <ele>400</ele>
        <time>2026-01-09T10:36:28.000Z</time>
      </trkpt>
      <trkpt lat="43.5283" lon="6.66016">
        <ele>402.6</ele>
        <time>2026-01-09T10:36:38.000Z</time>
      </trkpt>
      <trkpt lat="43.52833" lon="6.66022">
        <ele>401.9</ele>
        <time>2026-01-09T10:36:48.000Z</time>
      </trkpt>
      <trkpt lat="43.52828" lon="6.66025">
        <ele>405.4</ele>
        <time>2026-01-09T10:36:58.000Z</time>
      </trkpt>
      <trkpt lat="43.52829" lon="6.66032">
        <ele>408</ele>
        <time>2026-01-09T10:37:08.000Z</time>
      </trkpt>
      <trkpt lat="43.52836" lon="6.66032">
        <ele>408.7</ele>
        <time>2026-01-09T10:37:18.000Z</time>
      </trkpt>
      <trkpt lat="43.52833" lon="6.66035">
        <ele>410.4</ele>
        <time>2026-01-09T10:37:41.000Z</time>
      </trkpt>
      <trkpt lat="43.52835" lon="6.66041">
        <ele>410.5</ele>
        <time>2026-01-09T10:37:51.000Z</time>
      </trkpt>
      <trkpt lat="43.52833" lon="6.6605">
        <ele>412.3</ele>
        <time>2026-01-09T10:38:01.000Z</time>
      </trkpt>
      <trkpt lat="43.52831" lon="6.66055">
        <ele>414.2</ele>
        <time>2026-01-09T10:38:11.000Z</time>
      </trkpt>
      <trkpt lat="43.52824" lon="6.66054">
        <ele>415.6</ele>
        <time>2026-01-09T10:38:21.000Z</time>
      </trkpt>
      <trkpt lat="43.52822" lon="6.66058">
        <ele>416.8</ele>
        <time>2026-01-09T10:38:31.000Z</time>
      </trkpt>
      <trkpt lat="43.5282" lon="6.66064">
        <ele>414.5</ele>
        <time>2026-01-09T10:38:41.000Z</time>
      </trkpt>
      <trkpt lat="43.5282" lon="6.6607">
        <ele>416.8</ele>
        <time>2026-01-09T10:38:51.000Z</time>
      </trkpt>
      <trkpt lat="43.52822" lon="6.66073">
        <ele>420.6</ele>
        <time>2026-01-09T10:39:01.000Z</time>
      </trkpt>
      <trkpt lat="43.5282" lon="6.66078">
        <ele>420.5</ele>
        <time>2026-01-09T10:39:11.000Z</time>
      </trkpt>
      <trkpt lat="43.52818" lon="6.66074">
        <ele>419.8</ele>
        <time>2026-01-09T10:39:21.000Z</time>
      </trkpt>
      <trkpt lat="43.52822" lon="6.66076">
        <ele>422.9</ele>
        <time>2026-01-09T10:39:40.000Z</time>
      </trkpt>
      <trkpt lat="43.52823" lon="6.6608">
        <ele>422.2</ele>
        <time>2026-01-09T10:39:50.000Z</time>
      </trkpt>
      <trkpt lat="43.52823" lon="6.66086">
        <ele>424.4</ele>
        <time>2026-01-09T10:40:00.000Z</time>
      </trkpt>
      <trkpt lat="43.52822" lon="6.6609">
        <ele>416.5</ele>
        <time>2026-01-09T10:40:29.000Z</time>
      </trkpt>
      <trkpt lat="43.52819" lon="6.66087">
        <ele>418.8</ele>
        <time>2026-01-09T10:40:39.000Z</time>
      </trkpt>
      <trkpt lat="43.52814" lon="6.66092">
        <ele>421.2</ele>
        <time>2026-01-09T10:40:49.000Z</time>
      </trkpt>
      <trkpt lat="43.52809" lon="6.66092">
        <ele>426.7</ele>
        <time>2026-01-09T10:40:59.000Z</time>
      </trkpt>
      <trkpt lat="43.52806" lon="6.66096">
        <ele>428.8</ele>
        <time>2026-01-09T10:41:09.000Z</time>
      </trkpt>
      <trkpt lat="43.52804" lon="6.66094">
        <ele>430.8</ele>
        <time>2026-01-09T10:41:19.000Z</time>
      </trkpt>
      <trkpt lat="43.52801" lon="6.66086">
        <ele>431.3</ele>
        <time>2026-01-09T10:41:29.000Z</time>
      </trkpt>
      <trkpt lat="43.52795" lon="6.66091">
        <ele>435</ele>
        <time>2026-01-09T10:41:39.000Z</time>
      </trkpt>
      <trkpt lat="43.52793" lon="6.66091">
        <ele>434.6</ele>
        <time>2026-01-09T10:42:23.000Z</time>
      </trkpt>
      <trkpt lat="43.52792" lon="6.66088">
        <ele>439.8</ele>
        <time>2026-01-09T10:42:33.000Z</time>
      </trkpt>
      <trkpt lat="43.5279" lon="6.6609">
        <ele>441</ele>
        <time>2026-01-09T10:43:01.000Z</time>
      </trkpt>
      <trkpt lat="43.5279" lon="6.66088">
        <ele>442.5</ele>
        <time>2026-01-09T10:43:26.000Z</time>
      </trkpt>
      <trkpt lat="43.52787" lon="6.66094">
        <ele>443.5</ele>
        <time>2026-01-09T10:43:36.000Z</time>
      </trkpt>
      <trkpt lat="43.52784" lon="6.66097">
        <ele>440.5</ele>
        <time>2026-01-09T10:43:46.000Z</time>
      </trkpt>
      <trkpt lat="43.52788" lon="6.66099">
        <ele>442.8</ele>
        <time>2026-01-09T10:43:56.000Z</time>
      </trkpt>
      <trkpt lat="43.52792" lon="6.66099">
        <ele>445.2</ele>
        <time>2026-01-09T10:44:06.000Z</time>
      </trkpt>
      <trkpt lat="43.52792" lon="6.66102">
        <ele>446.8</ele>
        <time>2026-01-09T10:44:31.000Z</time>
      </trkpt>
      <trkpt lat="43.52786" lon="6.66105">
        <ele>445</ele>
        <time>2026-01-09T10:44:56.000Z</time>
      </trkpt>
      <trkpt lat="43.52784" lon="6.66102">
        <ele>445.3</ele>
        <time>2026-01-09T10:45:06.000Z</time>
      </trkpt>
      <trkpt lat="43.52788" lon="6.66108">
        <ele>442.5</ele>
        <time>2026-01-09T10:45:25.000Z</time>
      </trkpt>
      <trkpt lat="43.52791" lon="6.66107">
        <ele>447.7</ele>
        <time>2026-01-09T10:45:35.000Z</time>
      </trkpt>
      <trkpt lat="43.5279" lon="6.66118">
        <ele>448.5</ele>
        <time>2026-01-09T10:45:45.000Z</time>
      </trkpt>
      <trkpt lat="43.52796" lon="6.6612">
        <ele>450.6</ele>
        <time>2026-01-09T10:46:04.000Z</time>
      </trkpt>
      <trkpt lat="43.52805" lon="6.6612">
        <ele>451</ele>
        <time>2026-01-09T10:46:14.000Z</time>
      </trkpt>
      <trkpt lat="43.52804" lon="6.66129">
        <ele>450.7</ele>
        <time>2026-01-09T10:46:24.000Z</time>
      </trkpt>
      <trkpt lat="43.52801" lon="6.66128">
        <ele>450</ele>
        <time>2026-01-09T10:46:34.000Z</time>
      </trkpt>
      <trkpt lat="43.528" lon="6.66124">
        <ele>449.5</ele>
        <time>2026-01-09T10:46:44.000Z</time>
      </trkpt>
      <trkpt lat="43.52799" lon="6.66126">
        <ele>451</ele>
        <time>2026-01-09T10:46:58.000Z</time>
      </trkpt>
      <trkpt lat="43.52805" lon="6.66129">
        <ele>452.3</ele>
        <time>2026-01-09T10:47:08.000Z</time>
      </trkpt>
      <trkpt lat="43.52813" lon="6.66131">
        <ele>453.2</ele>
        <time>2026-01-09T10:47:18.000Z</time>
      </trkpt>
      <trkpt lat="43.52813" lon="6.66141">
        <ele>453.5</ele>
        <time>2026-01-09T10:47:39.000Z</time>
      </trkpt>
      <trkpt lat="43.52803" lon="6.66158">
        <ele>455.3</ele>
        <time>2026-01-09T10:47:49.000Z</time>
      </trkpt>
      <trkpt lat="43.52796" lon="6.66158">
        <ele>450.7</ele>
        <time>2026-01-09T10:47:59.000Z</time>
      </trkpt>
      <trkpt lat="43.52794" lon="6.66165">
        <ele>450.3</ele>
        <time>2026-01-09T10:48:09.000Z</time>
      </trkpt>
      <trkpt lat="43.52789" lon="6.66172">
        <ele>453.4</ele>
        <time>2026-01-09T10:48:19.000Z</time>
      </trkpt>
      <trkpt lat="43.52801" lon="6.66175">
        <ele>454.3</ele>
        <time>2026-01-09T10:48:29.000Z</time>
      </trkpt>
      <trkpt lat="43.52806" lon="6.66178">
        <ele>454.8</ele>
        <time>2026-01-09T10:48:39.000Z</time>
      </trkpt>
      <trkpt lat="43.52803" lon="6.66186">
        <ele>453.2</ele>
        <time>2026-01-09T10:48:49.000Z</time>
      </trkpt>
      <trkpt lat="43.528" lon="6.66183">
        <ele>451.4</ele>
        <time>2026-01-09T10:49:11.000Z</time>
      </trkpt>
      <trkpt lat="43.52801" lon="6.66187">
        <ele>452</ele>
        <time>2026-01-09T10:49:33.000Z</time>
      </trkpt>
      <trkpt lat="43.52791" lon="6.66197">
        <ele>452.6</ele>
        <time>2026-01-09T10:49:43.000Z</time>
      </trkpt>
      <trkpt lat="43.52786" lon="6.66199">
        <ele>447.1</ele>
        <time>2026-01-09T10:49:53.000Z</time>
      </trkpt>
      <trkpt lat="43.52783" lon="6.66198">
        <ele>448.7</ele>
        <time>2026-01-09T10:50:03.000Z</time>
      </trkpt>
      <trkpt lat="43.52787" lon="6.66204">
        <ele>451.7</ele>
        <time>2026-01-09T10:50:13.000Z</time>
      </trkpt>
      <trkpt lat="43.52778" lon="6.66223">
        <ele>454.7</ele>
        <time>2026-01-09T10:50:23.000Z</time>
      </trkpt>
      <trkpt lat="43.52772" lon="6.66212">
        <ele>449.3</ele>
        <time>2026-01-09T10:50:33.000Z</time>
      </trkpt>
      <trkpt lat="43.52771" lon="6.66213">
        <ele>448.7</ele>
        <time>2026-01-09T10:50:43.000Z</time>
      </trkpt>
      <trkpt lat="43.5278" lon="6.66221">
        <ele>446.9</ele>
        <time>2026-01-09T10:50:53.000Z</time>
      </trkpt>
      <trkpt lat="43.52774" lon="6.66222">
        <ele>450.9</ele>
        <time>2026-01-09T10:51:10.000Z</time>
      </trkpt>
      <trkpt lat="43.52767" lon="6.6623">
        <ele>448.4</ele>
        <time>2026-01-09T10:51:20.000Z</time>
      </trkpt>
      <trkpt lat="43.52767" lon="6.6623">
        <ele>448.7</ele>
        <time>2026-01-09T10:51:30.000Z</time>
      </trkpt>
      <trkpt lat="43.5277" lon="6.66234">
        <ele>450.9</ele>
        <time>2026-01-09T10:51:40.000Z</time>
      </trkpt>
      <trkpt lat="43.52772" lon="6.66235">
        <ele>449.7</ele>
        <time>2026-01-09T10:52:02.000Z</time>
      </trkpt>
      <trkpt lat="43.52771" lon="6.66247">
        <ele>446.8</ele>
        <time>2026-01-09T10:52:12.000Z</time>
      </trkpt>
      <trkpt lat="43.52776" lon="6.66258">
        <ele>452.1</ele>
        <time>2026-01-09T10:52:22.000Z</time>
      </trkpt>
      <trkpt lat="43.52779" lon="6.66263">
        <ele>456.4</ele>
        <time>2026-01-09T10:52:32.000Z</time>
      </trkpt>
      <trkpt lat="43.52775" lon="6.66262">
        <ele>460.6</ele>
        <time>2026-01-09T10:52:42.000Z</time>
      </trkpt>
      <trkpt lat="43.52772" lon="6.66261">
        <ele>459.8</ele>
        <time>2026-01-09T10:52:52.000Z</time>
      </trkpt>
      <trkpt lat="43.52773" lon="6.66263">
        <ele>460.2</ele>
        <time>2026-01-09T10:53:16.000Z</time>
      </trkpt>
      <trkpt lat="43.52771" lon="6.66256">
        <ele>464.2</ele>
        <time>2026-01-09T10:53:35.000Z</time>
      </trkpt>
      <trkpt lat="43.52772" lon="6.66253">
        <ele>463.5</ele>
        <time>2026-01-09T10:53:45.000Z</time>
      </trkpt>
      <trkpt lat="43.52768" lon="6.66247">
        <ele>465.2</ele>
        <time>2026-01-09T10:53:55.000Z</time>
      </trkpt>
      <trkpt lat="43.52774" lon="6.66247">
        <ele>468.6</ele>
        <time>2026-01-09T10:54:05.000Z</time>
      </trkpt>
      <trkpt lat="43.52771" lon="6.66247">
        <ele>467.2</ele>
        <time>2026-01-09T10:54:15.000Z</time>
      </trkpt>
      <trkpt lat="43.5277" lon="6.66245">
        <ele>467.7</ele>
        <time>2026-01-09T10:54:46.000Z</time>
      </trkpt>
      <trkpt lat="43.5277" lon="6.66245">
        <ele>472.7</ele>
        <time>2026-01-09T10:55:30.000Z</time>
      </trkpt>
      <trkpt lat="43.52772" lon="6.66237">
        <ele>471.3</ele>
        <time>2026-01-09T10:55:40.000Z</time>
      </trkpt>
      <trkpt lat="43.52774" lon="6.66239">
        <ele>471.6</ele>
        <time>2026-01-09T10:55:50.000Z</time>
      </trkpt>
      <trkpt lat="43.52774" lon="6.66236">
        <ele>471.4</ele>
        <time>2026-01-09T10:56:11.000Z</time>
      </trkpt>
      <trkpt lat="43.52769" lon="6.66237">
        <ele>472.5</ele>
        <time>2026-01-09T10:56:21.000Z</time>
      </trkpt>
      <trkpt lat="43.52767" lon="6.66241">
        <ele>471.4</ele>
        <time>2026-01-09T10:56:31.000Z</time>
      </trkpt>
      <trkpt lat="43.52767" lon="6.66246">
        <ele>473.4</ele>
        <time>2026-01-09T10:56:52.000Z</time>
      </trkpt>
      <trkpt lat="43.52768" lon="6.66245">
        <ele>474.8</ele>
        <time>2026-01-09T10:57:38.000Z</time>
      </trkpt>
      <trkpt lat="43.52769" lon="6.66248">
        <ele>476.6</ele>
        <time>2026-01-09T10:57:55.000Z</time>
      </trkpt>
      <trkpt lat="43.52769" lon="6.66248">
        <ele>478.9</ele>
        <time>2026-01-09T10:58:25.000Z</time>
      </trkpt>
      <trkpt lat="43.52771" lon="6.66248">
        <ele>476.8</ele>
        <time>2026-01-09T10:58:49.000Z</time>
      </trkpt>
      <trkpt lat="43.52772" lon="6.66242">
        <ele>477.8</ele>
        <time>2026-01-09T10:59:07.000Z</time>
      </trkpt>
      <trkpt lat="43.52761" lon="6.66241">
        <ele>475.9</ele>
        <time>2026-01-09T10:59:17.000Z</time>
      </trkpt>
      <trkpt lat="43.52755" lon="6.6624">
        <ele>474.9</ele>
        <time>2026-01-09T10:59:27.000Z</time>
      </trkpt>
      <trkpt lat="43.52759" lon="6.66238">
        <ele>476.9</ele>
        <time>2026-01-09T10:59:37.000Z</time>
      </trkpt>
      <trkpt lat="43.52762" lon="6.66237">
        <ele>477.7</ele>
        <time>2026-01-09T10:59:47.000Z</time>
      </trkpt>
      <trkpt lat="43.5276" lon="6.66236">
        <ele>479.6</ele>
        <time>2026-01-09T11:00:13.000Z</time>
      </trkpt>
      <trkpt lat="43.52758" lon="6.66237">
        <ele>480.7</ele>
        <time>2026-01-09T11:00:23.000Z</time>
      </trkpt>
      <trkpt lat="43.52753" lon="6.66239">
        <ele>481.5</ele>
        <time>2026-01-09T11:00:33.000Z</time>
      </trkpt>
      <trkpt lat="43.52749" lon="6.66247">
        <ele>483.8</ele>
        <time>2026-01-09T11:00:43.000Z</time>
      </trkpt>
      <trkpt lat="43.52743" lon="6.66252">
        <ele>482.5</ele>
        <time>2026-01-09T11:00:53.000Z</time>
      </trkpt>
      <trkpt lat="43.5274" lon="6.66256">
        <ele>485.4</ele>
        <time>2026-01-09T11:01:03.000Z</time>
      </trkpt>
      <trkpt lat="43.52739" lon="6.66252">
        <ele>486.3</ele>
        <time>2026-01-09T11:01:13.000Z</time>
      </trkpt>
      <trkpt lat="43.52739" lon="6.66257">
        <ele>488</ele>
        <time>2026-01-09T11:04:49.000Z</time>
      </trkpt>
      <trkpt lat="43.52737" lon="6.66257">
        <ele>483.9</ele>
        <time>2026-01-09T11:05:55.000Z</time>
      </trkpt>
      <trkpt lat="43.52732" lon="6.66254">
        <ele>486</ele>
        <time>2026-01-09T11:06:05.000Z</time>
      </trkpt>
      <trkpt lat="43.52732" lon="6.66249">
        <ele>488</ele>
        <time>2026-01-09T11:06:15.000Z</time>
      </trkpt>
      <trkpt lat="43.5273" lon="6.66245">
        <ele>488.8</ele>
        <time>2026-01-09T11:06:25.000Z</time>
      </trkpt>
      <trkpt lat="43.52736" lon="6.66239">
        <ele>490.6</ele>
        <time>2026-01-09T11:06:35.000Z</time>
      </trkpt>
      <trkpt lat="43.5274" lon="6.6623">
        <ele>490.9</ele>
        <time>2026-01-09T11:06:45.000Z</time>
      </trkpt>
      <trkpt lat="43.52744" lon="6.66231">
        <ele>488.1</ele>
        <time>2026-01-09T11:06:55.000Z</time>
      </trkpt>
      <trkpt lat="43.52741" lon="6.66223">
        <ele>489.8</ele>
        <time>2026-01-09T11:07:11.000Z</time>
      </trkpt>
      <trkpt lat="43.52738" lon="6.66214">
        <ele>490.7</ele>
        <time>2026-01-09T11:07:21.000Z</time>
      </trkpt>
      <trkpt lat="43.52741" lon="6.66199">
        <ele>493.5</ele>
        <time>2026-01-09T11:07:31.000Z</time>
      </trkpt>
      <trkpt lat="43.52742" lon="6.66187">
        <ele>497.4</ele>
        <time>2026-01-09T11:07:41.000Z</time>
      </trkpt>
      <trkpt lat="43.52747" lon="6.66181">
        <ele>495.5</ele>
        <time>2026-01-09T11:07:51.000Z</time>
      </trkpt>
      <trkpt lat="43.5275" lon="6.66175">
        <ele>492.6</ele>
        <time>2026-01-09T11:08:01.000Z</time>
      </trkpt>
      <trkpt lat="43.52752" lon="6.66167">
        <ele>498.2</ele>
        <time>2026-01-09T11:08:26.000Z</time>
      </trkpt>
      <trkpt lat="43.52753" lon="6.66165">
        <ele>497.9</ele>
        <time>2026-01-09T11:09:29.000Z</time>
      </trkpt>
      <trkpt lat="43.52757" lon="6.66163">
        <ele>498.7</ele>
        <time>2026-01-09T11:09:50.000Z</time>
      </trkpt>
      <trkpt lat="43.52756" lon="6.66164">
        <ele>500.5</ele>
        <time>2026-01-09T11:11:44.000Z</time>
      </trkpt>
      <trkpt lat="43.52756" lon="6.66166">
        <ele>500.7</ele>
        <time>2026-01-09T11:12:19.000Z</time>
      </trkpt>
      <trkpt lat="43.52754" lon="6.66162">
        <ele>498.9</ele>
        <time>2026-01-09T11:12:55.000Z</time>
      </trkpt>
      <trkpt lat="43.52753" lon="6.66163">
        <ele>499.7</ele>
        <time>2026-01-09T11:13:49.000Z</time>
      </trkpt>
      <trkpt lat="43.52754" lon="6.66168">
        <ele>497.8</ele>
        <time>2026-01-09T11:14:38.000Z</time>
      </trkpt>
      <trkpt lat="43.52751" lon="6.66167">
        <ele>496.8</ele>
        <time>2026-01-09T11:15:35.000Z</time>
      </trkpt>
      <trkpt lat="43.52744" lon="6.66175">
        <ele>496.1</ele>
        <time>2026-01-09T11:15:45.000Z</time>
      </trkpt>
      <trkpt lat="43.52737" lon="6.66187">
        <ele>494.4</ele>
        <time>2026-01-09T11:15:55.000Z</time>
      </trkpt>
      <trkpt lat="43.52735" lon="6.66193">
        <ele>492.3</ele>
        <time>2026-01-09T11:16:06.000Z</time>
      </trkpt>
      <trkpt lat="43.5274" lon="6.66198">
        <ele>491.2</ele>
        <time>2026-01-09T11:16:16.000Z</time>
      </trkpt>
      <trkpt lat="43.52743" lon="6.66204">
        <ele>492.4</ele>
        <time>2026-01-09T11:16:26.000Z</time>
      </trkpt>
      <trkpt lat="43.52747" lon="6.6621">
        <ele>496.4</ele>
        <time>2026-01-09T11:16:36.000Z</time>
      </trkpt>
      <trkpt lat="43.5275" lon="6.66214">
        <ele>495.7</ele>
        <time>2026-01-09T11:16:46.000Z</time>
      </trkpt>
      <trkpt lat="43.52747" lon="6.66207">
        <ele>501.4</ele>
        <time>2026-01-09T11:16:56.000Z</time>
      </trkpt>
      <trkpt lat="43.52747" lon="6.66207">
        <ele>499.1</ele>
        <time>2026-01-09T11:20:10.000Z</time>
      </trkpt>
      <trkpt lat="43.52746" lon="6.66206">
        <ele>497</ele>
        <time>2026-01-09T11:42:59.000Z</time>
      </trkpt>
      <trkpt lat="43.52748" lon="6.66206">
        <ele>496.3</ele>
        <time>2026-01-09T11:43:37.000Z</time>
      </trkpt>
      <trkpt lat="43.52746" lon="6.66203">
        <ele>495.8</ele>
        <time>2026-01-09T11:47:26.000Z</time>
      </trkpt>
      <trkpt lat="43.52744" lon="6.66207">
        <ele>494.6</ele>
        <time>2026-01-09T11:47:36.000Z</time>
      </trkpt>
      <trkpt lat="43.52745" lon="6.66201">
        <ele>495.8</ele>
        <time>2026-01-09T11:50:41.000Z</time>
      </trkpt>
      <trkpt lat="43.52747" lon="6.66206">
        <ele>494.5</ele>
        <time>2026-01-09T11:50:51.000Z</time>
      </trkpt>
      <trkpt lat="43.5274" lon="6.66209">
        <ele>494.2</ele>
        <time>2026-01-09T11:51:01.000Z</time>
      </trkpt>
      <trkpt lat="43.52741" lon="6.6622">
        <ele>490.8</ele>
        <time>2026-01-09T11:51:11.000Z</time>
      </trkpt>
      <trkpt lat="43.52741" lon="6.66233">
        <ele>488.1</ele>
        <time>2026-01-09T11:51:21.000Z</time>
      </trkpt>
      <trkpt lat="43.52735" lon="6.6623">
        <ele>485.6</ele>
        <time>2026-01-09T11:51:31.000Z</time>
      </trkpt>
      <trkpt lat="43.5273" lon="6.66238">
        <ele>486.9</ele>
        <time>2026-01-09T11:51:41.000Z</time>
      </trkpt>
      <trkpt lat="43.52728" lon="6.6624">
        <ele>487.3</ele>
        <time>2026-01-09T11:52:14.000Z</time>
      </trkpt>
      <trkpt lat="43.52725" lon="6.66234">
        <ele>486.5</ele>
        <time>2026-01-09T11:52:24.000Z</time>
      </trkpt>
      <trkpt lat="43.52722" lon="6.66232">
        <ele>490.8</ele>
        <time>2026-01-09T11:52:34.000Z</time>
      </trkpt>
      <trkpt lat="43.52719" lon="6.66231">
        <ele>491.8</ele>
        <time>2026-01-09T11:52:44.000Z</time>
      </trkpt>
      <trkpt lat="43.5272" lon="6.66223">
        <ele>491.4</ele>
        <time>2026-01-09T11:52:54.000Z</time>
      </trkpt>
      <trkpt lat="43.52718" lon="6.66212">
        <ele>493.4</ele>
        <time>2026-01-09T11:53:04.000Z</time>
      </trkpt>
      <trkpt lat="43.5272" lon="6.66213">
        <ele>491.1</ele>
        <time>2026-01-09T11:53:31.000Z</time>
      </trkpt>
      <trkpt lat="43.52721" lon="6.66219">
        <ele>490.2</ele>
        <time>2026-01-09T11:53:41.000Z</time>
      </trkpt>
      <trkpt lat="43.52723" lon="6.66221">
        <ele>490.2</ele>
        <time>2026-01-09T11:53:51.000Z</time>
      </trkpt>
      <trkpt lat="43.52724" lon="6.66224">
        <ele>493.2</ele>
        <time>2026-01-09T11:54:05.000Z</time>
      </trkpt>
      <trkpt lat="43.52725" lon="6.66228">
        <ele>495.8</ele>
        <time>2026-01-09T11:54:15.000Z</time>
      </trkpt>
      <trkpt lat="43.52725" lon="6.66233">
        <ele>492.7</ele>
        <time>2026-01-09T11:54:25.000Z</time>
      </trkpt>
      <trkpt lat="43.52725" lon="6.6624">
        <ele>493.2</ele>
        <time>2026-01-09T11:54:35.000Z</time>
      </trkpt>
      <trkpt lat="43.52721" lon="6.66246">
        <ele>491.8</ele>
        <time>2026-01-09T11:54:45.000Z</time>
      </trkpt>
      <trkpt lat="43.52718" lon="6.66253">
        <ele>494.3</ele>
        <time>2026-01-09T11:54:55.000Z</time>
      </trkpt>
      <trkpt lat="43.52713" lon="6.66253">
        <ele>491.1</ele>
        <time>2026-01-09T11:55:05.000Z</time>
      </trkpt>
      <trkpt lat="43.52706" lon="6.66252">
        <ele>489.7</ele>
        <time>2026-01-09T11:55:15.000Z</time>
      </trkpt>
      <trkpt lat="43.527" lon="6.66255">
        <ele>486.7</ele>
        <time>2026-01-09T11:55:25.000Z</time>
      </trkpt>
      <trkpt lat="43.52696" lon="6.66251">
        <ele>488.9</ele>
        <time>2026-01-09T11:55:35.000Z</time>
      </trkpt>
      <trkpt lat="43.52689" lon="6.66261">
        <ele>491.5</ele>
        <time>2026-01-09T11:55:45.000Z</time>
      </trkpt>
      <trkpt lat="43.52685" lon="6.66268">
        <ele>487.4</ele>
        <time>2026-01-09T11:55:55.000Z</time>
      </trkpt>
      <trkpt lat="43.52693" lon="6.66277">
        <ele>486.1</ele>
        <time>2026-01-09T11:56:05.000Z</time>
      </trkpt>
      <trkpt lat="43.52704" lon="6.66277">
        <ele>483.5</ele>
        <time>2026-01-09T11:56:15.000Z</time>
      </trkpt>
      <trkpt lat="43.52703" lon="6.66282">
        <ele>486.7</ele>
        <time>2026-01-09T11:56:38.000Z</time>
      </trkpt>
      <trkpt lat="43.52698" lon="6.66283">
        <ele>490.2</ele>
        <time>2026-01-09T11:56:48.000Z</time>
      </trkpt>
      <trkpt lat="43.52695" lon="6.6629">
        <ele>488.8</ele>
        <time>2026-01-09T11:56:58.000Z</time>
      </trkpt>
      <trkpt lat="43.52694" lon="6.66296">
        <ele>488.7</ele>
        <time>2026-01-09T11:57:08.000Z</time>
      </trkpt>
      <trkpt lat="43.52699" lon="6.66299">
        <ele>480.4</ele>
        <time>2026-01-09T11:57:24.000Z</time>
      </trkpt>
      <trkpt lat="43.52697" lon="6.66305">
        <ele>481.5</ele>
        <time>2026-01-09T11:57:34.000Z</time>
      </trkpt>
      <trkpt lat="43.52698" lon="6.66307">
        <ele>479.2</ele>
        <time>2026-01-09T11:57:44.000Z</time>
      </trkpt>
      <trkpt lat="43.52694" lon="6.66307">
        <ele>476.4</ele>
        <time>2026-01-09T11:58:05.000Z</time>
      </trkpt>
      <trkpt lat="43.52687" lon="6.66307">
        <ele>475.9</ele>
        <time>2026-01-09T11:58:15.000Z</time>
      </trkpt>
      <trkpt lat="43.52689" lon="6.663">
        <ele>479.5</ele>
        <time>2026-01-09T11:58:25.000Z</time>
      </trkpt>
      <trkpt lat="43.52693" lon="6.66298">
        <ele>477.9</ele>
        <time>2026-01-09T11:58:48.000Z</time>
      </trkpt>
      <trkpt lat="43.52696" lon="6.66296">
        <ele>479.3</ele>
        <time>2026-01-09T11:58:58.000Z</time>
      </trkpt>
      <trkpt lat="43.52695" lon="6.66302">
        <ele>475.7</ele>
        <time>2026-01-09T11:59:08.000Z</time>
      </trkpt>
      <trkpt lat="43.52695" lon="6.66306">
        <ele>474.9</ele>
        <time>2026-01-09T12:00:33.000Z</time>
      </trkpt>
      <trkpt lat="43.52695" lon="6.66311">
        <ele>464.7</ele>
        <time>2026-01-09T12:00:54.000Z</time>
      </trkpt>
      <trkpt lat="43.52687" lon="6.66318">
        <ele>461.7</ele>
        <time>2026-01-09T12:01:04.000Z</time>
      </trkpt>
      <trkpt lat="43.52681" lon="6.66313">
        <ele>462.2</ele>
        <time>2026-01-09T12:01:14.000Z</time>
      </trkpt>
      <trkpt lat="43.52675" lon="6.66306">
        <ele>461.9</ele>
        <time>2026-01-09T12:01:24.000Z</time>
      </trkpt>
      <trkpt lat="43.52672" lon="6.66309">
        <ele>461.5</ele>
        <time>2026-01-09T12:01:34.000Z</time>
      </trkpt>
      <trkpt lat="43.52671" lon="6.66308">
        <ele>460.8</ele>
        <time>2026-01-09T12:01:48.000Z</time>
      </trkpt>
      <trkpt lat="43.52665" lon="6.66296">
        <ele>462.5</ele>
        <time>2026-01-09T12:01:58.000Z</time>
      </trkpt>
      <trkpt lat="43.52654" lon="6.6629">
        <ele>463</ele>
        <time>2026-01-09T12:02:12.000Z</time>
      </trkpt>
      <trkpt lat="43.52651" lon="6.6629">
        <ele>470.3</ele>
        <time>2026-01-09T12:02:22.000Z</time>
      </trkpt>
      <trkpt lat="43.52646" lon="6.66284">
        <ele>470.4</ele>
        <time>2026-01-09T12:02:32.000Z</time>
      </trkpt>
      <trkpt lat="43.52642" lon="6.66282">
        <ele>467.6</ele>
        <time>2026-01-09T12:02:59.000Z</time>
      </trkpt>
      <trkpt lat="43.52637" lon="6.66282">
        <ele>468.6</ele>
        <time>2026-01-09T12:03:09.000Z</time>
      </trkpt>
      <trkpt lat="43.52629" lon="6.66284">
        <ele>471.1</ele>
        <time>2026-01-09T12:03:19.000Z</time>
      </trkpt>
      <trkpt lat="43.52625" lon="6.66281">
        <ele>465.8</ele>
        <time>2026-01-09T12:03:29.000Z</time>
      </trkpt>
      <trkpt lat="43.52622" lon="6.66277">
        <ele>466.3</ele>
        <time>2026-01-09T12:03:39.000Z</time>
      </trkpt>
      <trkpt lat="43.52619" lon="6.66271">
        <ele>465.6</ele>
        <time>2026-01-09T12:03:49.000Z</time>
      </trkpt>
      <trkpt lat="43.52617" lon="6.6627">
        <ele>466.8</ele>
        <time>2026-01-09T12:03:59.000Z</time>
      </trkpt>
      <trkpt lat="43.52612" lon="6.66269">
        <ele>463.6</ele>
        <time>2026-01-09T12:04:09.000Z</time>
      </trkpt>
      <trkpt lat="43.52606" lon="6.66268">
        <ele>458.7</ele>
        <time>2026-01-09T12:04:19.000Z</time>
      </trkpt>
      <trkpt lat="43.52596" lon="6.66268">
        <ele>462.2</ele>
        <time>2026-01-09T12:04:29.000Z</time>
      </trkpt>
      <trkpt lat="43.52589" lon="6.66267">
        <ele>469.6</ele>
        <time>2026-01-09T12:04:39.000Z</time>
      </trkpt>
      <trkpt lat="43.52585" lon="6.66266">
        <ele>469.1</ele>
        <time>2026-01-09T12:04:49.000Z</time>
      </trkpt>
      <trkpt lat="43.52578" lon="6.66262">
        <ele>469</ele>
        <time>2026-01-09T12:04:59.000Z</time>
      </trkpt>
      <trkpt lat="43.52573" lon="6.66261">
        <ele>470.4</ele>
        <time>2026-01-09T12:05:09.000Z</time>
      </trkpt>
      <trkpt lat="43.52567" lon="6.66262">
        <ele>468.4</ele>
        <time>2026-01-09T12:05:19.000Z</time>
      </trkpt>
      <trkpt lat="43.52565" lon="6.6626">
        <ele>466.8</ele>
        <time>2026-01-09T12:05:29.000Z</time>
      </trkpt>
      <trkpt lat="43.52558" lon="6.66259">
        <ele>473.3</ele>
        <time>2026-01-09T12:05:39.000Z</time>
      </trkpt>
      <trkpt lat="43.5256" lon="6.66264">
        <ele>468.9</ele>
        <time>2026-01-09T12:05:49.000Z</time>
      </trkpt>
      <trkpt lat="43.52555" lon="6.66264">
        <ele>471.3</ele>
        <time>2026-01-09T12:07:14.000Z</time>
      </trkpt>
      <trkpt lat="43.52551" lon="6.66266">
        <ele>470.1</ele>
        <time>2026-01-09T12:07:39.000Z</time>
      </trkpt>
      <trkpt lat="43.52543" lon="6.66266">
        <ele>467.7</ele>
        <time>2026-01-09T12:07:49.000Z</time>
      </trkpt>
      <trkpt lat="43.52536" lon="6.66265">
        <ele>472.3</ele>
        <time>2026-01-09T12:07:59.000Z</time>
      </trkpt>
      <trkpt lat="43.52534" lon="6.66255">
        <ele>473.3</ele>
        <time>2026-01-09T12:08:09.000Z</time>
      </trkpt>
      <trkpt lat="43.5253" lon="6.6625">
        <ele>473.5</ele>
        <time>2026-01-09T12:08:19.000Z</time>
      </trkpt>
      <trkpt lat="43.52528" lon="6.66248">
        <ele>473.1</ele>
        <time>2026-01-09T12:08:29.000Z</time>
      </trkpt>
      <trkpt lat="43.52527" lon="6.66245">
        <ele>474.1</ele>
        <time>2026-01-09T12:08:39.000Z</time>
      </trkpt>
      <trkpt lat="43.52525" lon="6.66246">
        <ele>474.9</ele>
        <time>2026-01-09T12:08:49.000Z</time>
      </trkpt>
      <trkpt lat="43.52521" lon="6.66247">
        <ele>471.2</ele>
        <time>2026-01-09T12:08:59.000Z</time>
      </trkpt>
      <trkpt lat="43.52517" lon="6.66244">
        <ele>470.2</ele>
        <time>2026-01-09T12:09:09.000Z</time>
      </trkpt>
      <trkpt lat="43.52514" lon="6.66246">
        <ele>468.6</ele>
        <time>2026-01-09T12:09:19.000Z</time>
      </trkpt>
      <trkpt lat="43.52509" lon="6.66244">
        <ele>473.6</ele>
        <time>2026-01-09T12:09:46.000Z</time>
      </trkpt>
      <trkpt lat="43.52506" lon="6.66237">
        <ele>470.6</ele>
        <time>2026-01-09T12:09:56.000Z</time>
      </trkpt>
      <trkpt lat="43.52499" lon="6.66241">
        <ele>474.5</ele>
        <time>2026-01-09T12:10:06.000Z</time>
      </trkpt>
      <trkpt lat="43.52494" lon="6.66246">
        <ele>474.1</ele>
        <time>2026-01-09T12:10:30.000Z</time>
      </trkpt>
      <trkpt lat="43.52489" lon="6.66235">
        <ele>476.8</ele>
        <time>2026-01-09T12:10:40.000Z</time>
      </trkpt>
      <trkpt lat="43.52492" lon="6.66221">
        <ele>477</ele>
        <time>2026-01-09T12:10:50.000Z</time>
      </trkpt>
      <trkpt lat="43.52489" lon="6.66215">
        <ele>479.8</ele>
        <time>2026-01-09T12:11:00.000Z</time>
      </trkpt>
      <trkpt lat="43.52487" lon="6.66207">
        <ele>478.1</ele>
        <time>2026-01-09T12:11:10.000Z</time>
      </trkpt>
      <trkpt lat="43.52481" lon="6.66204">
        <ele>477.7</ele>
        <time>2026-01-09T12:11:20.000Z</time>
      </trkpt>
      <trkpt lat="43.52483" lon="6.66198">
        <ele>476</ele>
        <time>2026-01-09T12:11:30.000Z</time>
      </trkpt>
      <trkpt lat="43.52479" lon="6.66194">
        <ele>472.6</ele>
        <time>2026-01-09T12:11:40.000Z</time>
      </trkpt>
      <trkpt lat="43.52473" lon="6.66189">
        <ele>474</ele>
        <time>2026-01-09T12:11:50.000Z</time>
      </trkpt>
      <trkpt lat="43.52471" lon="6.66184">
        <ele>474.8</ele>
        <time>2026-01-09T12:12:00.000Z</time>
      </trkpt>
      <trkpt lat="43.52467" lon="6.66186">
        <ele>470.9</ele>
        <time>2026-01-09T12:12:10.000Z</time>
      </trkpt>
      <trkpt lat="43.52467" lon="6.66175">
        <ele>468</ele>
        <time>2026-01-09T12:12:20.000Z</time>
      </trkpt>
      <trkpt lat="43.52465" lon="6.66174">
        <ele>467.1</ele>
        <time>2026-01-09T12:12:30.000Z</time>
      </trkpt>
      <trkpt lat="43.5246" lon="6.66175">
        <ele>469</ele>
        <time>2026-01-09T12:12:40.000Z</time>
      </trkpt>
      <trkpt lat="43.52455" lon="6.66181">
        <ele>471.4</ele>
        <time>2026-01-09T12:12:50.000Z</time>
      </trkpt>
      <trkpt lat="43.52446" lon="6.66184">
        <ele>474.6</ele>
        <time>2026-01-09T12:13:00.000Z</time>
      </trkpt>
      <trkpt lat="43.52443" lon="6.66191">
        <ele>475.2</ele>
        <time>2026-01-09T12:13:10.000Z</time>
      </trkpt>
      <trkpt lat="43.52439" lon="6.66189">
        <ele>473.8</ele>
        <time>2026-01-09T12:13:20.000Z</time>
      </trkpt>
      <trkpt lat="43.52439" lon="6.66185">
        <ele>473.2</ele>
        <time>2026-01-09T12:13:30.000Z</time>
      </trkpt>
      <trkpt lat="43.52435" lon="6.66183">
        <ele>470.7</ele>
        <time>2026-01-09T12:13:40.000Z</time>
      </trkpt>
      <trkpt lat="43.52437" lon="6.66177">
        <ele>468.1</ele>
        <time>2026-01-09T12:13:50.000Z</time>
      </trkpt>
      <trkpt lat="43.5244" lon="6.66176">
        <ele>467</ele>
        <time>2026-01-09T12:14:00.000Z</time>
      </trkpt>
      <trkpt lat="43.52441" lon="6.66172">
        <ele>464.4</ele>
        <time>2026-01-09T12:14:10.000Z</time>
      </trkpt>
      <trkpt lat="43.5244" lon="6.66169">
        <ele>463.9</ele>
        <time>2026-01-09T12:14:36.000Z</time>
      </trkpt>
      <trkpt lat="43.52438" lon="6.66167">
        <ele>463.3</ele>
        <time>2026-01-09T12:14:53.000Z</time>
      </trkpt>
      <trkpt lat="43.52435" lon="6.6616">
        <ele>465</ele>
        <time>2026-01-09T12:15:03.000Z</time>
      </trkpt>
      <trkpt lat="43.5243" lon="6.66154">
        <ele>465.4</ele>
        <time>2026-01-09T12:15:13.000Z</time>
      </trkpt>
      <trkpt lat="43.5243" lon="6.66148">
        <ele>464.6</ele>
        <time>2026-01-09T12:15:23.000Z</time>
      </trkpt>
      <trkpt lat="43.52426" lon="6.66142">
        <ele>466.7</ele>
        <time>2026-01-09T12:15:33.000Z</time>
      </trkpt>
      <trkpt lat="43.52423" lon="6.6615">
        <ele>463.2</ele>
        <time>2026-01-09T12:15:43.000Z</time>
      </trkpt>
      <trkpt lat="43.52424" lon="6.6615">
        <ele>451.6</ele>
        <time>2026-01-09T12:16:08.000Z</time>
      </trkpt>
      <trkpt lat="43.52419" lon="6.66161">
        <ele>451.9</ele>
        <time>2026-01-09T12:16:18.000Z</time>
      </trkpt>
      <trkpt lat="43.52413" lon="6.66163">
        <ele>451.6</ele>
        <time>2026-01-09T12:16:28.000Z</time>
      </trkpt>
      <trkpt lat="43.52416" lon="6.66166">
        <ele>452.4</ele>
        <time>2026-01-09T12:16:48.000Z</time>
      </trkpt>
      <trkpt lat="43.52419" lon="6.66166">
        <ele>452.8</ele>
        <time>2026-01-09T12:16:58.000Z</time>
      </trkpt>
      <trkpt lat="43.52422" lon="6.66165">
        <ele>456.5</ele>
        <time>2026-01-09T12:17:17.000Z</time>
      </trkpt>
      <trkpt lat="43.52414" lon="6.66157">
        <ele>456.5</ele>
        <time>2026-01-09T12:17:27.000Z</time>
      </trkpt>
      <trkpt lat="43.52411" lon="6.66157">
        <ele>453.2</ele>
        <time>2026-01-09T12:18:10.000Z</time>
      </trkpt>
      <trkpt lat="43.52407" lon="6.66156">
        <ele>455.8</ele>
        <time>2026-01-09T12:18:20.000Z</time>
      </trkpt>
      <trkpt lat="43.52411" lon="6.66148">
        <ele>455.4</ele>
        <time>2026-01-09T12:18:30.000Z</time>
      </trkpt>
      <trkpt lat="43.52405" lon="6.66143">
        <ele>456.8</ele>
        <time>2026-01-09T12:18:40.000Z</time>
      </trkpt>
      <trkpt lat="43.524" lon="6.6614">
        <ele>455.3</ele>
        <time>2026-01-09T12:18:50.000Z</time>
      </trkpt>
      <trkpt lat="43.52399" lon="6.66151">
        <ele>447.2</ele>
        <time>2026-01-09T12:19:00.000Z</time>
      </trkpt>
      <trkpt lat="43.52394" lon="6.66151">
        <ele>443.4</ele>
        <time>2026-01-09T12:19:10.000Z</time>
      </trkpt>
      <trkpt lat="43.52393" lon="6.66143">
        <ele>441.5</ele>
        <time>2026-01-09T12:19:20.000Z</time>
      </trkpt>
      <trkpt lat="43.52386" lon="6.66146">
        <ele>437.7</ele>
        <time>2026-01-09T12:19:30.000Z</time>
      </trkpt>
      <trkpt lat="43.52384" lon="6.66157">
        <ele>438.6</ele>
        <time>2026-01-09T12:19:40.000Z</time>
      </trkpt>
      <trkpt lat="43.52382" lon="6.66154">
        <ele>436.4</ele>
        <time>2026-01-09T12:19:50.000Z</time>
      </trkpt>
      <trkpt lat="43.5238" lon="6.6616">
        <ele>436.7</ele>
        <time>2026-01-09T12:20:00.000Z</time>
      </trkpt>
      <trkpt lat="43.52381" lon="6.66166">
        <ele>434.2</ele>
        <time>2026-01-09T12:20:33.000Z</time>
      </trkpt>
      <trkpt lat="43.5238" lon="6.6617">
        <ele>435.7</ele>
        <time>2026-01-09T12:20:50.000Z</time>
      </trkpt>
      <trkpt lat="43.52375" lon="6.66167">
        <ele>436.5</ele>
        <time>2026-01-09T12:21:00.000Z</time>
      </trkpt>
      <trkpt lat="43.52375" lon="6.66168">
        <ele>436.6</ele>
        <time>2026-01-09T12:21:24.000Z</time>
      </trkpt>
      <trkpt lat="43.52372" lon="6.66167">
        <ele>438.5</ele>
        <time>2026-01-09T12:21:34.000Z</time>
      </trkpt>
      <trkpt lat="43.52374" lon="6.66166">
        <ele>437.3</ele>
        <time>2026-01-09T12:22:09.000Z</time>
      </trkpt>
      <trkpt lat="43.52379" lon="6.6616">
        <ele>433</ele>
        <time>2026-01-09T12:22:19.000Z</time>
      </trkpt>
      <trkpt lat="43.52375" lon="6.66158">
        <ele>433.4</ele>
        <time>2026-01-09T12:22:45.000Z</time>
      </trkpt>
      <trkpt lat="43.52377" lon="6.66157">
        <ele>432.3</ele>
        <time>2026-01-09T12:23:06.000Z</time>
      </trkpt>
      <trkpt lat="43.5238" lon="6.6616">
        <ele>428.4</ele>
        <time>2026-01-09T12:23:16.000Z</time>
      </trkpt>
      <trkpt lat="43.52374" lon="6.66157">
        <ele>426.2</ele>
        <time>2026-01-09T12:23:26.000Z</time>
      </trkpt>
      <trkpt lat="43.5237" lon="6.66157">
        <ele>425.4</ele>
        <time>2026-01-09T12:23:36.000Z</time>
      </trkpt>
      <trkpt lat="43.52368" lon="6.66154">
        <ele>427</ele>
        <time>2026-01-09T12:23:46.000Z</time>
      </trkpt>
      <trkpt lat="43.52365" lon="6.66154">
        <ele>428.5</ele>
        <time>2026-01-09T12:24:00.000Z</time>
      </trkpt>
      <trkpt lat="43.52363" lon="6.66157">
        <ele>428.7</ele>
        <time>2026-01-09T12:24:52.000Z</time>
      </trkpt>
      <trkpt lat="43.52362" lon="6.66158">
        <ele>426.1</ele>
        <time>2026-01-09T12:25:11.000Z</time>
      </trkpt>
      <trkpt lat="43.52361" lon="6.66149">
        <ele>426.5</ele>
        <time>2026-01-09T12:25:21.000Z</time>
      </trkpt>
      <trkpt lat="43.52365" lon="6.66152">
        <ele>423.5</ele>
        <time>2026-01-09T12:25:35.000Z</time>
      </trkpt>
      <trkpt lat="43.52364" lon="6.66149">
        <ele>416.1</ele>
        <time>2026-01-09T12:26:07.000Z</time>
      </trkpt>
      <trkpt lat="43.52367" lon="6.66157">
        <ele>408.3</ele>
        <time>2026-01-09T12:27:54.000Z</time>
      </trkpt>
      <trkpt lat="43.52368" lon="6.66169">
        <ele>402</ele>
        <time>2026-01-09T12:28:04.000Z</time>
      </trkpt>
      <trkpt lat="43.52363" lon="6.66166">
        <ele>408.3</ele>
        <time>2026-01-09T12:28:37.000Z</time>
      </trkpt>
      <trkpt lat="43.52356" lon="6.66164">
        <ele>410.8</ele>
        <time>2026-01-09T12:28:47.000Z</time>
      </trkpt>
      <trkpt lat="43.52354" lon="6.66166">
        <ele>413.5</ele>
        <time>2026-01-09T12:29:06.000Z</time>
      </trkpt>
      <trkpt lat="43.52363" lon="6.66166">
        <ele>411</ele>
        <time>2026-01-09T12:29:16.000Z</time>
      </trkpt>
      <trkpt lat="43.52362" lon="6.66162">
        <ele>404.3</ele>
        <time>2026-01-09T12:29:26.000Z</time>
      </trkpt>
      <trkpt lat="43.52356" lon="6.66158">
        <ele>404.7</ele>
        <time>2026-01-09T12:29:36.000Z</time>
      </trkpt>
      <trkpt lat="43.52353" lon="6.66156">
        <ele>405.9</ele>
        <time>2026-01-09T12:29:46.000Z</time>
      </trkpt>
      <trkpt lat="43.52352" lon="6.66164">
        <ele>402.5</ele>
        <time>2026-01-09T12:29:56.000Z</time>
      </trkpt>
      <trkpt lat="43.52357" lon="6.66155">
        <ele>394.8</ele>
        <time>2026-01-09T12:30:06.000Z</time>
      </trkpt>
      <trkpt lat="43.52353" lon="6.66158">
        <ele>391.1</ele>
        <time>2026-01-09T12:30:28.000Z</time>
      </trkpt>
      <trkpt lat="43.52349" lon="6.66161">
        <ele>394.2</ele>
        <time>2026-01-09T12:30:38.000Z</time>
      </trkpt>
      <trkpt lat="43.52347" lon="6.6616">
        <ele>393.5</ele>
        <time>2026-01-09T12:30:54.000Z</time>
      </trkpt>
      <trkpt lat="43.52349" lon="6.66165">
        <ele>387.9</ele>
        <time>2026-01-09T12:31:04.000Z</time>
      </trkpt>
      <trkpt lat="43.52346" lon="6.66163">
        <ele>386.5</ele>
        <time>2026-01-09T12:31:14.000Z</time>
      </trkpt>
      <trkpt lat="43.52343" lon="6.66162">
        <ele>390.4</ele>
        <time>2026-01-09T12:31:24.000Z</time>
      </trkpt>
      <trkpt lat="43.52321" lon="6.66147">
        <ele>392.4</ele>
        <time>2026-01-09T12:31:34.000Z</time>
      </trkpt>
      <trkpt lat="43.52332" lon="6.66144">
        <ele>378.7</ele>
        <time>2026-01-09T12:31:44.000Z</time>
      </trkpt>
      <trkpt lat="43.52329" lon="6.66148">
        <ele>380.2</ele>
        <time>2026-01-09T12:31:54.000Z</time>
      </trkpt>
      <trkpt lat="43.52332" lon="6.66149">
        <ele>367.9</ele>
        <time>2026-01-09T12:32:16.000Z</time>
      </trkpt>
      <trkpt lat="43.5232" lon="6.66145">
        <ele>371.5</ele>
        <time>2026-01-09T12:32:26.000Z</time>
      </trkpt>
      <trkpt lat="43.52309" lon="6.66147">
        <ele>373.3</ele>
        <time>2026-01-09T12:32:36.000Z</time>
      </trkpt>
      <trkpt lat="43.52301" lon="6.66152">
        <ele>374.4</ele>
        <time>2026-01-09T12:32:46.000Z</time>
      </trkpt>
      <trkpt lat="43.52291" lon="6.66156">
        <ele>377.3</ele>
        <time>2026-01-09T12:32:56.000Z</time>
      </trkpt>
      <trkpt lat="43.52284" lon="6.66167">
        <ele>377.9</ele>
        <time>2026-01-09T12:33:06.000Z</time>
      </trkpt>
      <trkpt lat="43.52277" lon="6.66171">
        <ele>378.1</ele>
        <time>2026-01-09T12:33:16.000Z</time>
      </trkpt>
      <trkpt lat="43.52271" lon="6.66171">
        <ele>379.3</ele>
        <time>2026-01-09T12:33:26.000Z</time>
      </trkpt>
      <trkpt lat="43.52271" lon="6.66164">
        <ele>381.1</ele>
        <time>2026-01-09T12:33:36.000Z</time>
      </trkpt>
      <trkpt lat="43.5227" lon="6.66153">
        <ele>379.8</ele>
        <time>2026-01-09T12:33:46.000Z</time>
      </trkpt>
      <trkpt lat="43.52265" lon="6.66145">
        <ele>381.3</ele>
        <time>2026-01-09T12:33:56.000Z</time>
      </trkpt>
      <trkpt lat="43.52263" lon="6.66137">
        <ele>379.5</ele>
        <time>2026-01-09T12:34:06.000Z</time>
      </trkpt>
      <trkpt lat="43.52256" lon="6.66136">
        <ele>379.5</ele>
        <time>2026-01-09T12:34:16.000Z</time>
      </trkpt>
      <trkpt lat="43.52251" lon="6.66141">
        <ele>378.6</ele>
        <time>2026-01-09T12:34:26.000Z</time>
      </trkpt>
      <trkpt lat="43.52245" lon="6.66146">
        <ele>376.3</ele>
        <time>2026-01-09T12:34:36.000Z</time>
      </trkpt>
      <trkpt lat="43.52242" lon="6.66153">
        <ele>374.4</ele>
        <time>2026-01-09T12:34:46.000Z</time>
      </trkpt>
      <trkpt lat="43.5224" lon="6.66159">
        <ele>372.7</ele>
        <time>2026-01-09T12:35:03.000Z</time>
      </trkpt>
      <trkpt lat="43.52238" lon="6.66163">
        <ele>372.7</ele>
        <time>2026-01-09T12:35:13.000Z</time>
      </trkpt>
      <trkpt lat="43.52237" lon="6.6616">
        <ele>371.4</ele>
        <time>2026-01-09T12:36:07.000Z</time>
      </trkpt>
      <trkpt lat="43.52232" lon="6.66163">
        <ele>371.2</ele>
        <time>2026-01-09T12:36:17.000Z</time>
      </trkpt>
      <trkpt lat="43.52224" lon="6.66164">
        <ele>369</ele>
        <time>2026-01-09T12:36:27.000Z</time>
      </trkpt>
      <trkpt lat="43.52218" lon="6.6616">
        <ele>368.5</ele>
        <time>2026-01-09T12:36:37.000Z</time>
      </trkpt>
      <trkpt lat="43.52213" lon="6.66153">
        <ele>367.1</ele>
        <time>2026-01-09T12:36:47.000Z</time>
      </trkpt>
      <trkpt lat="43.52208" lon="6.66142">
        <ele>365.8</ele>
        <time>2026-01-09T12:36:57.000Z</time>
      </trkpt>
      <trkpt lat="43.52205" lon="6.66127">
        <ele>365.5</ele>
        <time>2026-01-09T12:37:07.000Z</time>
      </trkpt>
      <trkpt lat="43.52203" lon="6.66114">
        <ele>366.3</ele>
        <time>2026-01-09T12:37:17.000Z</time>
      </trkpt>
      <trkpt lat="43.52201" lon="6.661">
        <ele>364</ele>
        <time>2026-01-09T12:37:27.000Z</time>
      </trkpt>
      <trkpt lat="43.52203" lon="6.66084">
        <ele>364.4</ele>
        <time>2026-01-09T12:37:37.000Z</time>
      </trkpt>
      <trkpt lat="43.52205" lon="6.6607">
        <ele>363.4</ele>
        <time>2026-01-09T12:37:47.000Z</time>
      </trkpt>
      <trkpt lat="43.52203" lon="6.66055">
        <ele>361.4</ele>
        <time>2026-01-09T12:37:57.000Z</time>
      </trkpt>
      <trkpt lat="43.52199" lon="6.66041">
        <ele>360.1</ele>
        <time>2026-01-09T12:38:07.000Z</time>
      </trkpt>
      <trkpt lat="43.52192" lon="6.66032">
        <ele>360</ele>
        <time>2026-01-09T12:38:17.000Z</time>
      </trkpt>
      <trkpt lat="43.52182" lon="6.6603">
        <ele>359.5</ele>
        <time>2026-01-09T12:38:27.000Z</time>
      </trkpt>
      <trkpt lat="43.52173" lon="6.66035">
        <ele>357.6</ele>
        <time>2026-01-09T12:38:37.000Z</time>
      </trkpt>
      <trkpt lat="43.52164" lon="6.66042">
        <ele>356.9</ele>
        <time>2026-01-09T12:38:47.000Z</time>
      </trkpt>
      <trkpt lat="43.52158" lon="6.66053">
        <ele>355.1</ele>
        <time>2026-01-09T12:38:57.000Z</time>
      </trkpt>
      <trkpt lat="43.52151" lon="6.66064">
        <ele>353.4</ele>
        <time>2026-01-09T12:39:07.000Z</time>
      </trkpt>
      <trkpt lat="43.52144" lon="6.66073">
        <ele>352.9</ele>
        <time>2026-01-09T12:39:17.000Z</time>
      </trkpt>
      <trkpt lat="43.52138" lon="6.66084">
        <ele>352.9</ele>
        <time>2026-01-09T12:39:27.000Z</time>
      </trkpt>
      <trkpt lat="43.52129" lon="6.66093">
        <ele>350.9</ele>
        <time>2026-01-09T12:39:37.000Z</time>
      </trkpt>
      <trkpt lat="43.52121" lon="6.66103">
        <ele>353</ele>
        <time>2026-01-09T12:39:47.000Z</time>
      </trkpt>
      <trkpt lat="43.52115" lon="6.66114">
        <ele>353.6</ele>
        <time>2026-01-09T12:39:57.000Z</time>
      </trkpt>
      <trkpt lat="43.52107" lon="6.66125">
        <ele>349.3</ele>
        <time>2026-01-09T12:40:07.000Z</time>
      </trkpt>
      <trkpt lat="43.52099" lon="6.66135">
        <ele>344.1</ele>
        <time>2026-01-09T12:40:17.000Z</time>
      </trkpt>
      <trkpt lat="43.52092" lon="6.66145">
        <ele>344.9</ele>
        <time>2026-01-09T12:40:27.000Z</time>
      </trkpt>
      <trkpt lat="43.52086" lon="6.66156">
        <ele>344.7</ele>
        <time>2026-01-09T12:40:37.000Z</time>
      </trkpt>
      <trkpt lat="43.52077" lon="6.66158">
        <ele>342.5</ele>
        <time>2026-01-09T12:40:47.000Z</time>
      </trkpt>
      <trkpt lat="43.52074" lon="6.66147">
        <ele>343.3</ele>
        <time>2026-01-09T12:40:57.000Z</time>
      </trkpt>
      <trkpt lat="43.52076" lon="6.66134">
        <ele>343.6</ele>
        <time>2026-01-09T12:41:07.000Z</time>
      </trkpt>
      <trkpt lat="43.5207" lon="6.66124">
        <ele>345.5</ele>
        <time>2026-01-09T12:41:17.000Z</time>
      </trkpt>
      <trkpt lat="43.52066" lon="6.6611">
        <ele>348</ele>
        <time>2026-01-09T12:41:27.000Z</time>
      </trkpt>
      <trkpt lat="43.52061" lon="6.66101">
        <ele>345.6</ele>
        <time>2026-01-09T12:41:37.000Z</time>
      </trkpt>
      <trkpt lat="43.52056" lon="6.66092">
        <ele>343</ele>
        <time>2026-01-09T12:41:47.000Z</time>
      </trkpt>
      <trkpt lat="43.5205" lon="6.66083">
        <ele>340.6</ele>
        <time>2026-01-09T12:41:57.000Z</time>
      </trkpt>
      <trkpt lat="43.52043" lon="6.66074">
        <ele>336.3</ele>
        <time>2026-01-09T12:42:07.000Z</time>
      </trkpt>
      <trkpt lat="43.52041" lon="6.66065">
        <ele>334.6</ele>
        <time>2026-01-09T12:42:17.000Z</time>
      </trkpt>
      <trkpt lat="43.52035" lon="6.66054">
        <ele>332.8</ele>
        <time>2026-01-09T12:42:27.000Z</time>
      </trkpt>
      <trkpt lat="43.52023" lon="6.66045">
        <ele>334.3</ele>
        <time>2026-01-09T12:42:37.000Z</time>
      </trkpt>
      <trkpt lat="43.52012" lon="6.66046">
        <ele>329.8</ele>
        <time>2026-01-09T12:42:47.000Z</time>
      </trkpt>
      <trkpt lat="43.51997" lon="6.6604">
        <ele>331.4</ele>
        <time>2026-01-09T12:42:57.000Z</time>
      </trkpt>
      <trkpt lat="43.51984" lon="6.66037">
        <ele>330.2</ele>
        <time>2026-01-09T12:43:07.000Z</time>
      </trkpt>
      <trkpt lat="43.51971" lon="6.66032">
        <ele>328.9</ele>
        <time>2026-01-09T12:43:17.000Z</time>
      </trkpt>
      <trkpt lat="43.51959" lon="6.66024">
        <ele>330.8</ele>
        <time>2026-01-09T12:43:27.000Z</time>
      </trkpt>
      <trkpt lat="43.51958" lon="6.66011">
        <ele>331.3</ele>
        <time>2026-01-09T12:43:37.000Z</time>
      </trkpt>
      <trkpt lat="43.51959" lon="6.65996">
        <ele>330.7</ele>
        <time>2026-01-09T12:43:47.000Z</time>
      </trkpt>
      <trkpt lat="43.51957" lon="6.65981">
        <ele>332.7</ele>
        <time>2026-01-09T12:43:57.000Z</time>
      </trkpt>
      <trkpt lat="43.51957" lon="6.65967">
        <ele>333.4</ele>
        <time>2026-01-09T12:44:07.000Z</time>
      </trkpt>
      <trkpt lat="43.51955" lon="6.65952">
        <ele>330.3</ele>
        <time>2026-01-09T12:44:17.000Z</time>
      </trkpt>
      <trkpt lat="43.51954" lon="6.65937">
        <ele>327.9</ele>
        <time>2026-01-09T12:44:27.000Z</time>
      </trkpt>
      <trkpt lat="43.51952" lon="6.65923">
        <ele>325.8</ele>
        <time>2026-01-09T12:44:37.000Z</time>
      </trkpt>
      <trkpt lat="43.51951" lon="6.65909">
        <ele>325.5</ele>
        <time>2026-01-09T12:44:47.000Z</time>
      </trkpt>
      <trkpt lat="43.51949" lon="6.65896">
        <ele>325.4</ele>
        <time>2026-01-09T12:44:57.000Z</time>
      </trkpt>
      <trkpt lat="43.51949" lon="6.65884">
        <ele>323.4</ele>
        <time>2026-01-09T12:45:07.000Z</time>
      </trkpt>
      <trkpt lat="43.5195" lon="6.65871">
        <ele>320.6</ele>
        <time>2026-01-09T12:45:17.000Z</time>
      </trkpt>
      <trkpt lat="43.5195" lon="6.65858">
        <ele>317.9</ele>
        <time>2026-01-09T12:45:27.000Z</time>
      </trkpt>
      <trkpt lat="43.51948" lon="6.65847">
        <ele>319.5</ele>
        <time>2026-01-09T12:45:37.000Z</time>
      </trkpt>
      <trkpt lat="43.51945" lon="6.6584">
        <ele>320.4</ele>
        <time>2026-01-09T12:45:47.000Z</time>
      </trkpt>
      <trkpt lat="43.51943" lon="6.65837">
        <ele>319.2</ele>
        <time>2026-01-09T12:45:57.000Z</time>
      </trkpt>
      <trkpt lat="43.51941" lon="6.65836">
        <ele>316.3</ele>
        <time>2026-01-09T12:46:23.000Z</time>
      </trkpt>
      <trkpt lat="43.51941" lon="6.65843">
        <ele>312.5</ele>
        <time>2026-01-09T12:47:06.000Z</time>
      </trkpt>
      <trkpt lat="43.51944" lon="6.65844">
        <ele>311.5</ele>
        <time>2026-01-09T12:47:16.000Z</time>
      </trkpt>
      <trkpt lat="43.51945" lon="6.65846">
        <ele>311.2</ele>
        <time>2026-01-09T12:48:05.000Z</time>
      </trkpt>
      <trkpt lat="43.51952" lon="6.65849">
        <ele>315.5</ele>
        <time>2026-01-09T12:49:48.000Z</time>
      </trkpt>
      <trkpt lat="43.51957" lon="6.65847">
        <ele>315.9</ele>
        <time>2026-01-09T12:49:58.000Z</time>
      </trkpt>
      <trkpt lat="43.51963" lon="6.65848">
        <ele>316.1</ele>
        <time>2026-01-09T12:50:08.000Z</time>
      </trkpt>
      <trkpt lat="43.51965" lon="6.65848">
        <ele>314.6</ele>
        <time>2026-01-09T12:50:35.000Z</time>
      </trkpt>
      <trkpt lat="43.51972" lon="6.65839">
        <ele>314.3</ele>
        <time>2026-01-09T12:50:45.000Z</time>
      </trkpt>
      <trkpt lat="43.51983" lon="6.65833">
        <ele>314.4</ele>
        <time>2026-01-09T12:50:55.000Z</time>
      </trkpt>
      <trkpt lat="43.51993" lon="6.6583">
        <ele>313.2</ele>
        <time>2026-01-09T12:51:05.000Z</time>
      </trkpt>
      <trkpt lat="43.51999" lon="6.6583">
        <ele>314.3</ele>
        <time>2026-01-09T12:51:15.000Z</time>
      </trkpt>
      <trkpt lat="43.52" lon="6.65826">
        <ele>314.1</ele>
        <time>2026-01-09T12:51:25.000Z</time>
      </trkpt>
      <trkpt lat="43.52003" lon="6.65824">
        <ele>314</ele>
        <time>2026-01-09T12:51:40.000Z</time>
      </trkpt>
      <trkpt lat="43.52005" lon="6.65819">
        <ele>314.7</ele>
        <time>2026-01-09T12:51:50.000Z</time>
      </trkpt>
      <trkpt lat="43.52002" lon="6.65818">
        <ele>313.1</ele>
        <time>2026-01-09T12:52:00.000Z</time>
      </trkpt>
      <trkpt lat="43.52001" lon="6.65819">
        <ele>311</ele>
        <time>2026-01-09T12:52:36.000Z</time>
      </trkpt>
      <trkpt lat="43.51997" lon="6.65822">
        <ele>315.8</ele>
        <time>2026-01-09T12:53:14.000Z</time>
      </trkpt>
      <trkpt lat="43.51997" lon="6.65823">
        <ele>313.8</ele>
        <time>2026-01-09T12:53:24.000Z</time>
      </trkpt>
      <trkpt lat="43.52008" lon="6.65823">
        <ele>311.8</ele>
        <time>2026-01-09T12:53:34.000Z</time>
      </trkpt>
      <trkpt lat="43.5202" lon="6.65828">
        <ele>312.8</ele>
        <time>2026-01-09T12:53:44.000Z</time>
      </trkpt>
      <trkpt lat="43.52032" lon="6.65834">
        <ele>315.3</ele>
        <time>2026-01-09T12:53:54.000Z</time>
      </trkpt>
      <trkpt lat="43.52044" lon="6.6584">
        <ele>316.2</ele>
        <time>2026-01-09T12:54:04.000Z</time>
      </trkpt>
      <trkpt lat="43.52056" lon="6.65844">
        <ele>317.4</ele>
        <time>2026-01-09T12:54:14.000Z</time>
      </trkpt>
      <trkpt lat="43.52069" lon="6.6585">
        <ele>317.9</ele>
        <time>2026-01-09T12:54:24.000Z</time>
      </trkpt>
      <trkpt lat="43.5208" lon="6.65854">
        <ele>316.5</ele>
        <time>2026-01-09T12:54:34.000Z</time>
      </trkpt>
      <trkpt lat="43.52093" lon="6.65853">
        <ele>315</ele>
        <time>2026-01-09T12:54:44.000Z</time>
      </trkpt>
      <trkpt lat="43.52104" lon="6.65853">
        <ele>311.6</ele>
        <time>2026-01-09T12:54:54.000Z</time>
      </trkpt>
      <trkpt lat="43.52117" lon="6.65849">
        <ele>310.5</ele>
        <time>2026-01-09T12:55:04.000Z</time>
      </trkpt>
      <trkpt lat="43.52128" lon="6.65843">
        <ele>310.8</ele>
        <time>2026-01-09T12:55:14.000Z</time>
      </trkpt>
      <trkpt lat="43.52138" lon="6.65838">
        <ele>309.6</ele>
        <time>2026-01-09T12:55:24.000Z</time>
      </trkpt>
      <trkpt lat="43.52148" lon="6.65832">
        <ele>309.2</ele>
        <time>2026-01-09T12:55:34.000Z</time>
      </trkpt>
      <trkpt lat="43.52157" lon="6.65824">
        <ele>308.1</ele>
        <time>2026-01-09T12:55:44.000Z</time>
      </trkpt>
      <trkpt lat="43.52163" lon="6.65816">
        <ele>307.6</ele>
        <time>2026-01-09T12:55:54.000Z</time>
      </trkpt>
      <trkpt lat="43.52165" lon="6.65813">
        <ele>307.1</ele>
        <time>2026-01-09T12:56:04.000Z</time>
      </trkpt>
      <trkpt lat="43.52167" lon="6.65812">
        <ele>307</ele>
        <time>2026-01-09T12:56:19.000Z</time>
      </trkpt>
      <trkpt lat="43.52172" lon="6.65806">
        <ele>307</ele>
        <time>2026-01-09T12:56:29.000Z</time>
      </trkpt>
      <trkpt lat="43.52175" lon="6.65797">
        <ele>304.3</ele>
        <time>2026-01-09T12:56:39.000Z</time>
      </trkpt>
      <trkpt lat="43.52175" lon="6.65788">
        <ele>307.2</ele>
        <time>2026-01-09T12:56:49.000Z</time>
      </trkpt>
      <trkpt lat="43.52173" lon="6.65789">
        <ele>306.8</ele>
        <time>2026-01-09T12:58:19.000Z</time>
      </trkpt>
      <trkpt lat="43.52171" lon="6.65786">
        <ele>306.7</ele>
        <time>2026-01-09T12:58:29.000Z</time>
      </trkpt>
      <trkpt lat="43.5217" lon="6.6579">
        <ele>303.6</ele>
        <time>2026-01-09T12:58:39.000Z</time>
      </trkpt>
      <trkpt lat="43.52171" lon="6.6579">
        <ele>304.4</ele>
        <time>2026-01-09T12:59:10.000Z</time>
      </trkpt>
      <trkpt lat="43.52172" lon="6.65793">
        <ele>302.7</ele>
        <time>2026-01-09T13:00:20.000Z</time>
      </trkpt>
      <trkpt lat="43.52181" lon="6.65789">
        <ele>301.3</ele>
        <time>2026-01-09T13:00:30.000Z</time>
      </trkpt>
      <trkpt lat="43.52187" lon="6.65783">
        <ele>299.3</ele>
        <time>2026-01-09T13:00:40.000Z</time>
      </trkpt>
      <trkpt lat="43.52193" lon="6.65778">
        <ele>298.6</ele>
        <time>2026-01-09T13:00:50.000Z</time>
      </trkpt>
      <trkpt lat="43.522" lon="6.65771">
        <ele>296.2</ele>
        <time>2026-01-09T13:01:00.000Z</time>
      </trkpt>
      <trkpt lat="43.52208" lon="6.65766">
        <ele>294.6</ele>
        <time>2026-01-09T13:01:10.000Z</time>
      </trkpt>
      <trkpt lat="43.52217" lon="6.6576">
        <ele>293.6</ele>
        <time>2026-01-09T13:01:20.000Z</time>
      </trkpt>
      <trkpt lat="43.52224" lon="6.65752">
        <ele>292.6</ele>
        <time>2026-01-09T13:01:30.000Z</time>
      </trkpt>
      <trkpt lat="43.52233" lon="6.65743">
        <ele>292.5</ele>
        <time>2026-01-09T13:01:40.000Z</time>
      </trkpt>
      <trkpt lat="43.5224" lon="6.65734">
        <ele>291.4</ele>
        <time>2026-01-09T13:01:50.000Z</time>
      </trkpt>
      <trkpt lat="43.52249" lon="6.65727">
        <ele>289.6</ele>
        <time>2026-01-09T13:02:00.000Z</time>
      </trkpt>
      <trkpt lat="43.52256" lon="6.65719">
        <ele>288.3</ele>
        <time>2026-01-09T13:02:10.000Z</time>
      </trkpt>
      <trkpt lat="43.52264" lon="6.65711">
        <ele>288.1</ele>
        <time>2026-01-09T13:02:20.000Z</time>
      </trkpt>
      <trkpt lat="43.52271" lon="6.65704">
        <ele>287.5</ele>
        <time>2026-01-09T13:02:30.000Z</time>
      </trkpt>
      <trkpt lat="43.52279" lon="6.65697">
        <ele>286.2</ele>
        <time>2026-01-09T13:02:40.000Z</time>
      </trkpt>
      <trkpt lat="43.52287" lon="6.65689">
        <ele>285.1</ele>
        <time>2026-01-09T13:02:50.000Z</time>
      </trkpt>
      <trkpt lat="43.52295" lon="6.6568">
        <ele>284.8</ele>
        <time>2026-01-09T13:03:00.000Z</time>
      </trkpt>
      <trkpt lat="43.52302" lon="6.6567">
        <ele>283.1</ele>
        <time>2026-01-09T13:03:10.000Z</time>
      </trkpt>
      <trkpt lat="43.52306" lon="6.65657">
        <ele>281.8</ele>
        <time>2026-01-09T13:03:20.000Z</time>
      </trkpt>
      <trkpt lat="43.5231" lon="6.65644">
        <ele>280.4</ele>
        <time>2026-01-09T13:03:30.000Z</time>
      </trkpt>
      <trkpt lat="43.52313" lon="6.6563">
        <ele>278.9</ele>
        <time>2026-01-09T13:03:40.000Z</time>
      </trkpt>
      <trkpt lat="43.52318" lon="6.65619">
        <ele>279</ele>
        <time>2026-01-09T13:03:50.000Z</time>
      </trkpt>
      <trkpt lat="43.52324" lon="6.65608">
        <ele>277.6</ele>
        <time>2026-01-09T13:04:00.000Z</time>
      </trkpt>
      <trkpt lat="43.5233" lon="6.65597">
        <ele>275.9</ele>
        <time>2026-01-09T13:04:10.000Z</time>
      </trkpt>
      <trkpt lat="43.52335" lon="6.65586">
        <ele>274.1</ele>
        <time>2026-01-09T13:04:20.000Z</time>
      </trkpt>
      <trkpt lat="43.52339" lon="6.65574">
        <ele>273.6</ele>
        <time>2026-01-09T13:04:30.000Z</time>
      </trkpt>
      <trkpt lat="43.52339" lon="6.6556">
        <ele>272.3</ele>
        <time>2026-01-09T13:04:40.000Z</time>
      </trkpt>
      <trkpt lat="43.52333" lon="6.65548">
        <ele>273.1</ele>
        <time>2026-01-09T13:04:50.000Z</time>
      </trkpt>
      <trkpt lat="43.52324" lon="6.65543">
        <ele>273.7</ele>
        <time>2026-01-09T13:05:00.000Z</time>
      </trkpt>
      <trkpt lat="43.52315" lon="6.65542">
        <ele>273.9</ele>
        <time>2026-01-09T13:05:10.000Z</time>
      </trkpt>
      <trkpt lat="43.52305" lon="6.65539">
        <ele>274</ele>
        <time>2026-01-09T13:05:20.000Z</time>
      </trkpt>
      <trkpt lat="43.52296" lon="6.65534">
        <ele>274.4</ele>
        <time>2026-01-09T13:05:30.000Z</time>
      </trkpt>
      <trkpt lat="43.52287" lon="6.65528">
        <ele>271.5</ele>
        <time>2026-01-09T13:05:40.000Z</time>
      </trkpt>
      <trkpt lat="43.52277" lon="6.65525">
        <ele>271.9</ele>
        <time>2026-01-09T13:05:50.000Z</time>
      </trkpt>
      <trkpt lat="43.52267" lon="6.65528">
        <ele>270.3</ele>
        <time>2026-01-09T13:06:00.000Z</time>
      </trkpt>
      <trkpt lat="43.52256" lon="6.65527">
        <ele>271.2</ele>
        <time>2026-01-09T13:06:10.000Z</time>
      </trkpt>
      <trkpt lat="43.52246" lon="6.65525">
        <ele>271.6</ele>
        <time>2026-01-09T13:06:20.000Z</time>
      </trkpt>
      <trkpt lat="43.52236" lon="6.65521">
        <ele>270.7</ele>
        <time>2026-01-09T13:06:30.000Z</time>
      </trkpt>
      <trkpt lat="43.52226" lon="6.65518">
        <ele>271.3</ele>
        <time>2026-01-09T13:06:40.000Z</time>
      </trkpt>
      <trkpt lat="43.52217" lon="6.65513">
        <ele>275.5</ele>
        <time>2026-01-09T13:06:50.000Z</time>
      </trkpt>
      <trkpt lat="43.52209" lon="6.65509">
        <ele>273.3</ele>
        <time>2026-01-09T13:07:00.000Z</time>
      </trkpt>
      <trkpt lat="43.52205" lon="6.65511">
        <ele>271.2</ele>
        <time>2026-01-09T13:07:10.000Z</time>
      </trkpt>
      <trkpt lat="43.522" lon="6.65502">
        <ele>272.5</ele>
        <time>2026-01-09T13:07:20.000Z</time>
      </trkpt>
      <trkpt lat="43.52202" lon="6.65497">
        <ele>270.6</ele>
        <time>2026-01-09T13:07:30.000Z</time>
      </trkpt>
      <trkpt lat="43.52194" lon="6.65495">
        <ele>268.2</ele>
        <time>2026-01-09T13:07:40.000Z</time>
      </trkpt>
      <trkpt lat="43.52185" lon="6.65493">
        <ele>268.6</ele>
        <time>2026-01-09T13:07:50.000Z</time>
      </trkpt>
      <trkpt lat="43.52178" lon="6.65485">
        <ele>268</ele>
        <time>2026-01-09T13:08:00.000Z</time>
      </trkpt>
      <trkpt lat="43.5217" lon="6.65479">
        <ele>268.4</ele>
        <time>2026-01-09T13:08:10.000Z</time>
      </trkpt>
      <trkpt lat="43.52161" lon="6.65476">
        <ele>267.9</ele>
        <time>2026-01-09T13:08:20.000Z</time>
      </trkpt>
      <trkpt lat="43.52151" lon="6.65474">
        <ele>266.6</ele>
        <time>2026-01-09T13:08:30.000Z</time>
      </trkpt>
      <trkpt lat="43.52143" lon="6.65479">
        <ele>268.3</ele>
        <time>2026-01-09T13:08:40.000Z</time>
      </trkpt>
      <trkpt lat="43.52135" lon="6.65476">
        <ele>270.7</ele>
        <time>2026-01-09T13:08:50.000Z</time>
      </trkpt>
      <trkpt lat="43.5213" lon="6.65467">
        <ele>270.2</ele>
        <time>2026-01-09T13:09:00.000Z</time>
      </trkpt>
      <trkpt lat="43.52123" lon="6.65458">
        <ele>267.8</ele>
        <time>2026-01-09T13:09:10.000Z</time>
      </trkpt>
      <trkpt lat="43.52117" lon="6.65453">
        <ele>269.1</ele>
        <time>2026-01-09T13:09:20.000Z</time>
      </trkpt>
      <trkpt lat="43.5211" lon="6.65447">
        <ele>272.1</ele>
        <time>2026-01-09T13:09:30.000Z</time>
      </trkpt>
      <trkpt lat="43.52107" lon="6.65437">
        <ele>271.6</ele>
        <time>2026-01-09T13:09:40.000Z</time>
      </trkpt>
      <trkpt lat="43.52103" lon="6.65429">
        <ele>270.5</ele>
        <time>2026-01-09T13:09:50.000Z</time>
      </trkpt>
      <trkpt lat="43.52097" lon="6.65422">
        <ele>272.6</ele>
        <time>2026-01-09T13:10:00.000Z</time>
      </trkpt>
      <trkpt lat="43.52096" lon="6.65413">
        <ele>273.1</ele>
        <time>2026-01-09T13:10:10.000Z</time>
      </trkpt>
      <trkpt lat="43.52092" lon="6.65407">
        <ele>272.7</ele>
        <time>2026-01-09T13:10:20.000Z</time>
      </trkpt>
      <trkpt lat="43.52087" lon="6.6542">
        <ele>267.5</ele>
        <time>2026-01-09T13:10:30.000Z</time>
      </trkpt>
      <trkpt lat="43.52087" lon="6.65432">
        <ele>264.1</ele>
        <time>2026-01-09T13:10:40.000Z</time>
      </trkpt>
      <trkpt lat="43.52086" lon="6.65444">
        <ele>264</ele>
        <time>2026-01-09T13:10:50.000Z</time>
      </trkpt>
      <trkpt lat="43.52083" lon="6.65452">
        <ele>264</ele>
        <time>2026-01-09T13:11:00.000Z</time>
      </trkpt>
      <trkpt lat="43.52079" lon="6.65451">
        <ele>259.8</ele>
        <time>2026-01-09T13:11:10.000Z</time>
      </trkpt>
      <trkpt lat="43.52076" lon="6.65451">
        <ele>259.8</ele>
        <time>2026-01-09T13:11:20.000Z</time>
      </trkpt>
      <trkpt lat="43.52074" lon="6.65453">
        <ele>258.9</ele>
        <time>2026-01-09T13:11:30.000Z</time>
      </trkpt>
      <trkpt lat="43.52067" lon="6.65452">
        <ele>254.2</ele>
        <time>2026-01-09T13:11:52.000Z</time>
      </trkpt>
      <trkpt lat="43.52063" lon="6.65445">
        <ele>252.6</ele>
        <time>2026-01-09T13:12:02.000Z</time>
      </trkpt>
      <trkpt lat="43.5206" lon="6.65443">
        <ele>251.2</ele>
        <time>2026-01-09T13:12:12.000Z</time>
      </trkpt>
      <trkpt lat="43.5206" lon="6.65439">
        <ele>250.8</ele>
        <time>2026-01-09T13:12:22.000Z</time>
      </trkpt>
      <trkpt lat="43.52057" lon="6.65433">
        <ele>254.6</ele>
        <time>2026-01-09T13:13:15.000Z</time>
      </trkpt>
      <trkpt lat="43.52059" lon="6.65435">
        <ele>253.3</ele>
        <time>2026-01-09T13:13:45.000Z</time>
      </trkpt>
      <trkpt lat="43.52054" lon="6.65448">
        <ele>245.9</ele>
        <time>2026-01-09T13:13:55.000Z</time>
      </trkpt>
      <trkpt lat="43.52051" lon="6.65458">
        <ele>244</ele>
        <time>2026-01-09T13:14:05.000Z</time>
      </trkpt>
      <trkpt lat="43.52047" lon="6.65452">
        <ele>242.8</ele>
        <time>2026-01-09T13:14:15.000Z</time>
      </trkpt>
      <trkpt lat="43.52044" lon="6.65441">
        <ele>243.5</ele>
        <time>2026-01-09T13:14:25.000Z</time>
      </trkpt>
      <trkpt lat="43.52041" lon="6.65432">
        <ele>247.4</ele>
        <time>2026-01-09T13:14:35.000Z</time>
      </trkpt>
      <trkpt lat="43.52037" lon="6.65429">
        <ele>246.5</ele>
        <time>2026-01-09T13:14:45.000Z</time>
      </trkpt>
      <trkpt lat="43.52034" lon="6.65433">
        <ele>245.2</ele>
        <time>2026-01-09T13:14:55.000Z</time>
      </trkpt>
      <trkpt lat="43.52025" lon="6.65439">
        <ele>244.1</ele>
        <time>2026-01-09T13:15:05.000Z</time>
      </trkpt>
      <trkpt lat="43.52018" lon="6.65443">
        <ele>244.3</ele>
        <time>2026-01-09T13:15:15.000Z</time>
      </trkpt>
      <trkpt lat="43.52014" lon="6.65443">
        <ele>243.2</ele>
        <time>2026-01-09T13:15:25.000Z</time>
      </trkpt>
      <trkpt lat="43.52009" lon="6.65446">
        <ele>238.7</ele>
        <time>2026-01-09T13:15:35.000Z</time>
      </trkpt>
      <trkpt lat="43.52005" lon="6.65438">
        <ele>235.6</ele>
        <time>2026-01-09T13:15:45.000Z</time>
      </trkpt>
      <trkpt lat="43.52007" lon="6.65426">
        <ele>236.3</ele>
        <time>2026-01-09T13:15:55.000Z</time>
      </trkpt>
      <trkpt lat="43.52009" lon="6.65424">
        <ele>236.1</ele>
        <time>2026-01-09T13:16:19.000Z</time>
      </trkpt>
      <trkpt lat="43.52012" lon="6.65422">
        <ele>236.4</ele>
        <time>2026-01-09T13:16:29.000Z</time>
      </trkpt>
      <trkpt lat="43.52014" lon="6.65422">
        <ele>234.8</ele>
        <time>2026-01-09T13:17:21.000Z</time>
      </trkpt>
      <trkpt lat="43.52007" lon="6.65423">
        <ele>232.4</ele>
        <time>2026-01-09T13:17:31.000Z</time>
      </trkpt>
      <trkpt lat="43.51999" lon="6.65419">
        <ele>229.4</ele>
        <time>2026-01-09T13:17:41.000Z</time>
      </trkpt>
      <trkpt lat="43.51993" lon="6.65425">
        <ele>230</ele>
        <time>2026-01-09T13:17:51.000Z</time>
      </trkpt>
      <trkpt lat="43.51987" lon="6.65425">
        <ele>227.6</ele>
        <time>2026-01-09T13:18:01.000Z</time>
      </trkpt>
      <trkpt lat="43.51986" lon="6.65426">
        <ele>223.9</ele>
        <time>2026-01-09T13:18:11.000Z</time>
      </trkpt>
      <trkpt lat="43.51981" lon="6.65435">
        <ele>226.6</ele>
        <time>2026-01-09T13:18:21.000Z</time>
      </trkpt>
      <trkpt lat="43.51977" lon="6.65441">
        <ele>223.6</ele>
        <time>2026-01-09T13:18:31.000Z</time>
      </trkpt>
      <trkpt lat="43.51972" lon="6.65444">
        <ele>221.7</ele>
        <time>2026-01-09T13:18:41.000Z</time>
      </trkpt>
      <trkpt lat="43.51967" lon="6.65445">
        <ele>216.1</ele>
        <time>2026-01-09T13:18:51.000Z</time>
      </trkpt>
      <trkpt lat="43.51962" lon="6.65443">
        <ele>214.7</ele>
        <time>2026-01-09T13:19:01.000Z</time>
      </trkpt>
      <trkpt lat="43.51955" lon="6.65443">
        <ele>211.5</ele>
        <time>2026-01-09T13:19:11.000Z</time>
      </trkpt>
      <trkpt lat="43.51947" lon="6.6544">
        <ele>211.1</ele>
        <time>2026-01-09T13:19:21.000Z</time>
      </trkpt>
      <trkpt lat="43.51939" lon="6.65442">
        <ele>213.1</ele>
        <time>2026-01-09T13:19:31.000Z</time>
      </trkpt>
      <trkpt lat="43.51934" lon="6.65455">
        <ele>215.5</ele>
        <time>2026-01-09T13:19:41.000Z</time>
      </trkpt>
      <trkpt lat="43.51928" lon="6.65461">
        <ele>217</ele>
        <time>2026-01-09T13:19:51.000Z</time>
      </trkpt>
      <trkpt lat="43.51924" lon="6.65463">
        <ele>217.1</ele>
        <time>2026-01-09T13:20:01.000Z</time>
      </trkpt>
      <trkpt lat="43.5192" lon="6.65466">
        <ele>216.3</ele>
        <time>2026-01-09T13:20:11.000Z</time>
      </trkpt>
      <trkpt lat="43.51915" lon="6.65467">
        <ele>212.7</ele>
        <time>2026-01-09T13:20:21.000Z</time>
      </trkpt>
      <trkpt lat="43.51907" lon="6.6547">
        <ele>211.1</ele>
        <time>2026-01-09T13:20:31.000Z</time>
      </trkpt>
      <trkpt lat="43.51902" lon="6.6547">
        <ele>207.7</ele>
        <time>2026-01-09T13:20:41.000Z</time>
      </trkpt>
      <trkpt lat="43.51903" lon="6.65485">
        <ele>214</ele>
        <time>2026-01-09T13:20:51.000Z</time>
      </trkpt>
      <trkpt lat="43.51899" lon="6.65493">
        <ele>216.9</ele>
        <time>2026-01-09T13:21:01.000Z</time>
      </trkpt>
      <trkpt lat="43.51894" lon="6.65497">
        <ele>217.7</ele>
        <time>2026-01-09T13:21:11.000Z</time>
      </trkpt>
      <trkpt lat="43.51892" lon="6.65508">
        <ele>216.1</ele>
        <time>2026-01-09T13:21:21.000Z</time>
      </trkpt>
      <trkpt lat="43.51888" lon="6.65508">
        <ele>213.5</ele>
        <time>2026-01-09T13:21:36.000Z</time>
      </trkpt>
      <trkpt lat="43.51887" lon="6.65505">
        <ele>208.9</ele>
        <time>2026-01-09T13:21:46.000Z</time>
      </trkpt>
      <trkpt lat="43.51888" lon="6.65492">
        <ele>199.3</ele>
        <time>2026-01-09T13:21:56.000Z</time>
      </trkpt>
      <trkpt lat="43.51886" lon="6.65482">
        <ele>197.8</ele>
        <time>2026-01-09T13:22:06.000Z</time>
      </trkpt>
      <trkpt lat="43.51883" lon="6.6548">
        <ele>193</ele>
        <time>2026-01-09T13:22:20.000Z</time>
      </trkpt>
      <trkpt lat="43.51882" lon="6.65481">
        <ele>187</ele>
        <time>2026-01-09T13:22:30.000Z</time>
      </trkpt>
      <trkpt lat="43.51882" lon="6.65482">
        <ele>189.3</ele>
        <time>2026-01-09T13:23:00.000Z</time>
      </trkpt>
      <trkpt lat="43.51885" lon="6.65479">
        <ele>188</ele>
        <time>2026-01-09T13:23:10.000Z</time>
      </trkpt>
      <trkpt lat="43.51887" lon="6.65478">
        <ele>187.8</ele>
        <time>2026-01-09T13:23:28.000Z</time>
      </trkpt>
      <trkpt lat="43.51889" lon="6.65478">
        <ele>185</ele>
        <time>2026-01-09T13:23:38.000Z</time>
      </trkpt>
      <trkpt lat="43.51886" lon="6.65482">
        <ele>184.4</ele>
        <time>2026-01-09T13:23:48.000Z</time>
      </trkpt>
      <trkpt lat="43.51881" lon="6.6548">
        <ele>184.3</ele>
        <time>2026-01-09T13:23:58.000Z</time>
      </trkpt>
      <trkpt lat="43.51884" lon="6.6549">
        <ele>188</ele>
        <time>2026-01-09T13:24:08.000Z</time>
      </trkpt>
      <trkpt lat="43.51879" lon="6.65498">
        <ele>189.6</ele>
        <time>2026-01-09T13:24:18.000Z</time>
      </trkpt>
      <trkpt lat="43.51872" lon="6.65499">
        <ele>197.6</ele>
        <time>2026-01-09T13:24:28.000Z</time>
      </trkpt>
      <trkpt lat="43.51868" lon="6.65499">
        <ele>199.6</ele>
        <time>2026-01-09T13:24:38.000Z</time>
      </trkpt>
      <trkpt lat="43.51869" lon="6.65503">
        <ele>199.3</ele>
        <time>2026-01-09T13:24:48.000Z</time>
      </trkpt>
      <trkpt lat="43.51869" lon="6.65502">
        <ele>199.2</ele>
        <time>2026-01-09T13:25:02.000Z</time>
      </trkpt>
      <trkpt lat="43.5186" lon="6.65499">
        <ele>201.6</ele>
        <time>2026-01-09T13:25:12.000Z</time>
      </trkpt>
      <trkpt lat="43.51856" lon="6.655">
        <ele>203.3</ele>
        <time>2026-01-09T13:25:22.000Z</time>
      </trkpt>
      <trkpt lat="43.51853" lon="6.65499">
        <ele>202.6</ele>
        <time>2026-01-09T13:25:32.000Z</time>
      </trkpt>
      <trkpt lat="43.51847" lon="6.65495">
        <ele>200.8</ele>
        <time>2026-01-09T13:25:42.000Z</time>
      </trkpt>
      <trkpt lat="43.51839" lon="6.65498">
        <ele>202.1</ele>
        <time>2026-01-09T13:25:52.000Z</time>
      </trkpt>
      <trkpt lat="43.51827" lon="6.65497">
        <ele>202.8</ele>
        <time>2026-01-09T13:26:02.000Z</time>
      </trkpt>
      <trkpt lat="43.51816" lon="6.65496">
        <ele>203.3</ele>
        <time>2026-01-09T13:26:12.000Z</time>
      </trkpt>
      <trkpt lat="43.51807" lon="6.65498">
        <ele>204.3</ele>
        <time>2026-01-09T13:26:22.000Z</time>
      </trkpt>
      <trkpt lat="43.51807" lon="6.65504">
        <ele>207.2</ele>
        <time>2026-01-09T13:26:32.000Z</time>
      </trkpt>
      <trkpt lat="43.51801" lon="6.65515">
        <ele>207.9</ele>
        <time>2026-01-09T13:26:42.000Z</time>
      </trkpt>
      <trkpt lat="43.51792" lon="6.65515">
        <ele>205.8</ele>
        <time>2026-01-09T13:26:52.000Z</time>
      </trkpt>
      <trkpt lat="43.51785" lon="6.6552">
        <ele>210.1</ele>
        <time>2026-01-09T13:27:02.000Z</time>
      </trkpt>
      <trkpt lat="43.51777" lon="6.65521">
        <ele>210.6</ele>
        <time>2026-01-09T13:27:12.000Z</time>
      </trkpt>
      <trkpt lat="43.51769" lon="6.65518">
        <ele>211</ele>
        <time>2026-01-09T13:27:22.000Z</time>
      </trkpt>
      <trkpt lat="43.51765" lon="6.65518">
        <ele>209.4</ele>
        <time>2026-01-09T13:27:32.000Z</time>
      </trkpt>
      <trkpt lat="43.51764" lon="6.65518">
        <ele>211.1</ele>
        <time>2026-01-09T13:28:30.000Z</time>
      </trkpt>
      <trkpt lat="43.51764" lon="6.6552">
        <ele>202.3</ele>
        <time>2026-01-09T13:29:02.000Z</time>
      </trkpt>
      <trkpt lat="43.51767" lon="6.65532">
        <ele>207.5</ele>
        <time>2026-01-09T13:29:12.000Z</time>
      </trkpt>
      <trkpt lat="43.51756" lon="6.65536">
        <ele>209.5</ele>
        <time>2026-01-09T13:29:22.000Z</time>
      </trkpt>
      <trkpt lat="43.51749" lon="6.65534">
        <ele>212.5</ele>
        <time>2026-01-09T13:29:32.000Z</time>
      </trkpt>
      <trkpt lat="43.51746" lon="6.6553">
        <ele>214.4</ele>
        <time>2026-01-09T13:29:42.000Z</time>
      </trkpt>
      <trkpt lat="43.51739" lon="6.65527">
        <ele>215.2</ele>
        <time>2026-01-09T13:29:52.000Z</time>
      </trkpt>
      <trkpt lat="43.51735" lon="6.65528">
        <ele>216.4</ele>
        <time>2026-01-09T13:30:02.000Z</time>
      </trkpt>
      <trkpt lat="43.51744" lon="6.65528">
        <ele>214.4</ele>
        <time>2026-01-09T13:30:12.000Z</time>
      </trkpt>
      <trkpt lat="43.51741" lon="6.65531">
        <ele>219</ele>
        <time>2026-01-09T13:32:43.000Z</time>
      </trkpt>
      <trkpt lat="43.51737" lon="6.65535">
        <ele>219.9</ele>
        <time>2026-01-09T13:32:53.000Z</time>
      </trkpt>
      <trkpt lat="43.51739" lon="6.65542">
        <ele>218.1</ele>
        <time>2026-01-09T13:33:03.000Z</time>
      </trkpt>
      <trkpt lat="43.51735" lon="6.65544">
        <ele>217.8</ele>
        <time>2026-01-09T13:33:13.000Z</time>
      </trkpt>
      <trkpt lat="43.51734" lon="6.65544">
        <ele>219.5</ele>
        <time>2026-01-09T13:33:45.000Z</time>
      </trkpt>
      <trkpt lat="43.51739" lon="6.65546">
        <ele>218.9</ele>
        <time>2026-01-09T13:33:55.000Z</time>
      </trkpt>
      <trkpt lat="43.5174" lon="6.65552">
        <ele>218.2</ele>
        <time>2026-01-09T13:34:05.000Z</time>
      </trkpt>
      <trkpt lat="43.51734" lon="6.65551">
        <ele>217.9</ele>
        <time>2026-01-09T13:34:15.000Z</time>
      </trkpt>
      <trkpt lat="43.51736" lon="6.65558">
        <ele>219.4</ele>
        <time>2026-01-09T13:34:25.000Z</time>
      </trkpt>
      <trkpt lat="43.51734" lon="6.65563">
        <ele>220.1</ele>
        <time>2026-01-09T13:34:35.000Z</time>
      </trkpt>
      <trkpt lat="43.51735" lon="6.65563">
        <ele>218.5</ele>
        <time>2026-01-09T13:35:17.000Z</time>
      </trkpt>
      <trkpt lat="43.51727" lon="6.65565">
        <ele>218.6</ele>
        <time>2026-01-09T13:35:27.000Z</time>
      </trkpt>
      <trkpt lat="43.51724" lon="6.65566">
        <ele>224.5</ele>
        <time>2026-01-09T13:35:44.000Z</time>
      </trkpt>
      <trkpt lat="43.51724" lon="6.65577">
        <ele>219.9</ele>
        <time>2026-01-09T13:35:54.000Z</time>
      </trkpt>
      <trkpt lat="43.51723" lon="6.65572">
        <ele>217.3</ele>
        <time>2026-01-09T13:36:13.000Z</time>
      </trkpt>
      <trkpt lat="43.51725" lon="6.65566">
        <ele>213.7</ele>
        <time>2026-01-09T13:36:23.000Z</time>
      </trkpt>
      <trkpt lat="43.51731" lon="6.65567">
        <ele>208.4</ele>
        <time>2026-01-09T13:36:33.000Z</time>
      </trkpt>
      <trkpt lat="43.51729" lon="6.65565">
        <ele>207.3</ele>
        <time>2026-01-09T13:36:43.000Z</time>
      </trkpt>
      <trkpt lat="43.51727" lon="6.65565">
        <ele>208.1</ele>
        <time>2026-01-09T13:37:14.000Z</time>
      </trkpt>
      <trkpt lat="43.51726" lon="6.65574">
        <ele>213.3</ele>
        <time>2026-01-09T13:37:43.000Z</time>
      </trkpt>
      <trkpt lat="43.51725" lon="6.6557">
        <ele>212.7</ele>
        <time>2026-01-09T13:37:53.000Z</time>
      </trkpt>
      <trkpt lat="43.51725" lon="6.65576">
        <ele>211.4</ele>
        <time>2026-01-09T13:38:03.000Z</time>
      </trkpt>
      <trkpt lat="43.51726" lon="6.65582">
        <ele>211.9</ele>
        <time>2026-01-09T13:38:13.000Z</time>
      </trkpt>
      <trkpt lat="43.51725" lon="6.65588">
        <ele>213.3</ele>
        <time>2026-01-09T13:38:23.000Z</time>
      </trkpt>
      <trkpt lat="43.51721" lon="6.6559">
        <ele>213.3</ele>
        <time>2026-01-09T13:38:33.000Z</time>
      </trkpt>
      <trkpt lat="43.51719" lon="6.65593">
        <ele>212.2</ele>
        <time>2026-01-09T13:38:43.000Z</time>
      </trkpt>
      <trkpt lat="43.51719" lon="6.65593">
        <ele>211.2</ele>
        <time>2026-01-09T13:39:05.000Z</time>
      </trkpt>
      <trkpt lat="43.51718" lon="6.65599">
        <ele>212.5</ele>
        <time>2026-01-09T13:39:15.000Z</time>
      </trkpt>
      <trkpt lat="43.51716" lon="6.65608">
        <ele>211.4</ele>
        <time>2026-01-09T13:39:25.000Z</time>
      </trkpt>
      <trkpt lat="43.51708" lon="6.65604">
        <ele>211.9</ele>
        <time>2026-01-09T13:39:35.000Z</time>
      </trkpt>
      <trkpt lat="43.51704" lon="6.65604">
        <ele>213.3</ele>
        <time>2026-01-09T13:39:45.000Z</time>
      </trkpt>
      <trkpt lat="43.51701" lon="6.65611">
        <ele>213.4</ele>
        <time>2026-01-09T13:39:55.000Z</time>
      </trkpt>
      <trkpt lat="43.51691" lon="6.65611">
        <ele>209</ele>
        <time>2026-01-09T13:40:05.000Z</time>
      </trkpt>
      <trkpt lat="43.51683" lon="6.65611">
        <ele>201.8</ele>
        <time>2026-01-09T13:40:15.000Z</time>
      </trkpt>
      <trkpt lat="43.51676" lon="6.65612">
        <ele>200.9</ele>
        <time>2026-01-09T13:40:25.000Z</time>
      </trkpt>
      <trkpt lat="43.51679" lon="6.65605">
        <ele>187.3</ele>
        <time>2026-01-09T13:40:35.000Z</time>
      </trkpt>
      <trkpt lat="43.51682" lon="6.65604">
        <ele>187.3</ele>
        <time>2026-01-09T13:40:45.000Z</time>
      </trkpt>
      <trkpt lat="43.51681" lon="6.65604">
        <ele>186.5</ele>
        <time>2026-01-09T13:41:19.000Z</time>
      </trkpt>
      <trkpt lat="43.51675" lon="6.65603">
        <ele>184.8</ele>
        <time>2026-01-09T13:42:23.000Z</time>
      </trkpt>
      <trkpt lat="43.51664" lon="6.65611">
        <ele>185.9</ele>
        <time>2026-01-09T13:42:33.000Z</time>
      </trkpt>
      <trkpt lat="43.51656" lon="6.65612">
        <ele>188</ele>
        <time>2026-01-09T13:42:43.000Z</time>
      </trkpt>
      <trkpt lat="43.5165" lon="6.65615">
        <ele>186.7</ele>
        <time>2026-01-09T13:42:53.000Z</time>
      </trkpt>
      <trkpt lat="43.51648" lon="6.6562">
        <ele>188.8</ele>
        <time>2026-01-09T13:43:03.000Z</time>
      </trkpt>
      <trkpt lat="43.51648" lon="6.65624">
        <ele>190.5</ele>
        <time>2026-01-09T13:43:13.000Z</time>
      </trkpt>
      <trkpt lat="43.51645" lon="6.65634">
        <ele>189.4</ele>
        <time>2026-01-09T13:43:23.000Z</time>
      </trkpt>
      <trkpt lat="43.51645" lon="6.65635">
        <ele>188.7</ele>
        <time>2026-01-09T13:43:33.000Z</time>
      </trkpt>
      <trkpt lat="43.51639" lon="6.65632">
        <ele>190.3</ele>
        <time>2026-01-09T13:43:43.000Z</time>
      </trkpt>
      <trkpt lat="43.51631" lon="6.65633">
        <ele>190.1</ele>
        <time>2026-01-09T13:43:53.000Z</time>
      </trkpt>
      <trkpt lat="43.51626" lon="6.65642">
        <ele>186.7</ele>
        <time>2026-01-09T13:44:03.000Z</time>
      </trkpt>
      <trkpt lat="43.51617" lon="6.65644">
        <ele>188.7</ele>
        <time>2026-01-09T13:44:13.000Z</time>
      </trkpt>
      <trkpt lat="43.51611" lon="6.65646">
        <ele>191.6</ele>
        <time>2026-01-09T13:44:23.000Z</time>
      </trkpt>
      <trkpt lat="43.51605" lon="6.65651">
        <ele>191.6</ele>
        <time>2026-01-09T13:44:33.000Z</time>
      </trkpt>
      <trkpt lat="43.516" lon="6.65651">
        <ele>191.7</ele>
        <time>2026-01-09T13:44:43.000Z</time>
      </trkpt>
      <trkpt lat="43.51598" lon="6.65656">
        <ele>189.7</ele>
        <time>2026-01-09T13:44:53.000Z</time>
      </trkpt>
      <trkpt lat="43.51589" lon="6.65661">
        <ele>185.9</ele>
        <time>2026-01-09T13:45:03.000Z</time>
      </trkpt>
      <trkpt lat="43.51585" lon="6.65656">
        <ele>185.1</ele>
        <time>2026-01-09T13:45:13.000Z</time>
      </trkpt>
      <trkpt lat="43.5158" lon="6.65653">
        <ele>187.1</ele>
        <time>2026-01-09T13:45:23.000Z</time>
      </trkpt>
      <trkpt lat="43.51574" lon="6.65654">
        <ele>183.5</ele>
        <time>2026-01-09T13:45:33.000Z</time>
      </trkpt>
      <trkpt lat="43.51566" lon="6.65652">
        <ele>175.1</ele>
        <time>2026-01-09T13:45:43.000Z</time>
      </trkpt>
      <trkpt lat="43.51559" lon="6.65651">
        <ele>173.7</ele>
        <time>2026-01-09T13:45:53.000Z</time>
      </trkpt>
      <trkpt lat="43.51561" lon="6.65648">
        <ele>169.5</ele>
        <time>2026-01-09T13:46:03.000Z</time>
      </trkpt>
      <trkpt lat="43.5155" lon="6.65647">
        <ele>171.6</ele>
        <time>2026-01-09T13:46:13.000Z</time>
      </trkpt>
      <trkpt lat="43.51539" lon="6.6564">
        <ele>171.4</ele>
        <time>2026-01-09T13:46:23.000Z</time>
      </trkpt>
      <trkpt lat="43.51531" lon="6.65639">
        <ele>172.6</ele>
        <time>2026-01-09T13:46:33.000Z</time>
      </trkpt>
      <trkpt lat="43.51528" lon="6.65639">
        <ele>167.5</ele>
        <time>2026-01-09T13:46:43.000Z</time>
      </trkpt>
      <trkpt lat="43.51525" lon="6.65641">
        <ele>170.7</ele>
        <time>2026-01-09T13:46:53.000Z</time>
      </trkpt>
      <trkpt lat="43.51521" lon="6.65642">
        <ele>170.3</ele>
        <time>2026-01-09T13:48:23.000Z</time>
      </trkpt>
      <trkpt lat="43.51522" lon="6.65645">
        <ele>173.1</ele>
        <time>2026-01-09T13:48:42.000Z</time>
      </trkpt>
      <trkpt lat="43.51524" lon="6.65644">
        <ele>173.7</ele>
        <time>2026-01-09T13:49:08.000Z</time>
      </trkpt>
      <trkpt lat="43.51531" lon="6.65641">
        <ele>171</ele>
        <time>2026-01-09T13:49:18.000Z</time>
      </trkpt>
      <trkpt lat="43.51533" lon="6.65639">
        <ele>170.9</ele>
        <time>2026-01-09T13:49:28.000Z</time>
      </trkpt>
      <trkpt lat="43.5154" lon="6.65628">
        <ele>169.7</ele>
        <time>2026-01-09T13:49:38.000Z</time>
      </trkpt>
      <trkpt lat="43.51544" lon="6.65619">
        <ele>168.3</ele>
        <time>2026-01-09T13:49:48.000Z</time>
      </trkpt>
      <trkpt lat="43.5154" lon="6.65609">
        <ele>175.3</ele>
        <time>2026-01-09T13:49:58.000Z</time>
      </trkpt>
      <trkpt lat="43.51537" lon="6.65608">
        <ele>179.4</ele>
        <time>2026-01-09T13:50:08.000Z</time>
      </trkpt>
      <trkpt lat="43.51534" lon="6.65601">
        <ele>178</ele>
        <time>2026-01-09T13:50:18.000Z</time>
      </trkpt>
      <trkpt lat="43.51536" lon="6.65598">
        <ele>178.4</ele>
        <time>2026-01-09T13:50:28.000Z</time>
      </trkpt>
      <trkpt lat="43.51538" lon="6.65593">
        <ele>179.5</ele>
        <time>2026-01-09T13:50:55.000Z</time>
      </trkpt>
      <trkpt lat="43.51538" lon="6.65584">
        <ele>181.7</ele>
        <time>2026-01-09T13:51:13.000Z</time>
      </trkpt>
      <trkpt lat="43.51537" lon="6.65581">
        <ele>182.6</ele>
        <time>2026-01-09T13:51:23.000Z</time>
      </trkpt>
      <trkpt lat="43.51533" lon="6.65573">
        <ele>183.4</ele>
        <time>2026-01-09T13:51:33.000Z</time>
      </trkpt>
      <trkpt lat="43.51533" lon="6.65571">
        <ele>188.4</ele>
        <time>2026-01-09T13:51:43.000Z</time>
      </trkpt>
      <trkpt lat="43.51532" lon="6.65566">
        <ele>187.9</ele>
        <time>2026-01-09T13:51:53.000Z</time>
      </trkpt>
      <trkpt lat="43.51531" lon="6.65562">
        <ele>190.7</ele>
        <time>2026-01-09T13:52:03.000Z</time>
      </trkpt>
      <trkpt lat="43.51529" lon="6.65558">
        <ele>190.9</ele>
        <time>2026-01-09T13:52:13.000Z</time>
      </trkpt>
      <trkpt lat="43.51533" lon="6.65551">
        <ele>190</ele>
        <time>2026-01-09T13:52:23.000Z</time>
      </trkpt>
      <trkpt lat="43.51537" lon="6.6555">
        <ele>190.2</ele>
        <time>2026-01-09T13:52:33.000Z</time>
      </trkpt>
      <trkpt lat="43.51539" lon="6.65545">
        <ele>191.5</ele>
        <time>2026-01-09T13:52:43.000Z</time>
      </trkpt>
      <trkpt lat="43.51533" lon="6.65545">
        <ele>192.1</ele>
        <time>2026-01-09T13:52:53.000Z</time>
      </trkpt>
      <trkpt lat="43.51534" lon="6.65538">
        <ele>192.8</ele>
        <time>2026-01-09T13:53:28.000Z</time>
      </trkpt>
      <trkpt lat="43.51534" lon="6.65534">
        <ele>194</ele>
        <time>2026-01-09T13:53:38.000Z</time>
      </trkpt>
      <trkpt lat="43.51532" lon="6.65527">
        <ele>196.1</ele>
        <time>2026-01-09T13:53:48.000Z</time>
      </trkpt>
      <trkpt lat="43.51531" lon="6.65525">
        <ele>199.1</ele>
        <time>2026-01-09T13:53:58.000Z</time>
      </trkpt>
      <trkpt lat="43.51529" lon="6.65518">
        <ele>199.9</ele>
        <time>2026-01-09T13:54:08.000Z</time>
      </trkpt>
      <trkpt lat="43.5153" lon="6.65506">
        <ele>200.7</ele>
        <time>2026-01-09T13:54:18.000Z</time>
      </trkpt>
      <trkpt lat="43.51527" lon="6.65498">
        <ele>201</ele>
        <time>2026-01-09T13:54:28.000Z</time>
      </trkpt>
      <trkpt lat="43.51529" lon="6.65493">
        <ele>201.7</ele>
        <time>2026-01-09T13:54:38.000Z</time>
      </trkpt>
      <trkpt lat="43.51525" lon="6.65484">
        <ele>203.9</ele>
        <time>2026-01-09T13:54:58.000Z</time>
      </trkpt>
      <trkpt lat="43.51523" lon="6.6548">
        <ele>203.3</ele>
        <time>2026-01-09T13:55:08.000Z</time>
      </trkpt>
      <trkpt lat="43.51524" lon="6.65475">
        <ele>199.5</ele>
        <time>2026-01-09T13:55:18.000Z</time>
      </trkpt>
      <trkpt lat="43.51525" lon="6.65468">
        <ele>203.8</ele>
        <time>2026-01-09T13:55:28.000Z</time>
      </trkpt>
      <trkpt lat="43.51527" lon="6.6546">
        <ele>207</ele>
        <time>2026-01-09T13:57:08.000Z</time>
      </trkpt>
      <trkpt lat="43.51528" lon="6.65456">
        <ele>206.8</ele>
        <time>2026-01-09T13:57:18.000Z</time>
      </trkpt>
      <trkpt lat="43.51527" lon="6.65444">
        <ele>206.7</ele>
        <time>2026-01-09T13:57:28.000Z</time>
      </trkpt>
      <trkpt lat="43.5153" lon="6.65435">
        <ele>204.8</ele>
        <time>2026-01-09T13:57:38.000Z</time>
      </trkpt>
      <trkpt lat="43.51532" lon="6.65426">
        <ele>206.1</ele>
        <time>2026-01-09T13:57:48.000Z</time>
      </trkpt>
      <trkpt lat="43.51533" lon="6.65418">
        <ele>206.8</ele>
        <time>2026-01-09T13:57:58.000Z</time>
      </trkpt>
      <trkpt lat="43.51533" lon="6.65417">
        <ele>204.4</ele>
        <time>2026-01-09T13:58:38.000Z</time>
      </trkpt>
      <trkpt lat="43.51534" lon="6.6541">
        <ele>203.9</ele>
        <time>2026-01-09T13:58:48.000Z</time>
      </trkpt>
      <trkpt lat="43.51535" lon="6.65404">
        <ele>204.3</ele>
        <time>2026-01-09T13:58:58.000Z</time>
      </trkpt>
      <trkpt lat="43.51538" lon="6.65399">
        <ele>204.4</ele>
        <time>2026-01-09T13:59:08.000Z</time>
      </trkpt>
      <trkpt lat="43.51534" lon="6.65386">
        <ele>204.2</ele>
        <time>2026-01-09T13:59:18.000Z</time>
      </trkpt>
      <trkpt lat="43.51537" lon="6.65379">
        <ele>207.2</ele>
        <time>2026-01-09T13:59:28.000Z</time>
      </trkpt>
      <trkpt lat="43.51534" lon="6.65369">
        <ele>207.3</ele>
        <time>2026-01-09T13:59:38.000Z</time>
      </trkpt>
      <trkpt lat="43.51535" lon="6.65361">
        <ele>207.5</ele>
        <time>2026-01-09T13:59:48.000Z</time>
      </trkpt>
      <trkpt lat="43.51536" lon="6.65354">
        <ele>208.5</ele>
        <time>2026-01-09T13:59:58.000Z</time>
      </trkpt>
      <trkpt lat="43.51535" lon="6.65348">
        <ele>205.3</ele>
        <time>2026-01-09T14:00:19.000Z</time>
      </trkpt>
      <trkpt lat="43.51535" lon="6.65346">
        <ele>204.7</ele>
        <time>2026-01-09T14:00:29.000Z</time>
      </trkpt>
      <trkpt lat="43.51534" lon="6.65339">
        <ele>202.3</ele>
        <time>2026-01-09T14:00:39.000Z</time>
      </trkpt>
      <trkpt lat="43.51533" lon="6.6533">
        <ele>205.1</ele>
        <time>2026-01-09T14:00:49.000Z</time>
      </trkpt>
      <trkpt lat="43.51531" lon="6.65319">
        <ele>203.3</ele>
        <time>2026-01-09T14:00:59.000Z</time>
      </trkpt>
      <trkpt lat="43.51531" lon="6.65313">
        <ele>205.1</ele>
        <time>2026-01-09T14:01:09.000Z</time>
      </trkpt>
      <trkpt lat="43.51532" lon="6.65303">
        <ele>204.4</ele>
        <time>2026-01-09T14:01:19.000Z</time>
      </trkpt>
      <trkpt lat="43.51534" lon="6.65296">
        <ele>202.5</ele>
        <time>2026-01-09T14:01:29.000Z</time>
      </trkpt>
      <trkpt lat="43.51536" lon="6.65287">
        <ele>202.8</ele>
        <time>2026-01-09T14:01:39.000Z</time>
      </trkpt>
      <trkpt lat="43.51539" lon="6.65276">
        <ele>200.9</ele>
        <time>2026-01-09T14:01:49.000Z</time>
      </trkpt>
      <trkpt lat="43.5154" lon="6.65266">
        <ele>200.9</ele>
        <time>2026-01-09T14:01:59.000Z</time>
      </trkpt>
      <trkpt lat="43.51542" lon="6.65255">
        <ele>202.5</ele>
        <time>2026-01-09T14:02:09.000Z</time>
      </trkpt>
      <trkpt lat="43.51544" lon="6.65242">
        <ele>204.2</ele>
        <time>2026-01-09T14:02:19.000Z</time>
      </trkpt>
      <trkpt lat="43.51546" lon="6.65233">
        <ele>204.9</ele>
        <time>2026-01-09T14:02:29.000Z</time>
      </trkpt>
      <trkpt lat="43.51549" lon="6.65226">
        <ele>207.3</ele>
        <time>2026-01-09T14:02:39.000Z</time>
      </trkpt>
      <trkpt lat="43.5155" lon="6.65219">
        <ele>210</ele>
        <time>2026-01-09T14:02:49.000Z</time>
      </trkpt>
      <trkpt lat="43.51551" lon="6.65211">
        <ele>210</ele>
        <time>2026-01-09T14:02:59.000Z</time>
      </trkpt>
      <trkpt lat="43.51555" lon="6.65204">
        <ele>211</ele>
        <time>2026-01-09T14:03:09.000Z</time>
      </trkpt>
      <trkpt lat="43.51557" lon="6.652">
        <ele>210.3</ele>
        <time>2026-01-09T14:03:19.000Z</time>
      </trkpt>
      <trkpt lat="43.51557" lon="6.65191">
        <ele>211.1</ele>
        <time>2026-01-09T14:03:29.000Z</time>
      </trkpt>
      <trkpt lat="43.5156" lon="6.65185">
        <ele>213.3</ele>
        <time>2026-01-09T14:03:39.000Z</time>
      </trkpt>
      <trkpt lat="43.5156" lon="6.6518">
        <ele>212.8</ele>
        <time>2026-01-09T14:03:49.000Z</time>
      </trkpt>
      <trkpt lat="43.51562" lon="6.65175">
        <ele>212.5</ele>
        <time>2026-01-09T14:03:59.000Z</time>
      </trkpt>
      <trkpt lat="43.51564" lon="6.65169">
        <ele>211.1</ele>
        <time>2026-01-09T14:04:09.000Z</time>
      </trkpt>
      <trkpt lat="43.51565" lon="6.65162">
        <ele>210.1</ele>
        <time>2026-01-09T14:04:19.000Z</time>
      </trkpt>
      <trkpt lat="43.51563" lon="6.65154">
        <ele>209.2</ele>
        <time>2026-01-09T14:04:29.000Z</time>
      </trkpt>
      <trkpt lat="43.51562" lon="6.65148">
        <ele>211.2</ele>
        <time>2026-01-09T14:04:42.000Z</time>
      </trkpt>
      <trkpt lat="43.51559" lon="6.6514">
        <ele>214.2</ele>
        <time>2026-01-09T14:04:52.000Z</time>
      </trkpt>
      <trkpt lat="43.51558" lon="6.65134">
        <ele>212.6</ele>
        <time>2026-01-09T14:05:02.000Z</time>
      </trkpt>
      <trkpt lat="43.51557" lon="6.65126">
        <ele>214.8</ele>
        <time>2026-01-09T14:05:12.000Z</time>
      </trkpt>
      <trkpt lat="43.51557" lon="6.65121">
        <ele>212.1</ele>
        <time>2026-01-09T14:05:22.000Z</time>
      </trkpt>
      <trkpt lat="43.51559" lon="6.6511">
        <ele>214.2</ele>
        <time>2026-01-09T14:05:32.000Z</time>
      </trkpt>
      <trkpt lat="43.51556" lon="6.65111">
        <ele>212.5</ele>
        <time>2026-01-09T14:05:42.000Z</time>
      </trkpt>
      <trkpt lat="43.51557" lon="6.65109">
        <ele>210.5</ele>
        <time>2026-01-09T14:05:52.000Z</time>
      </trkpt>
      <trkpt lat="43.51562" lon="6.65104">
        <ele>208.4</ele>
        <time>2026-01-09T14:06:02.000Z</time>
      </trkpt>
      <trkpt lat="43.51558" lon="6.65101">
        <ele>209.5</ele>
        <time>2026-01-09T14:06:12.000Z</time>
      </trkpt>
      <trkpt lat="43.51559" lon="6.65096">
        <ele>209.4</ele>
        <time>2026-01-09T14:06:22.000Z</time>
      </trkpt>
      <trkpt lat="43.51557" lon="6.6509">
        <ele>206.1</ele>
        <time>2026-01-09T14:06:32.000Z</time>
      </trkpt>
      <trkpt lat="43.51558" lon="6.65082">
        <ele>203.7</ele>
        <time>2026-01-09T14:06:42.000Z</time>
      </trkpt>
      <trkpt lat="43.51559" lon="6.65075">
        <ele>203.3</ele>
        <time>2026-01-09T14:06:52.000Z</time>
      </trkpt>
      <trkpt lat="43.51557" lon="6.65067">
        <ele>203</ele>
        <time>2026-01-09T14:07:02.000Z</time>
      </trkpt>
      <trkpt lat="43.51556" lon="6.65066">
        <ele>202.1</ele>
        <time>2026-01-09T14:07:46.000Z</time>
      </trkpt>
      <trkpt lat="43.51557" lon="6.65059">
        <ele>201.6</ele>
        <time>2026-01-09T14:07:56.000Z</time>
      </trkpt>
      <trkpt lat="43.51559" lon="6.65051">
        <ele>199.5</ele>
        <time>2026-01-09T14:08:06.000Z</time>
      </trkpt>
      <trkpt lat="43.5156" lon="6.65047">
        <ele>199.9</ele>
        <time>2026-01-09T14:08:16.000Z</time>
      </trkpt>
      <trkpt lat="43.51557" lon="6.65037">
        <ele>200.4</ele>
        <time>2026-01-09T14:08:26.000Z</time>
      </trkpt>
      <trkpt lat="43.51558" lon="6.65032">
        <ele>200.6</ele>
        <time>2026-01-09T14:08:36.000Z</time>
      </trkpt>
      <trkpt lat="43.51556" lon="6.6503">
        <ele>200.5</ele>
        <time>2026-01-09T14:09:31.000Z</time>
      </trkpt>
      <trkpt lat="43.51555" lon="6.65025">
        <ele>200.9</ele>
        <time>2026-01-09T14:09:41.000Z</time>
      </trkpt>
      <trkpt lat="43.51553" lon="6.65026">
        <ele>200.1</ele>
        <time>2026-01-09T14:09:51.000Z</time>
      </trkpt>
      <trkpt lat="43.51549" lon="6.65031">
        <ele>197.5</ele>
        <time>2026-01-09T14:10:01.000Z</time>
      </trkpt>
      <trkpt lat="43.51548" lon="6.6503">
        <ele>197</ele>
        <time>2026-01-09T14:10:11.000Z</time>
      </trkpt>
      <trkpt lat="43.51548" lon="6.65022">
        <ele>197</ele>
        <time>2026-01-09T14:10:21.000Z</time>
      </trkpt>
      <trkpt lat="43.51548" lon="6.65012">
        <ele>200.7</ele>
        <time>2026-01-09T14:10:31.000Z</time>
      </trkpt>
      <trkpt lat="43.51552" lon="6.65013">
        <ele>196</ele>
        <time>2026-01-09T14:10:41.000Z</time>
      </trkpt>
      <trkpt lat="43.51552" lon="6.65006">
        <ele>194.5</ele>
        <time>2026-01-09T14:10:51.000Z</time>
      </trkpt>
      <trkpt lat="43.51551" lon="6.64998">
        <ele>193.9</ele>
        <time>2026-01-09T14:11:01.000Z</time>
      </trkpt>
      <trkpt lat="43.51549" lon="6.64991">
        <ele>191.9</ele>
        <time>2026-01-09T14:11:11.000Z</time>
      </trkpt>
      <trkpt lat="43.51551" lon="6.64994">
        <ele>188.2</ele>
        <time>2026-01-09T14:12:23.000Z</time>
      </trkpt>
      <trkpt lat="43.51555" lon="6.64989">
        <ele>185.6</ele>
        <time>2026-01-09T14:12:33.000Z</time>
      </trkpt>
      <trkpt lat="43.51558" lon="6.64986">
        <ele>184.9</ele>
        <time>2026-01-09T14:12:43.000Z</time>
      </trkpt>
      <trkpt lat="43.51566" lon="6.64986">
        <ele>184.4</ele>
        <time>2026-01-09T14:12:53.000Z</time>
      </trkpt>
      <trkpt lat="43.51569" lon="6.64983">
        <ele>181.3</ele>
        <time>2026-01-09T14:13:11.000Z</time>
      </trkpt>
      <trkpt lat="43.51563" lon="6.64983">
        <ele>178</ele>
        <time>2026-01-09T14:13:21.000Z</time>
      </trkpt>
      <trkpt lat="43.51564" lon="6.64975">
        <ele>178.6</ele>
        <time>2026-01-09T14:13:31.000Z</time>
      </trkpt>
      <trkpt lat="43.51572" lon="6.64971">
        <ele>179.4</ele>
        <time>2026-01-09T14:13:41.000Z</time>
      </trkpt>
      <trkpt lat="43.5158" lon="6.64969">
        <ele>181.8</ele>
        <time>2026-01-09T14:13:51.000Z</time>
      </trkpt>
      <trkpt lat="43.51583" lon="6.64976">
        <ele>181.5</ele>
        <time>2026-01-09T14:14:01.000Z</time>
      </trkpt>
      <trkpt lat="43.51583" lon="6.64973">
        <ele>181.2</ele>
        <time>2026-01-09T14:14:33.000Z</time>
      </trkpt>
      <trkpt lat="43.51585" lon="6.64969">
        <ele>181.5</ele>
        <time>2026-01-09T14:14:43.000Z</time>
      </trkpt>
      <trkpt lat="43.51586" lon="6.64965">
        <ele>182.8</ele>
        <time>2026-01-09T14:14:53.000Z</time>
      </trkpt>
      <trkpt lat="43.51587" lon="6.64964">
        <ele>183.9</ele>
        <time>2026-01-09T14:15:37.000Z</time>
      </trkpt>
      <trkpt lat="43.51589" lon="6.64955">
        <ele>184.8</ele>
        <time>2026-01-09T14:15:47.000Z</time>
      </trkpt>
      <trkpt lat="43.51588" lon="6.64954">
        <ele>186.7</ele>
        <time>2026-01-09T14:16:43.000Z</time>
      </trkpt>
      <trkpt lat="43.51584" lon="6.64953">
        <ele>185.9</ele>
        <time>2026-01-09T14:16:53.000Z</time>
      </trkpt>
      <trkpt lat="43.51583" lon="6.6495">
        <ele>183.9</ele>
        <time>2026-01-09T14:17:03.000Z</time>
      </trkpt>
      <trkpt lat="43.51587" lon="6.64942">
        <ele>183.4</ele>
        <time>2026-01-09T14:17:13.000Z</time>
      </trkpt>
      <trkpt lat="43.51589" lon="6.64943">
        <ele>185.4</ele>
        <time>2026-01-09T14:17:58.000Z</time>
      </trkpt>
      <trkpt lat="43.51593" lon="6.64956">
        <ele>183.2</ele>
        <time>2026-01-09T14:18:08.000Z</time>
      </trkpt>
      <trkpt lat="43.51599" lon="6.64953">
        <ele>183.1</ele>
        <time>2026-01-09T14:18:25.000Z</time>
      </trkpt>
      <trkpt lat="43.51597" lon="6.64944">
        <ele>181.3</ele>
        <time>2026-01-09T14:18:35.000Z</time>
      </trkpt>
      <trkpt lat="43.51592" lon="6.64947">
        <ele>182.7</ele>
        <time>2026-01-09T14:18:58.000Z</time>
      </trkpt>
      <trkpt lat="43.51587" lon="6.64945">
        <ele>185.5</ele>
        <time>2026-01-09T14:19:08.000Z</time>
      </trkpt>
      <trkpt lat="43.51586" lon="6.64943">
        <ele>184.9</ele>
        <time>2026-01-09T14:19:26.000Z</time>
      </trkpt>
      <trkpt lat="43.51586" lon="6.64937">
        <ele>185</ele>
        <time>2026-01-09T14:19:36.000Z</time>
      </trkpt>
      <trkpt lat="43.51579" lon="6.64933">
        <ele>180.2</ele>
        <time>2026-01-09T14:19:46.000Z</time>
      </trkpt>
      <trkpt lat="43.51575" lon="6.64938">
        <ele>179.6</ele>
        <time>2026-01-09T14:19:56.000Z</time>
      </trkpt>
      <trkpt lat="43.51572" lon="6.64938">
        <ele>179.8</ele>
        <time>2026-01-09T14:20:06.000Z</time>
      </trkpt>
      <trkpt lat="43.51568" lon="6.64941">
        <ele>181</ele>
        <time>2026-01-09T14:20:54.000Z</time>
      </trkpt>
      <trkpt lat="43.5156" lon="6.6494">
        <ele>179.3</ele>
        <time>2026-01-09T14:21:04.000Z</time>
      </trkpt>
      <trkpt lat="43.51555" lon="6.64947">
        <ele>178.4</ele>
        <time>2026-01-09T14:21:14.000Z</time>
      </trkpt>
      <trkpt lat="43.51554" lon="6.64953">
        <ele>178.6</ele>
        <time>2026-01-09T14:21:24.000Z</time>
      </trkpt>
      <trkpt lat="43.51553" lon="6.64954">
        <ele>178</ele>
        <time>2026-01-09T14:21:43.000Z</time>
      </trkpt>
      <trkpt lat="43.51553" lon="6.64964">
        <ele>177.2</ele>
        <time>2026-01-09T14:21:53.000Z</time>
      </trkpt>
      <trkpt lat="43.51547" lon="6.6497">
        <ele>175</ele>
        <time>2026-01-09T14:22:03.000Z</time>
      </trkpt>
      <trkpt lat="43.51543" lon="6.64978">
        <ele>174.9</ele>
        <time>2026-01-09T14:22:13.000Z</time>
      </trkpt>
      <trkpt lat="43.51539" lon="6.64984">
        <ele>174.4</ele>
        <time>2026-01-09T14:22:23.000Z</time>
      </trkpt>
      <trkpt lat="43.51532" lon="6.64984">
        <ele>173.4</ele>
        <time>2026-01-09T14:22:33.000Z</time>
      </trkpt>
      <trkpt lat="43.51525" lon="6.64979">
        <ele>173.2</ele>
        <time>2026-01-09T14:22:43.000Z</time>
      </trkpt>
      <trkpt lat="43.51522" lon="6.64971">
        <ele>174.4</ele>
        <time>2026-01-09T14:22:53.000Z</time>
      </trkpt>
      <trkpt lat="43.51516" lon="6.64976">
        <ele>171.2</ele>
        <time>2026-01-09T14:23:03.000Z</time>
      </trkpt>
      <trkpt lat="43.51511" lon="6.64976">
        <ele>170.7</ele>
        <time>2026-01-09T14:23:13.000Z</time>
      </trkpt>
      <trkpt lat="43.51511" lon="6.64973">
        <ele>169</ele>
        <time>2026-01-09T14:23:33.000Z</time>
      </trkpt>
      <trkpt lat="43.51516" lon="6.64964">
        <ele>169.1</ele>
        <time>2026-01-09T14:23:43.000Z</time>
      </trkpt>
      <trkpt lat="43.51522" lon="6.64956">
        <ele>168.4</ele>
        <time>2026-01-09T14:23:53.000Z</time>
      </trkpt>
      <trkpt lat="43.51527" lon="6.64944">
        <ele>168.1</ele>
        <time>2026-01-09T14:24:03.000Z</time>
      </trkpt>
      <trkpt lat="43.51528" lon="6.6493">
        <ele>169.5</ele>
        <time>2026-01-09T14:24:13.000Z</time>
      </trkpt>
      <trkpt lat="43.51527" lon="6.64917">
        <ele>168.7</ele>
        <time>2026-01-09T14:24:23.000Z</time>
      </trkpt>
      <trkpt lat="43.51526" lon="6.64903">
        <ele>171.4</ele>
        <time>2026-01-09T14:24:33.000Z</time>
      </trkpt>
      <trkpt lat="43.51525" lon="6.64891">
        <ele>173.4</ele>
        <time>2026-01-09T14:24:43.000Z</time>
      </trkpt>
      <trkpt lat="43.51524" lon="6.64876">
        <ele>172.9</ele>
        <time>2026-01-09T14:24:53.000Z</time>
      </trkpt>
      <trkpt lat="43.51526" lon="6.64861">
        <ele>173</ele>
        <time>2026-01-09T14:25:03.000Z</time>
      </trkpt>
      <trkpt lat="43.51529" lon="6.64849">
        <ele>172.7</ele>
        <time>2026-01-09T14:25:13.000Z</time>
      </trkpt>
      <trkpt lat="43.51532" lon="6.64837">
        <ele>174.2</ele>
        <time>2026-01-09T14:25:23.000Z</time>
      </trkpt>
      <trkpt lat="43.51535" lon="6.64825">
        <ele>175.1</ele>
        <time>2026-01-09T14:25:33.000Z</time>
      </trkpt>
      <trkpt lat="43.51538" lon="6.64815">
        <ele>173.5</ele>
        <time>2026-01-09T14:25:43.000Z</time>
      </trkpt>
      <trkpt lat="43.51535" lon="6.64801">
        <ele>178.4</ele>
        <time>2026-01-09T14:25:53.000Z</time>
      </trkpt>
      <trkpt lat="43.51526" lon="6.64797">
        <ele>175.2</ele>
        <time>2026-01-09T14:26:03.000Z</time>
      </trkpt>
      <trkpt lat="43.51515" lon="6.64792">
        <ele>175.7</ele>
        <time>2026-01-09T14:26:13.000Z</time>
      </trkpt>
      <trkpt lat="43.51505" lon="6.64792">
        <ele>174.6</ele>
        <time>2026-01-09T14:26:23.000Z</time>
      </trkpt>
      <trkpt lat="43.51495" lon="6.64791">
        <ele>172.6</ele>
        <time>2026-01-09T14:26:33.000Z</time>
      </trkpt>
      <trkpt lat="43.51485" lon="6.6479">
        <ele>173.6</ele>
        <time>2026-01-09T14:26:43.000Z</time>
      </trkpt>
      <trkpt lat="43.51475" lon="6.6479">
        <ele>173.9</ele>
        <time>2026-01-09T14:26:53.000Z</time>
      </trkpt>
      <trkpt lat="43.51466" lon="6.64792">
        <ele>172.5</ele>
        <time>2026-01-09T14:27:03.000Z</time>
      </trkpt>
      <trkpt lat="43.51457" lon="6.64791">
        <ele>172.4</ele>
        <time>2026-01-09T14:27:13.000Z</time>
      </trkpt>
      <trkpt lat="43.51446" lon="6.6479">
        <ele>173.1</ele>
        <time>2026-01-09T14:27:23.000Z</time>
      </trkpt>
      <trkpt lat="43.51437" lon="6.6479">
        <ele>172.8</ele>
        <time>2026-01-09T14:27:33.000Z</time>
      </trkpt>
      <trkpt lat="43.51428" lon="6.6479">
        <ele>171.1</ele>
        <time>2026-01-09T14:27:43.000Z</time>
      </trkpt>
      <trkpt lat="43.51419" lon="6.64792">
        <ele>170.9</ele>
        <time>2026-01-09T14:27:53.000Z</time>
      </trkpt>
      <trkpt lat="43.51409" lon="6.64793">
        <ele>170.1</ele>
        <time>2026-01-09T14:28:03.000Z</time>
      </trkpt>
      <trkpt lat="43.51399" lon="6.64793">
        <ele>169.3</ele>
        <time>2026-01-09T14:28:13.000Z</time>
      </trkpt>
      <trkpt lat="43.51389" lon="6.64794">
        <ele>167.6</ele>
        <time>2026-01-09T14:28:23.000Z</time>
      </trkpt>
      <trkpt lat="43.5138" lon="6.64791">
        <ele>167.5</ele>
        <time>2026-01-09T14:28:33.000Z</time>
      </trkpt>
      <trkpt lat="43.51381" lon="6.64792">
        <ele>167</ele>
        <time>2026-01-09T14:29:05.000Z</time>
      </trkpt>
      <trkpt lat="43.51371" lon="6.64793">
        <ele>165.6</ele>
        <time>2026-01-09T14:29:15.000Z</time>
      </trkpt>
      <trkpt lat="43.51367" lon="6.64793">
        <ele>167.1</ele>
        <time>2026-01-09T14:29:25.000Z</time>
      </trkpt>
      <trkpt lat="43.51362" lon="6.64793">
        <ele>166.7</ele>
        <time>2026-01-09T14:29:44.000Z</time>
      </trkpt>
      <trkpt lat="43.51355" lon="6.64792">
        <ele>164.5</ele>
        <time>2026-01-09T14:29:54.000Z</time>
      </trkpt>
      <trkpt lat="43.51347" lon="6.64789">
        <ele>165</ele>
        <time>2026-01-09T14:30:04.000Z</time>
      </trkpt>
      <trkpt lat="43.51339" lon="6.64787">
        <ele>163.8</ele>
        <time>2026-01-09T14:30:14.000Z</time>
      </trkpt>
      <trkpt lat="43.51332" lon="6.64783">
        <ele>163.7</ele>
        <time>2026-01-09T14:30:24.000Z</time>
      </trkpt>
      <trkpt lat="43.51323" lon="6.64779">
        <ele>163.8</ele>
        <time>2026-01-09T14:30:34.000Z</time>
      </trkpt>
      <trkpt lat="43.51314" lon="6.64774">
        <ele>164.3</ele>
        <time>2026-01-09T14:30:44.000Z</time>
      </trkpt>
      <trkpt lat="43.51305" lon="6.64767">
        <ele>165.2</ele>
        <time>2026-01-09T14:30:54.000Z</time>
      </trkpt>
      <trkpt lat="43.51298" lon="6.64758">
        <ele>163.7</ele>
        <time>2026-01-09T14:31:04.000Z</time>
      </trkpt>
      <trkpt lat="43.51293" lon="6.64755">
        <ele>166.4</ele>
        <time>2026-01-09T14:31:14.000Z</time>
      </trkpt>
      <trkpt lat="43.51283" lon="6.6475">
        <ele>164.7</ele>
        <time>2026-01-09T14:31:24.000Z</time>
      </trkpt>
      <trkpt lat="43.51273" lon="6.64744">
        <ele>163.4</ele>
        <time>2026-01-09T14:31:34.000Z</time>
      </trkpt>
      <trkpt lat="43.51264" lon="6.64735">
        <ele>164.3</ele>
        <time>2026-01-09T14:31:44.000Z</time>
      </trkpt>
      <trkpt lat="43.51255" lon="6.64727">
        <ele>164.3</ele>
        <time>2026-01-09T14:31:54.000Z</time>
      </trkpt>
      <trkpt lat="43.51245" lon="6.64721">
        <ele>165.3</ele>
        <time>2026-01-09T14:32:04.000Z</time>
      </trkpt>
      <trkpt lat="43.51237" lon="6.64713">
        <ele>165.6</ele>
        <time>2026-01-09T14:32:14.000Z</time>
      </trkpt>
      <trkpt lat="43.5123" lon="6.64702">
        <ele>165.4</ele>
        <time>2026-01-09T14:32:24.000Z</time>
      </trkpt>
      <trkpt lat="43.51224" lon="6.64693">
        <ele>164.6</ele>
        <time>2026-01-09T14:32:34.000Z</time>
      </trkpt>
      <trkpt lat="43.51217" lon="6.64682">
        <ele>165.9</ele>
        <time>2026-01-09T14:32:44.000Z</time>
      </trkpt>
      <trkpt lat="43.51211" lon="6.6467">
        <ele>165.1</ele>
        <time>2026-01-09T14:32:54.000Z</time>
      </trkpt>
      <trkpt lat="43.51206" lon="6.64656">
        <ele>164.3</ele>
        <time>2026-01-09T14:33:04.000Z</time>
      </trkpt>
      <trkpt lat="43.51203" lon="6.64642">
        <ele>162.5</ele>
        <time>2026-01-09T14:33:14.000Z</time>
      </trkpt>
      <trkpt lat="43.512" lon="6.64628">
        <ele>160.7</ele>
        <time>2026-01-09T14:33:24.000Z</time>
      </trkpt>
      <trkpt lat="43.51198" lon="6.64615">
        <ele>159</ele>
        <time>2026-01-09T14:33:34.000Z</time>
      </trkpt>
      <trkpt lat="43.51198" lon="6.64602">
        <ele>156.5</ele>
        <time>2026-01-09T14:33:44.000Z</time>
      </trkpt>
      <trkpt lat="43.51198" lon="6.64589">
        <ele>154.8</ele>
        <time>2026-01-09T14:33:54.000Z</time>
      </trkpt>
      <trkpt lat="43.51196" lon="6.64575">
        <ele>153.3</ele>
        <time>2026-01-09T14:34:04.000Z</time>
      </trkpt>
      <trkpt lat="43.51195" lon="6.64561">
        <ele>153.7</ele>
        <time>2026-01-09T14:34:14.000Z</time>
      </trkpt>
      <trkpt lat="43.51194" lon="6.64547">
        <ele>152.6</ele>
        <time>2026-01-09T14:34:24.000Z</time>
      </trkpt>
      <trkpt lat="43.51194" lon="6.64533">
        <ele>151.8</ele>
        <time>2026-01-09T14:34:34.000Z</time>
      </trkpt>
      <trkpt lat="43.51194" lon="6.64519">
        <ele>151.3</ele>
        <time>2026-01-09T14:34:44.000Z</time>
      </trkpt>
      <trkpt lat="43.51195" lon="6.64505">
        <ele>149.9</ele>
        <time>2026-01-09T14:34:54.000Z</time>
      </trkpt>
      <trkpt lat="43.51197" lon="6.6449">
        <ele>150.9</ele>
        <time>2026-01-09T14:35:04.000Z</time>
      </trkpt>
      <trkpt lat="43.51199" lon="6.64471">
        <ele>151.9</ele>
        <time>2026-01-09T14:35:14.000Z</time>
      </trkpt>
      <trkpt lat="43.51202" lon="6.64457">
        <ele>151.7</ele>
        <time>2026-01-09T14:35:24.000Z</time>
      </trkpt>
      <trkpt lat="43.51206" lon="6.64443">
        <ele>152.5</ele>
        <time>2026-01-09T14:35:34.000Z</time>
      </trkpt>
      <trkpt lat="43.5121" lon="6.64429">
        <ele>153.9</ele>
        <time>2026-01-09T14:35:44.000Z</time>
      </trkpt>
      <trkpt lat="43.51216" lon="6.64415">
        <ele>156.1</ele>
        <time>2026-01-09T14:35:54.000Z</time>
      </trkpt>
      <trkpt lat="43.51221" lon="6.64402">
        <ele>157.1</ele>
        <time>2026-01-09T14:36:04.000Z</time>
      </trkpt>
      <trkpt lat="43.51226" lon="6.6439">
        <ele>157.5</ele>
        <time>2026-01-09T14:36:14.000Z</time>
      </trkpt>
      <trkpt lat="43.51231" lon="6.64376">
        <ele>157.8</ele>
        <time>2026-01-09T14:36:24.000Z</time>
      </trkpt>
      <trkpt lat="43.51237" lon="6.64366">
        <ele>158.3</ele>
        <time>2026-01-09T14:36:34.000Z</time>
      </trkpt>
      <trkpt lat="43.51244" lon="6.64355">
        <ele>159.3</ele>
        <time>2026-01-09T14:36:44.000Z</time>
      </trkpt>
      <trkpt lat="43.51251" lon="6.64344">
        <ele>160.4</ele>
        <time>2026-01-09T14:36:54.000Z</time>
      </trkpt>
      <trkpt lat="43.51257" lon="6.64336">
        <ele>160.1</ele>
        <time>2026-01-09T14:37:04.000Z</time>
      </trkpt>
      <trkpt lat="43.51263" lon="6.64325">
        <ele>158.6</ele>
        <time>2026-01-09T14:37:14.000Z</time>
      </trkpt>
      <trkpt lat="43.5127" lon="6.64315">
        <ele>159.1</ele>
        <time>2026-01-09T14:37:24.000Z</time>
      </trkpt>
      <trkpt lat="43.51277" lon="6.64304">
        <ele>159</ele>
        <time>2026-01-09T14:37:34.000Z</time>
      </trkpt>
      <trkpt lat="43.51286" lon="6.64294">
        <ele>159.4</ele>
        <time>2026-01-09T14:37:44.000Z</time>
      </trkpt>
      <trkpt lat="43.51292" lon="6.64284">
        <ele>159.4</ele>
        <time>2026-01-09T14:37:54.000Z</time>
      </trkpt>
      <trkpt lat="43.513" lon="6.64272">
        <ele>158.7</ele>
        <time>2026-01-09T14:38:04.000Z</time>
      </trkpt>
      <trkpt lat="43.51307" lon="6.64261">
        <ele>157.9</ele>
        <time>2026-01-09T14:38:14.000Z</time>
      </trkpt>
      <trkpt lat="43.51315" lon="6.64251">
        <ele>156.8</ele>
        <time>2026-01-09T14:38:24.000Z</time>
      </trkpt>
      <trkpt lat="43.51323" lon="6.64241">
        <ele>156.6</ele>
        <time>2026-01-09T14:38:34.000Z</time>
      </trkpt>
      <trkpt lat="43.5133" lon="6.64231">
        <ele>157.1</ele>
        <time>2026-01-09T14:38:44.000Z</time>
      </trkpt>
      <trkpt lat="43.51336" lon="6.6422">
        <ele>155.9</ele>
        <time>2026-01-09T14:38:54.000Z</time>
      </trkpt>
      <trkpt lat="43.51343" lon="6.64208">
        <ele>155.4</ele>
        <time>2026-01-09T14:39:04.000Z</time>
      </trkpt>
      <trkpt lat="43.51349" lon="6.64197">
        <ele>153.5</ele>
        <time>2026-01-09T14:39:14.000Z</time>
      </trkpt>
      <trkpt lat="43.51354" lon="6.64185">
        <ele>153.9</ele>
        <time>2026-01-09T14:39:24.000Z</time>
      </trkpt>
      <trkpt lat="43.51358" lon="6.64173">
        <ele>153.8</ele>
        <time>2026-01-09T14:39:34.000Z</time>
      </trkpt>
      <trkpt lat="43.51363" lon="6.6416">
        <ele>153.9</ele>
        <time>2026-01-09T14:39:44.000Z</time>
      </trkpt>
      <trkpt lat="43.51367" lon="6.64149">
        <ele>153</ele>
        <time>2026-01-09T14:39:54.000Z</time>
      </trkpt>
      <trkpt lat="43.5137" lon="6.64137">
        <ele>152.1</ele>
        <time>2026-01-09T14:40:04.000Z</time>
      </trkpt>
      <trkpt lat="43.51374" lon="6.64124">
        <ele>151.5</ele>
        <time>2026-01-09T14:40:14.000Z</time>
      </trkpt>
      <trkpt lat="43.51378" lon="6.64111">
        <ele>151.2</ele>
        <time>2026-01-09T14:40:24.000Z</time>
      </trkpt>
      <trkpt lat="43.51382" lon="6.64098">
        <ele>150</ele>
        <time>2026-01-09T14:40:34.000Z</time>
      </trkpt>
      <trkpt lat="43.51386" lon="6.64084">
        <ele>148.3</ele>
        <time>2026-01-09T14:40:44.000Z</time>
      </trkpt>
      <trkpt lat="43.51391" lon="6.6407">
        <ele>149.2</ele>
        <time>2026-01-09T14:40:54.000Z</time>
      </trkpt>
      <trkpt lat="43.51395" lon="6.64057">
        <ele>149.9</ele>
        <time>2026-01-09T14:41:04.000Z</time>
      </trkpt>
      <trkpt lat="43.51398" lon="6.64045">
        <ele>151.5</ele>
        <time>2026-01-09T14:41:14.000Z</time>
      </trkpt>
      <trkpt lat="43.51403" lon="6.64033">
        <ele>151.1</ele>
        <time>2026-01-09T14:41:24.000Z</time>
      </trkpt>
      <trkpt lat="43.51405" lon="6.64022">
        <ele>151.2</ele>
        <time>2026-01-09T14:41:34.000Z</time>
      </trkpt>
      <trkpt lat="43.51407" lon="6.6401">
        <ele>146.5</ele>
        <time>2026-01-09T14:41:44.000Z</time>
      </trkpt>
      <trkpt lat="43.51412" lon="6.63997">
        <ele>146.1</ele>
        <time>2026-01-09T14:41:54.000Z</time>
      </trkpt>
      <trkpt lat="43.51416" lon="6.63983">
        <ele>144.1</ele>
        <time>2026-01-09T14:42:04.000Z</time>
      </trkpt>
      <trkpt lat="43.5142" lon="6.6397">
        <ele>144.4</ele>
        <time>2026-01-09T14:42:14.000Z</time>
      </trkpt>
      <trkpt lat="43.51422" lon="6.63957">
        <ele>145</ele>
        <time>2026-01-09T14:42:24.000Z</time>
      </trkpt>
      <trkpt lat="43.51423" lon="6.63943">
        <ele>144.4</ele>
        <time>2026-01-09T14:42:34.000Z</time>
      </trkpt>
      <trkpt lat="43.51422" lon="6.6393">
        <ele>143.1</ele>
        <time>2026-01-09T14:42:44.000Z</time>
      </trkpt>
      <trkpt lat="43.51419" lon="6.63918">
        <ele>143.1</ele>
        <time>2026-01-09T14:42:54.000Z</time>
      </trkpt>
      <trkpt lat="43.5142" lon="6.63907">
        <ele>144.4</ele>
        <time>2026-01-09T14:43:04.000Z</time>
      </trkpt>
      <trkpt lat="43.51415" lon="6.63895">
        <ele>144.3</ele>
        <time>2026-01-09T14:43:14.000Z</time>
      </trkpt>
      <trkpt lat="43.51403" lon="6.63894">
        <ele>142.7</ele>
        <time>2026-01-09T14:43:24.000Z</time>
      </trkpt>
      <trkpt lat="43.51393" lon="6.63897">
        <ele>143.6</ele>
        <time>2026-01-09T14:43:34.000Z</time>
      </trkpt>
      <trkpt lat="43.5139" lon="6.63894">
        <ele>143.2</ele>
        <time>2026-01-09T14:43:44.000Z</time>
      </trkpt>
      <trkpt lat="43.51391" lon="6.63893">
        <ele>143.3</ele>
        <time>2026-01-09T14:44:18.000Z</time>
      </trkpt>
    </trkseg>
  </trk>
</gpx>